[[{"header":{"parameterUnit":"m.s-1","parameterCategory":1,"la1":30.6,"la2":29.2853,"lo1":-89.7004,"lo2":-87.6739,"dy":0.0162,"dx":0.0183,"nx":112,"ny":82,"refTime":"2026-03-02T12:00:00:Z","depth":0,"parameterNumber":2,"parameterNumberName":"U-component_of_WINDS"},"data":[0.0,0.0,0.0,0.0,0.0,0.0,0.0,0.0,0.0,0.0,0.0,0.0,0.0,0.0,0.0,0.0,0.0,0.0,0.0,0.0,0.0,0.0,0.0,0.0,0.0,0.0,0.0,0.0,0.0,0.0,0.0,0.0,0.0,0.0,0.0,0.0,0.0,0.0,0.0,0.0,0.0,0.0,0.0,0.0,0.0,0.0,0.0,0.0,0.0,0.0,0.0,0.0,0.0,0.0,0.0,0.0,0.0,0.0,0.0,0.0,0.0,0.0,0.0,0.0,0.0,0.0,0.0,0.0,0.0,0.0,0.0,0.0,0.0,0.0,0.0,0.0,0.0,0.0,0.0,0.0,0.0,0.0,0.0,0.0,0.0,0.0,0.0,0.0,0.0,0.0,0.0,-1.2724,-1.4166,-1.5009,-1.5009,-1.4525,-1.3745,-1.2605,0.0,0.0,0.0,0.0,0.0,0.0,0.0,0.0,0.0,0.0,0.0,0.0,0.0,0.0,0.0,0.0,0.0,0.0,0.0,0.0,0.0,0.0,0.0,0.0,0.0,0.0,0.0,0.0,0.0,0.0,0.0,0.0,0.0,0.0,0.0,0.0,0.0,0.0,0.0,0.0,0.0,0.0,0.0,0.0,0.0,0.0,0.0,0.0,0.0,0.0,0.0,0.0,0.0,0.0,0.0,0.0,0.0,0.0,0.0,0.0,0.0,0.0,0.0,0.0,0.0,0.0,0.0,0.0,0.0,0.0,0.0,0.0,0.0,0.0,0.0,0.0,0.0,0.0,0.0,0.0,0.0,0.0,0.0,0.0,0.0,0.0,0.0,0.0,0.0,0.0,0.0,0.0,0.0,0.0,0.0,0.0,0.0,0.0,0.0,0.0,0.0,0.0,0.0,0.0,-1.1764,-1.4261,-1.516,-1.5567,-1.5567,-1.5085,-1.4293,-1.3148,0.0,0.0,0.0,0.0,0.0,0.0,0.0,0.0,0.0,0.0,0.0,0.0,0.0,0.0,0.0,0.0,0.0,0.0,0.0,0.0,0.0,0.0,0.0,0.0,0.0,0.0,0.0,0.0,0.0,0.0,0.0,0.0,0.0,0.0,0.0,0.0,0.0,0.0,0.0,0.0,0.0,0.0,0.0,0.0,0.0,0.0,0.0,0.0,0.0,0.0,0.0,0.0,0.0,0.0,0.0,0.0,0.0,0.0,0.0,0.0,0.0,0.0,0.0,0.0,0.0,0.0,0.0,0.0,0.0,0.0,0.0,0.0,0.0,0.0,0.0,0.0,0.0,0.0,0.0,0.0,0.0,0.0,0.0,0.0,0.0,0.0,0.0,0.0,0.0,0.0,0.0,0.0,0.0,0.0,0.0,0.0,0.0,0.0,0.0,0.0,0.0,0.0,0.0,-1.1635,-1.281,-1.4714,-1.563,-1.6019,-1.5718,-1.5211,-1.4544,-1.374,-1.2065,0.0,0.0,0.0,0.0,0.0,0.0,0.0,0.0,0.0,0.0,0.0,0.0,0.0,0.0,0.0,0.0,0.0,0.0,0.0,0.0,0.0,0.0,0.0,0.0,0.0,0.0,0.0,0.0,0.0,0.0,0.0,0.0,0.0,0.0,0.0,0.0,0.0,0.0,0.0,0.0,0.0,0.0,0.0,0.0,0.0,0.0,0.0,0.0,0.0,0.0,0.0,0.0,0.0,0.0,0.0,0.0,0.0,0.0,0.0,0.0,0.0,0.0,0.0,0.0,0.0,0.0,0.0,0.0,0.0,0.0,0.0,0.0,0.0,0.0,0.0,0.0,0.0,0.0,0.0,0.0,0.0,0.0,0.0,0.0,0.0,0.0,0.0,0.0,0.0,0.0,0.0,0.0,0.0,0.0,0.0,0.0,0.0,0.0,0.0,0.0,0.0,0.0,-1.3061,-1.3917,-1.4808,-1.5856,-1.6325,-1.5919,-1.516,-1.4475,-1.3921,-1.1638,0.0,0.0,0.0,0.0,0.0,0.0,0.0,0.0,0.0,0.0,0.0,0.0,0.0,0.0,0.0,0.0,0.0,0.0,0.0,0.0,0.0,0.0,0.0,0.0,0.0,0.0,0.0,0.0,0.0,0.0,0.0,0.0,0.0,0.0,0.0,0.0,0.0,0.0,0.0,0.0,0.0,0.0,0.0,0.0,0.0,0.0,0.0,0.0,0.0,0.0,0.0,0.0,0.0,0.0,0.0,0.0,0.0,0.0,0.0,0.0,0.0,0.0,0.0,0.0,0.0,0.0,0.0,0.0,0.0,0.0,0.0,0.0,0.0,0.0,0.0,0.0,0.0,0.0,0.0,0.0,0.0,0.0,0.0,0.0,0.0,0.0,0.0,0.0,0.0,0.0,0.0,0.0,0.0,0.0,0.0,0.0,0.0,0.0,0.0,0.0,0.0,0.0,-1.3488,-1.4808,-1.4884,-1.5856,-1.6475,-1.6437,-1.5035,-1.3909,-1.3303,-1.0709,0.0,0.0,0.0,0.0,0.0,0.0,0.0,0.0,0.0,0.0,0.0,0.0,0.0,0.0,0.0,0.0,0.0,0.0,0.0,0.0,0.0,0.0,0.0,0.0,0.0,0.0,0.0,0.0,0.0,0.0,0.0,0.0,0.0,0.0,0.0,0.0,0.0,0.0,0.0,0.0,0.0,0.0,0.0,0.0,0.0,0.0,0.0,0.0,0.0,0.0,0.0,0.0,0.0,0.0,0.0,0.0,0.0,0.0,0.0,0.0,0.0,0.0,0.0,0.0,0.0,0.0,0.0,0.0,0.0,0.0,0.0,0.0,0.0,0.0,0.0,0.0,0.0,0.0,0.0,0.0,0.0,0.0,0.0,0.0,0.0,0.0,0.0,0.0,0.0,0.0,0.0,0.0,0.0,0.0,0.0,0.0,0.0,0.0,0.0,0.0,0.0,0.0,-1.3276,-1.4525,0.0,-1.5856,-1.635,-1.6032,-1.4898,-1.3927,-1.3243,0.0,0.0,0.0,0.0,0.0,0.0,0.0,0.0,0.0,0.0,0.0,0.0,0.0,0.0,0.0,0.0,0.0,0.0,0.0,0.0,0.0,0.0,0.0,0.0,0.0,0.0,0.0,0.0,0.0,0.0,0.0,0.0,0.0,0.0,0.0,0.0,0.0,0.0,0.0,0.0,0.0,0.0,0.0,0.0,0.0,0.0,0.0,0.0,0.0,0.0,0.0,0.0,0.0,0.0,0.0,0.0,0.0,0.0,0.0,0.0,0.0,0.0,0.0,0.0,0.0,0.0,0.0,0.0,0.0,0.0,0.0,0.0,0.0,0.0,0.0,0.0,0.0,0.0,0.0,0.0,0.0,0.0,0.0,0.0,0.0,0.0,0.0,0.0,0.0,0.0,0.0,0.0,0.0,0.0,0.0,0.0,0.0,0.0,0.0,0.0,0.0,0.0,-1.1461,-1.3251,-1.4425,0.0,-1.5462,-1.5768,-1.5236,-1.4125,-1.319,-1.2576,0.0,0.0,0.0,0.0,0.0,0.0,0.0,0.0,0.0,0.0,0.0,0.0,0.0,0.0,0.0,0.0,0.0,0.0,0.0,0.0,0.0,0.0,0.0,0.0,0.0,0.0,0.0,0.0,0.0,0.0,0.0,0.0,0.0,0.0,0.0,0.0,0.0,0.0,0.0,0.0,0.0,0.0,0.0,0.0,0.0,0.0,0.0,0.0,0.0,0.0,0.0,0.0,0.0,0.0,0.0,0.0,0.0,0.0,0.0,0.0,0.0,0.0,0.0,0.0,0.0,0.0,0.0,0.0,0.0,0.0,0.0,0.0,0.0,0.0,0.0,0.0,0.0,0.0,0.0,0.0,0.0,0.0,0.0,0.0,0.0,0.0,0.0,0.0,0.0,0.0,0.0,0.0,0.0,0.0,0.0,0.0,0.0,0.0,0.0,0.0,0.0,0.0,-1.1437,-1.3514,-1.4657,-1.4135,-1.4576,-1.4657,-1.4123,-1.2558,-1.1439,0.0,0.0,0.0,0.0,0.0,0.0,0.0,0.0,0.0,0.0,0.0,0.0,0.0,0.0,0.0,0.0,0.0,0.0,0.0,0.0,0.0,0.0,0.0,0.0,0.0,0.0,0.0,0.0,0.0,0.0,0.0,0.0,0.0,0.0,0.0,0.0,0.0,0.0,0.0,0.0,0.0,0.0,0.0,0.0,0.0,0.0,0.0,0.0,0.0,0.0,0.0,0.0,0.0,0.0,0.0,0.0,0.0,0.0,0.0,0.0,0.0,0.0,0.0,0.0,0.0,0.0,0.0,0.0,0.0,0.0,0.0,0.0,0.0,0.0,0.0,0.0,0.0,0.0,0.0,0.0,0.0,0.0,0.0,0.0,0.0,0.0,0.0,0.0,0.0,0.0,0.0,0.0,0.0,0.0,0.0,0.0,0.0,0.0,0.0,0.0,0.0,0.0,0.0,-1.0579,-1.2448,-1.3468,-1.2836,-1.3791,-1.4012,-1.286,-1.2048,-1.1209,-1.0305,0.0,0.0,0.0,0.0,0.0,0.0,0.0,0.0,0.0,0.0,0.0,0.0,0.0,0.0,0.0,0.0,0.0,0.0,0.0,0.0,0.0,0.0,0.0,0.0,0.0,0.0,0.0,0.0,0.0,0.0,0.0,0.0,0.0,0.0,0.0,0.0,0.0,0.0,0.0,0.0,0.0,0.0,0.0,0.0,0.0,0.0,0.0,0.0,0.0,0.0,0.0,0.0,0.0,0.0,0.0,0.0,0.0,0.0,0.0,0.0,0.0,0.0,0.0,0.0,0.0,0.0,0.0,0.0,0.0,0.0,0.0,0.0,0.0,0.0,0.0,0.0,0.0,0.0,0.0,0.0,0.0,0.0,0.0,0.0,0.0,0.0,0.0,0.0,0.0,0.0,0.0,0.0,0.0,0.0,0.0,0.0,0.0,0.0,0.0,0.0,0.0,0.0,-1.0181,-1.1749,-1.2566,-1.1949,-1.2819,-1.292,-1.167,-1.1126,-1.0345,-0.9178,0.0,0.0,0.0,0.0,0.0,0.0,0.0,0.0,0.0,0.0,0.0,0.0,0.0,0.0,0.0,0.0,0.0,0.0,0.0,0.0,0.0,0.0,0.0,0.0,0.0,0.0,0.0,0.0,0.0,0.0,0.0,0.0,0.0,0.0,0.0,0.0,0.0,0.0,0.0,0.0,0.0,0.0,0.0,0.0,0.0,0.0,0.0,0.0,0.0,0.0,0.0,0.0,0.0,0.0,0.0,0.0,0.0,0.0,0.0,0.0,0.0,0.0,0.0,0.0,0.0,0.0,0.0,0.0,0.0,0.0,0.0,0.0,0.0,0.0,0.0,0.0,0.0,0.0,0.0,0.0,0.0,0.0,0.0,0.0,0.0,0.0,0.0,0.0,0.0,0.0,0.0,0.0,0.0,0.0,0.0,0.0,0.0,0.0,0.0,0.0,0.0,0.0,-1.0111,-1.1308,-1.1855,-1.1337,-1.1732,-1.164,-1.0647,-1.0026,-0.9194,-0.8067,0.0,0.0,0.0,0.0,0.0,0.0,0.0,0.0,0.0,0.0,0.0,0.0,0.0,0.0,0.0,0.0,0.0,0.0,0.0,0.0,0.0,0.0,0.0,0.0,0.0,0.0,0.0,0.0,0.0,0.0,0.0,0.0,0.0,0.0,0.0,0.0,0.0,0.0,0.0,0.0,0.0,0.0,0.0,0.0,0.0,0.0,0.0,0.0,0.0,0.0,0.0,0.0,0.0,0.0,0.0,0.0,0.0,0.0,0.0,0.0,-1.1523,0.0,0.0,0.0,0.0,0.0,0.0,0.0,0.0,0.0,0.0,0.0,0.0,0.0,0.0,0.0,0.0,0.0,0.0,0.0,0.0,0.0,0.0,0.0,0.0,0.0,0.0,0.0,0.0,0.0,0.0,0.0,0.0,0.0,0.0,0.0,0.0,0.0,0.0,0.0,0.0,0.0,-0.973,-1.0486,-1.0816,-1.0495,-1.1159,-1.1268,-1.0351,-0.9831,-0.9303,-0.8716,-0.7747,0.0,0.0,0.0,0.0,0.0,0.0,0.0,0.0,0.0,0.0,0.0,0.0,0.0,0.0,0.0,0.0,0.0,0.0,0.0,0.0,0.0,0.0,0.0,0.0,0.0,0.0,0.0,0.0,0.0,0.0,0.0,0.0,0.0,0.0,0.0,0.0,0.0,0.0,0.0,0.0,0.0,0.0,0.0,0.0,0.0,0.0,0.0,0.0,0.0,0.0,0.0,0.0,0.0,0.0,0.0,0.0,0.0,0.0,0.0,0.0,-1.2822,0.0,0.0,0.0,0.0,0.0,0.0,0.0,0.0,0.0,0.0,0.0,0.0,0.0,0.0,0.0,0.0,0.0,0.0,0.0,0.0,0.0,0.0,0.0,0.0,0.0,0.0,0.0,0.0,0.0,0.0,0.0,0.0,0.0,0.0,0.0,0.0,0.0,0.0,0.0,0.0,-0.9403,-0.9836,-1.0101,-1.0184,-1.0814,-1.0936,-1.026,-0.9777,-0.9221,-0.8605,-0.7766,0.0,0.0,0.0,0.0,0.0,0.0,0.0,0.0,0.0,0.0,0.0,0.0,0.0,0.0,0.0,0.0,0.0,0.0,0.0,0.0,0.0,0.0,0.0,0.0,0.0,0.0,0.0,0.0,0.0,0.0,0.0,0.0,0.0,0.0,0.0,0.0,0.0,0.0,0.0,0.0,0.0,0.0,0.0,0.0,0.0,0.0,0.0,0.0,0.0,0.0,0.0,0.0,0.0,-1.4124,-1.4469,-1.5462,-1.5016,-1.5255,-1.5944,-1.5167,-1.4953,-1.5097,-1.3955,0.0,0.0,0.0,0.0,0.0,0.0,0.0,0.0,0.0,0.0,0.0,0.0,0.0,0.0,0.0,0.0,0.0,0.0,0.0,0.0,0.0,0.0,0.0,0.0,-1.1183,-1.1274,0.0,0.0,0.0,0.0,0.0,0.0,0.0,0.0,0.0,0.0,0.0,0.0,-0.931,-0.954,-0.9808,-1.0273,-1.0664,-1.0745,-1.0345,-0.9901,-0.9282,-0.8477,-0.7918,-0.7352,0.0,0.0,0.0,0.0,0.0,0.0,0.0,0.0,0.0,0.0,0.0,0.0,0.0,0.0,0.0,0.0,0.0,0.0,0.0,0.0,0.0,0.0,0.0,0.0,0.0,0.0,0.0,0.0,0.0,0.0,0.0,0.0,-1.0181,-1.1861,0.0,0.0,0.0,0.0,0.0,0.0,0.0,0.0,0.0,0.0,0.0,0.0,0.0,-1.4261,-1.5254,-1.5266,-1.5567,-1.6195,-1.6622,-1.7162,-1.7765,-1.7689,-1.7476,-1.7197,-1.7513,0.0,-1.622,-1.5116,0.0,0.0,0.0,0.0,0.0,0.0,0.0,0.0,0.0,0.0,0.0,0.0,0.0,0.0,0.0,0.0,0.0,0.0,0.0,0.0,0.0,0.0,-1.3643,-1.3042,-1.2665,-1.2212,0.0,-1.1205,-1.0754,-0.9694,-0.9195,0.0,0.0,0.0,0.0,0.0,0.0,0.0,-0.9891,-1.0025,-1.0283,-1.0766,-1.0869,-1.086,-1.0817,-1.0376,-0.9891,-0.9365,-0.8555,-0.8056,-0.7959,-0.7216,0.0,0.0,0.0,0.0,0.0,0.0,0.0,0.0,0.0,0.0,0.0,0.0,0.0,0.0,0.0,0.0,0.0,0.0,0.0,0.0,0.0,0.0,0.0,0.0,0.0,0.0,0.0,0.0,0.0,-0.9993,-1.1349,-1.2701,-1.2149,-1.1761,0.0,0.0,0.0,0.0,0.0,0.0,0.0,0.0,0.0,-1.4525,-1.5135,-1.5668,-1.6158,-1.6484,-1.6923,-1.744,-1.7413,-1.7664,-1.8204,-1.8204,-1.8078,-1.7852,-1.8103,-1.8103,-1.7817,-1.6735,-1.5965,-1.5417,0.0,0.0,0.0,0.0,-1.4318,-1.4344,-1.3975,-1.3739,0.0,-1.2845,0.0,0.0,0.0,0.0,0.0,0.0,0.0,0.0,0.0,0.0,-1.3299,-1.2862,-1.2583,-1.2345,-1.202,-1.1887,-1.1421,0.0,-1.0053,-1.0063,-0.9496,0.0,0.0,0.0,0.0,-0.9814,-1.0077,-1.0165,-1.0376,-1.0859,-1.091,-1.091,-1.091,-1.0458,-1.0108,-0.9912,-0.9077,-0.8471,-0.8211,-0.7804,-0.7356,0.0,0.0,0.0,0.0,0.0,0.0,0.0,0.0,0.0,0.0,0.0,0.0,0.0,0.0,0.0,0.0,0.0,0.0,0.0,0.0,0.0,0.0,0.0,0.0,0.0,0.0,0.0,0.0,-1.1173,-1.2215,-1.329,-1.2939,-1.2601,0.0,0.0,0.0,0.0,0.0,0.0,-1.4249,-1.4563,-1.4979,-1.5512,-1.6446,-1.6989,-1.714,-1.7451,-1.7865,-1.8405,-1.8003,-1.8091,-1.8618,-1.8618,-1.8618,-1.8618,-1.8618,-1.8769,-1.8933,-1.799,-1.7338,-1.6914,-1.6763,-1.6647,-1.6441,-1.6039,-1.6093,-1.6196,-1.5387,-1.5069,-1.4864,-1.4008,0.0,-1.2881,-1.2238,0.0,0.0,0.0,0.0,-1.3591,-1.3281,-1.3216,-1.3162,-1.2891,-1.2738,-1.2597,-1.2483,-1.2545,-1.2194,0.0,-1.0833,-1.1048,-1.0614,0.0,0.0,0.0,0.0,-1.0084,-1.019,-1.0293,-1.051,-1.0869,-1.091,-1.091,-1.091,-1.0572,-1.0324,-1.0211,-0.9588,-0.8973,-0.8408,-0.8377,-0.7825,-0.6654,0.0,0.0,0.0,0.0,0.0,0.0,0.0,0.0,0.0,0.0,0.0,0.0,0.0,0.0,0.0,0.0,0.0,0.0,0.0,0.0,0.0,0.0,0.0,0.0,0.0,0.0,0.0,0.0,0.0,-1.3909,-1.3534,0.0,0.0,0.0,0.0,-1.3959,-1.4015,-1.4261,-1.484,-1.5831,-1.666,-1.726,-1.7815,-1.8356,-1.887,-1.8405,-1.8418,-1.8958,-1.8933,-1.9196,-1.9723,-1.9723,-1.9723,-1.9723,-1.9723,-1.9459,-1.8958,-1.8405,-1.8141,-1.8066,-1.7539,-1.6999,-1.6485,-1.6478,-1.6197,-1.583,-1.5709,-1.5378,-1.4987,-1.4935,-1.4542,-1.3964,-1.3032,-1.3086,0.0,0.0,-1.3903,-1.4354,-1.432,-1.432,-1.4331,-1.4307,-1.3901,-1.34,-1.2967,-1.3214,-1.3134,0.0,-1.1197,-1.0909,-1.0876,0.0,-1.0712,-1.0249,-1.093,-1.1187,-1.0303,-1.0582,-1.086,-1.091,-1.091,-1.091,-1.091,-1.089,-1.0664,-1.0221,-1.0159,-0.9753,-0.8896,-0.8854,-0.8616,-0.8108,-0.768,0.0,0.0,0.0,0.0,0.0,0.0,0.0,0.0,0.0,0.0,0.0,0.0,0.0,0.0,0.0,0.0,0.0,0.0,0.0,0.0,0.0,0.0,0.0,0.0,0.0,0.0,0.0,0.0,-1.4997,-1.4645,0.0,-1.4287,-1.4287,-1.4664,-1.5567,-1.563,-1.6045,-1.6974,-1.7388,-1.7702,-1.7903,-1.8442,-1.8807,-1.9008,-1.9535,-1.9886,-2.0087,-2.0439,-2.0715,-2.0891,-2.0891,-2.0891,-2.0891,-2.0891,-2.079,-2.0564,-2.0038,-1.9371,-1.8719,-1.8882,-1.8598,-1.8056,-1.7664,-1.7208,-1.6708,-1.6297,-1.5833,-1.5403,-1.5102,-1.4872,-1.4639,-1.4328,-1.4324,-1.4475,-1.4475,-1.4626,-1.4788,-1.4788,-1.4788,-1.4788,-1.4788,-1.4407,-1.3989,-1.3848,-1.3714,-1.3359,-1.2596,-1.2295,-1.2099,-1.1851,-1.1809,-1.1747,-1.1581,-1.183,-1.1923,-1.1602,-1.1705,-1.1695,-1.1375,-1.1363,-1.123,-1.0931,-1.091,-1.0838,-1.0673,-1.0087,-0.9612,-0.9309,-0.8746,-0.8232,-0.7752,-0.7576,-0.7276,0.0,0.0,0.0,0.0,0.0,0.0,0.0,0.0,0.0,0.0,0.0,0.0,0.0,0.0,0.0,0.0,0.0,0.0,0.0,0.0,0.0,0.0,0.0,0.0,0.0,0.0,-1.4639,-1.5349,-1.5449,-1.5374,-1.5185,-1.5512,-1.6116,-1.7024,-1.6923,-1.7212,-1.8154,-1.838,-1.8555,-1.8731,-1.9284,-1.9673,-1.9835,-2.0577,-2.0968,-2.0968,-2.1345,-2.1493,-2.1493,-2.1493,-2.1493,-2.1493,-2.1493,-2.1493,-2.1455,-2.1119,-2.0514,-1.9849,-1.9811,-1.9578,-1.9202,-1.863,-1.8187,-1.7789,-1.7171,-1.6785,-1.6409,-1.5717,-1.5505,-1.5432,-1.5091,-1.4997,-1.4997,-1.4997,-1.4997,-1.4997,-1.4997,-1.4997,-1.4997,-1.4997,-1.4759,-1.4542,-1.4542,-1.4179,-1.3731,-1.3431,-1.3121,-1.2834,-1.2544,-1.2504,-1.2566,-1.2711,-1.2608,-1.2504,-1.2504,-1.2369,-1.2183,-1.1882,-1.1851,-1.1643,-1.1188,-1.1292,-1.1231,-1.0921,-1.0466,-1.0001,-0.9513,-0.9102,-0.859,-0.7994,-0.7973,-0.7742,-0.7276,0.0,0.0,0.0,0.0,0.0,0.0,0.0,0.0,0.0,0.0,0.0,0.0,0.0,0.0,0.0,0.0,0.0,0.0,0.0,0.0,0.0,0.0,0.0,-1.4154,-1.4626,-1.4991,-1.4991,-1.5906,-1.6337,-1.5831,-1.6782,-1.7662,-1.8191,-1.7739,-1.7677,-1.8254,-1.877,-1.9296,-1.9836,-2.0427,-2.0968,-2.1481,-2.1506,-2.1506,-2.1546,-2.1531,-2.1543,-2.1543,-2.1543,-2.1543,-2.1543,-2.1543,-2.1543,-2.1543,-2.1518,-2.1506,-2.1405,-2.0288,-1.9849,-1.9745,-1.9247,-1.9008,-1.8902,-1.8313,-1.8123,-1.7934,-1.6867,-1.6536,-1.6369,-1.5373,-1.507,-1.5059,-1.5059,-1.5049,-1.5038,-1.5038,-1.5038,-1.5038,-1.5038,-1.5028,-1.5018,-1.5018,-1.4656,-1.4324,-1.4324,-1.3576,-1.2956,-1.2925,-1.2925,-1.308,-1.3524,-1.3204,0.0,-1.2925,-1.2565,-1.2349,-1.2349,-1.2349,-1.2152,-1.1654,-1.2048,-1.1902,-1.0962,-1.1302,-1.094,-0.9582,-0.9953,-0.9774,-0.8917,-0.8906,-0.8678,-0.8201,0.0,0.0,0.0,0.0,0.0,0.0,0.0,0.0,0.0,0.0,0.0,0.0,0.0,0.0,0.0,0.0,0.0,0.0,0.0,0.0,0.0,-1.4161,-1.5261,-1.5261,-1.6103,-1.6719,-1.6719,-1.7313,-1.7677,-1.7526,-1.7802,-1.8204,-1.8732,-1.8632,-1.8995,-1.9962,-2.0163,-2.049,-2.1004,-2.1179,-2.1358,-2.1493,-2.1882,-2.2083,-2.2083,-2.2456,-2.2656,-2.2656,-2.2656,-2.2656,-2.2656,-2.2656,-2.2656,-2.2619,-2.2246,-2.2083,-2.202,-2.1305,-2.0757,-2.0372,-2.0205,-1.9584,-1.8749,-1.8603,-1.8202,-1.7767,-1.7471,-1.7369,-1.7319,-1.7045,-1.6717,-1.6448,-1.6448,-1.6249,-1.6029,-1.6029,-1.6029,-1.6029,-1.6029,-1.577,-1.5504,-1.5504,-1.5132,-1.4811,-1.4811,-1.4604,-1.421,-1.3514,-1.34,-1.3442,-1.3576,-1.3483,0.0,-1.34,-1.332,-1.3248,-1.3248,-1.3248,-1.2927,-1.2162,-1.2235,-1.1902,-1.0962,-1.0704,-1.0415,-1.0025,-0.9808,-0.9443,-0.8906,-0.9185,-0.8958,0.0,0.0,0.0,0.0,0.0,0.0,0.0,0.0,0.0,0.0,0.0,0.0,0.0,0.0,0.0,0.0,0.0,0.0,0.0,0.0,0.0,0.0,-1.5116,-1.612,-1.6371,-1.6983,-1.7486,-1.7702,-1.8216,-1.8531,-1.8531,-1.8744,-1.9108,-1.9673,-1.971,-2.0087,-2.0993,-2.1043,-2.1295,-2.182,-2.1832,-2.1945,-2.2184,-2.2498,-2.2631,-2.2631,-2.2945,-2.3108,-2.3108,-2.3108,-2.3108,-2.3108,-2.3108,-2.3108,-2.3083,-2.2757,-2.2631,0.0,0.0,0.0,0.0,0.0,-2.0497,-1.9831,-1.9549,-1.9205,-1.8797,-1.8262,-1.8078,-1.8017,-1.7791,-1.7513,-1.7296,-1.7296,-1.711,-1.6901,-1.6705,-1.6653,-1.6612,-1.6454,-1.6205,-1.598,-1.598,-1.5608,-1.5287,-1.5287,-1.5132,0.0,-1.4283,-1.401,-1.3876,-1.3876,-1.3721,-1.3659,-1.3879,-1.371,-1.3597,-1.3597,-1.3597,-1.3331,-1.2596,-1.2544,0.0,0.0,0.0,-1.0694,-1.0489,-1.0046,0.0,0.0,0.0,0.0,0.0,0.0,0.0,0.0,-0.8342,-0.8176,0.0,0.0,0.0,0.0,0.0,0.0,0.0,0.0,0.0,0.0,0.0,0.0,0.0,0.0,0.0,0.0,-1.6032,-1.6911,-1.7511,-1.7564,-1.7752,-1.8242,-1.8757,-1.9096,-1.9096,-1.9585,-2.0112,-2.0654,-2.0754,-2.1031,-2.1556,0.0,0.0,0.0,0.0,-2.2606,-2.3095,-2.3108,-2.3108,-2.3108,-2.3108,-2.3108,-2.3108,-2.3108,-2.3108,-2.3108,-2.3108,-2.3108,-2.3108,-2.3108,-2.3108,-2.3007,-2.2058,-2.1681,-2.1669,-2.1613,-2.1528,-2.1386,-2.0771,0.0,0.0,-1.9121,-1.8727,-1.8554,-1.803,-1.7812,-1.7771,-1.7771,-1.774,-1.7606,-1.7192,-1.7089,-1.6975,-1.656,-1.6485,-1.6475,-1.6423,-1.6053,-1.579,-1.579,-1.5432,-1.5132,-1.509,-1.4687,-1.4366,-1.4314,-1.3952,-1.3803,-1.4179,-1.3869,-1.3607,-1.3669,0.0,0.0,-1.3018,-1.2977,-1.2617,-1.1726,-1.1684,-1.1498,-1.1076,-1.0663,-1.0611,-1.0972,-1.1024,-1.0828,-1.0355,-1.0828,-1.1055,-1.1024,-0.9729,-0.9346,0.0,0.0,0.0,0.0,0.0,0.0,0.0,0.0,0.0,0.0,0.0,0.0,0.0,0.0,0.0,-1.6757,-1.7451,-1.8055,-1.8607,-1.8682,-1.8719,-1.8832,-1.9334,-1.966,-1.966,-2.0189,-2.0566,-2.0679,-2.1106,-2.1568,-2.2121,-2.2159,-2.2397,-2.2932,-2.2945,-2.2995,-2.3108,-2.3108,-2.3108,-2.3108,0.0,0.0,-2.3108,-2.3108,-2.3108,-2.3108,-2.3108,-2.3108,-2.3108,-2.3108,-2.3108,-2.3083,-2.2869,-2.2782,-2.2722,-2.2176,-2.1629,-2.1148,-2.1024,-2.0269,-1.9415,-1.9727,-1.9437,-1.897,-1.8871,-1.8547,0.0,-1.8257,-1.7999,-1.7688,-1.7595,-1.7564,-1.7451,-1.6996,-1.6882,-1.6789,-1.6456,-1.634,-1.6249,-1.6249,-1.6205,-1.6029,-1.5618,-1.5173,-1.4738,-1.4366,-1.4231,-1.4066,-1.3762,-1.3648,-1.3765,-1.4128,-1.4144,-1.3958,-1.3493,-1.3462,-1.3093,-1.2224,-1.2151,-1.211,-1.2027,-1.1944,-1.1757,-1.1477,-1.183,-1.1799,-1.1332,-1.1799,-1.2027,-1.2006,-1.0992,-1.0764,0.0,0.0,0.0,0.0,0.0,0.0,0.0,0.0,0.0,0.0,0.0,-1.4079,-1.5475,0.0,-1.6832,-1.7652,-1.8254,-1.8694,-1.8958,-1.9221,-1.9384,-1.9384,-1.9899,-2.0264,-2.0264,-2.0779,-2.1219,-2.1468,-2.1744,-2.2133,-2.2656,-2.2694,-2.2819,-2.3095,-2.3108,-2.3108,-2.3108,-2.3108,-2.3108,-2.3108,-2.3108,-2.3108,-2.3108,-2.3108,-2.3108,-2.3108,-2.3108,-2.3271,-2.3559,-2.3835,-2.3948,-2.3948,-2.3948,-2.3597,-2.3078,-2.272,-2.2372,-2.2063,-2.1721,-2.0953,-2.0096,-2.0096,-1.9649,-1.9108,-1.9108,-1.8942,-1.8756,-1.8756,-1.8568,-1.835,-1.8123,-1.8061,-1.7936,-1.7461,-1.7358,-1.7234,-1.6779,-1.6715,-1.6643,-1.6454,-1.6413,-1.633,-1.6102,-1.5873,-1.5452,-1.4759,-1.4656,-1.4573,-1.4335,-1.4304,-1.4304,-1.4304,-1.4304,-1.4117,-1.3628,-1.338,-1.2979,-1.2349,-1.2307,-1.2307,-1.2307,-1.2307,-1.2193,-1.1944,-1.2183,-1.2193,-1.1954,-1.239,-1.271,-1.2927,-1.272,-1.2368,0.0,0.0,0.0,0.0,0.0,0.0,0.0,0.0,-1.3086,-1.4311,-1.4916,-1.5688,-1.7272,-1.7626,-1.7877,-1.843,-1.8857,-1.9158,-1.9158,-1.9535,-1.9798,-1.9798,-2.0339,-2.0691,-2.0691,-2.1282,-2.1832,-2.2284,-2.241,-2.2631,-2.3083,-2.3108,-2.3108,-2.3108,-2.3108,-2.3108,-2.3108,-2.3108,-2.3108,-2.3108,-2.3221,-2.3271,-2.3283,-2.3384,-2.3434,-2.3434,-2.3434,-2.3697,-2.4192,-2.4612,-2.4788,-2.4788,-2.4788,-2.4236,-2.3403,-2.3102,-2.2905,-2.2719,-2.2175,-2.1527,-2.0904,-2.0512,-1.9927,-1.9347,-1.9264,-1.9233,-1.9222,-1.9129,-1.9108,-1.9015,-1.8642,-1.8548,-1.8434,-1.7968,-1.7823,-1.7709,-1.7244,-1.7151,-1.7037,-1.6715,-1.657,-1.6508,-1.6508,-1.6464,-1.6122,-1.5256,-1.5132,-1.5101,-1.5007,-1.4997,-1.4852,-1.448,-1.4438,-1.4252,-1.3772,-1.339,-1.3,-1.2576,-1.2545,-1.2545,-1.2545,-1.2545,-1.2609,-1.268,-1.268,-1.2722,-1.2815,-1.3155,-1.3493,-1.3865,-1.4273,-1.3848,-1.4821,-1.3639,-1.278,-1.3607,-1.3099,-1.3019,0.0,0.0,-1.4349,-1.5919,-1.6283,-1.6697,-1.789,-1.8505,-1.8995,-1.9535,-1.9673,-1.971,-1.971,-1.9761,-1.9798,-1.9798,-2.0339,-2.0691,-2.0691,-2.1606,-2.2246,-2.2309,-2.2732,-2.3045,-2.3108,-2.3108,-2.3108,-2.3108,-2.3108,-2.3108,-2.3108,-2.3108,-2.3108,-2.3108,-2.3653,-2.3904,-2.3916,-2.4374,-2.46,-2.46,-2.46,-2.4637,-2.4732,-2.4763,-2.4788,-2.4788,-2.4788,-2.4713,-2.4459,-2.3145,-2.2241,-2.1661,-2.1592,-2.1107,-2.0583,-2.1142,-2.0828,-2.0203,-1.9844,-1.972,-1.9627,-1.9222,-1.9108,-1.9088,-1.9046,-1.9025,-1.8911,-1.8413,-1.8309,-1.8185,-1.7719,-1.7626,-1.7606,-1.7564,-1.7213,-1.6944,-1.6944,-1.6643,-1.6236,-1.5691,-1.5608,-1.5463,-1.5049,-1.4997,-1.4976,-1.4925,-1.4925,-1.4728,-1.4273,-1.4179,-1.3952,-1.3473,-1.3465,-1.3465,-1.3465,-1.3465,-1.3662,-1.4076,-1.4076,-1.4283,-1.4697,-1.4738,-1.479,-1.4842,-1.4894,-1.4831,-1.607,-1.509,-1.4293,-1.4135,-1.4205,-1.4538,-1.5367,-1.5517,-1.5869,-1.7225,-1.7501,-1.784,-1.8932,-1.9058,-1.9171,0.0,-2.0087,-2.0327,-2.0327,-2.0327,-2.0327,-2.0327,-2.0541,-2.0817,-2.1144,-2.1845,-2.2447,-2.2732,-2.297,-2.3108,-2.3108,-2.3108,-2.3108,-2.3108,-2.3108,-2.3271,-2.364,-2.364,-2.3772,-2.4086,-2.4368,-2.4481,-2.4481,-2.4687,-2.4788,-2.4813,-2.5146,-2.5272,-2.5297,-2.5636,-2.5774,-2.5774,-2.5774,-2.5493,-2.5,-2.4186,-2.3402,-2.2729,-2.2729,-2.1977,-2.1093,-2.142,-2.0988,-2.0354,-2.0203,-2.0151,-2.011,-1.9913,-1.9862,-1.9799,-1.9575,-1.9502,-1.9388,-1.8922,-1.8818,-1.8694,-1.8206,-1.8112,-1.804,-1.775,-1.7544,-1.742,-1.742,-1.7254,-1.7015,-1.6521,-1.626,-1.605,-1.5825,-1.5804,-1.5701,-1.5432,-1.5163,-1.4925,-1.4728,-1.4707,-1.4624,-1.4438,-1.4417,-1.4417,-1.4417,-1.4417,-1.4511,-1.4707,-1.4707,-1.48,-1.4997,-1.4997,-1.5132,-1.5401,-1.5401,-1.5546,-1.6713,-1.6007,-1.5399,-1.5092,-1.5462,-1.5932,-1.5994,-1.6522,-1.7277,-1.8417,-1.853,-1.8706,-1.9635,-1.9497,-1.9334,-1.9748,-2.0314,-2.0641,-2.0478,-2.0591,-2.0691,-2.0691,-2.0691,-2.0905,-2.1458,-2.1995,-2.2506,-2.3058,-2.3108,-2.3108,-2.3108,-2.3108,-2.3183,-2.3333,-2.3346,-2.3622,-2.4217,-2.423,-2.4431,-2.4788,-2.4938,-2.5034,-2.5046,-2.5197,-2.5272,-2.5297,-2.5674,-2.5837,-2.5862,-2.6323,-2.6499,-2.6499,-2.6499,-2.6129,-2.5613,-2.5361,-2.4639,-2.3749,-2.3749,-2.3075,-2.2225,-2.2225,-2.186,-2.14,-2.1272,-2.1229,-2.1243,-2.1115,-2.0907,-2.0691,-2.0642,-2.0453,-2.0165,-1.9691,-1.9619,-1.9459,-1.8953,-1.873,-1.8539,-1.8375,-1.8124,-1.7884,-1.7884,-1.7781,-1.7585,-1.7254,-1.6964,-1.6663,-1.6444,-1.6413,-1.6278,-1.5946,-1.5577,-1.5328,-1.5194,-1.5183,-1.5132,-1.5007,-1.4997,-1.4997,-1.4997,-1.4997,-1.5059,-1.5183,-1.5183,-1.5245,-1.538,-1.538,-1.5546,-1.5877,-1.5877,-1.6091,-1.65,-1.5731,-1.5299,-1.6908,-1.6886,-1.6901,-1.8506,-1.8494,-1.8455,-1.9535,-1.9334,-1.9146,-1.971,-1.9798,-1.9786,-1.9798,-2.0314,-2.049,-1.9911,-2.0339,-2.0691,-2.0691,-2.0691,-2.0905,0.0,-2.1995,-2.2506,-2.3058,-2.3108,-2.3108,-2.3108,-2.3108,-2.3358,-2.3954,-2.3966,-2.4243,-2.4763,-2.4763,-2.4775,-2.48,-2.5335,-2.5573,-2.5586,-2.6185,-2.6449,-2.6449,-2.6461,-2.6461,-2.6461,-2.6487,-2.6499,-2.6499,-2.6499,-2.6499,-2.6452,-2.6449,-2.5451,-2.4074,-2.4074,-2.4074,-2.4026,-2.4026,-2.4002,-2.3899,-2.3442,-2.3339,-2.3329,-2.2856,-2.2183,-2.1735,-2.2502,-2.2127,-2.143,-2.0949,-2.0862,-2.0697,-2.0151,-1.954,-1.9276,-1.9901,-1.9136,-1.8393,-1.8393,-1.8009,-1.7699,-1.7688,-1.7668,-1.7347,-1.6516,-1.6413,-1.6402,-1.6392,-1.6381,-1.6184,-1.5711,-1.567,-1.5473,-1.5028,-1.4997,-1.4997,-1.4997,-1.4997,-1.5214,-1.5659,-1.567,-1.5887,-1.6361,-1.6361,-1.6371,-1.6392,-1.6392,-1.6392,-1.66,-1.6798,-1.7137,-1.736,-1.7501,-1.7877,-1.8795,-1.8857,-1.8832,-1.9183,-1.9396,-1.9497,-1.9296,-1.9572,-1.9798,-1.9798,-2.0589,-2.1043,-2.0478,-2.1167,-2.1619,-2.1282,-2.0918,0.0,0.0,0.0,0.0,-2.2518,-2.2556,-2.2719,-2.3083,-2.3108,-2.3371,-2.3979,-2.4004,-2.4431,-2.5322,-2.5335,-2.5523,-2.5946,-2.6122,-2.6197,-2.621,-2.6411,-2.6499,-2.6499,-2.6499,-2.6499,-2.6499,-2.6499,-2.6499,-2.6499,-2.6499,-2.6499,-2.6499,-2.6499,-2.6164,-2.5616,-2.5075,-2.4564,-2.4108,-2.4108,-2.4108,-2.4085,-2.3913,-2.3903,-2.3869,-2.3696,-2.3473,-2.3251,-2.3248,-2.3063,-2.2729,-2.2287,-2.2161,-2.1891,-2.0842,-2.0443,-2.0112,-1.9548,-1.9138,-1.887,-1.887,-1.8713,-1.8516,-1.8206,-1.7626,-1.713,-1.6831,-1.656,-1.6413,-1.6413,-1.6413,-1.635,-1.6184,-1.6174,-1.6112,-1.5929,-1.5946,-1.5946,-1.5946,-1.5946,-1.5991,-1.6174,-1.6174,-1.6247,-1.6413,-1.6413,-1.6413,-1.6413,-1.6413,-1.6539,-1.7328,-1.7652,-1.7965,-1.8191,-1.838,-1.8619,-1.9158,-1.9133,-1.9008,-1.9008,-1.9108,-1.9133,-1.877,-1.9007,-1.9296,-1.9497,-2.0464,-2.1094,-2.0742,-2.1443,-2.1882,-2.1531,-2.1207,-2.1159,0.0,0.0,0.0,-2.2272,-2.2498,-2.2732,-2.3083,-2.3108,-2.3459,-2.4268,-2.4293,-2.4808,-2.5921,-2.59,-2.6122,-2.6499,-2.6499,-2.6499,-2.6499,-2.6499,-2.6499,-2.6499,-2.6499,-2.6499,-2.6499,-2.6499,-2.6499,-2.6499,-2.6499,-2.6499,-2.6499,-2.6499,-2.6499,-2.643,-2.5921,-2.5406,-2.4957,-2.4957,-2.4957,-2.4957,-2.4957,-2.4957,-2.4957,-2.4957,-2.4743,-2.453,-2.4553,-2.4365,-2.4015,-2.3567,-2.3438,-2.3094,-2.1778,-2.1306,-2.0858,-1.9901,-1.9515,-1.9295,-1.9139,-1.9108,-1.9005,-1.8704,-1.7999,-1.743,-1.7275,-1.7006,-1.6798,-1.6632,-1.6612,-1.656,-1.6423,-1.6413,-1.6413,-1.6413,-1.6413,-1.6413,-1.6413,-1.6413,-1.6413,-1.6413,-1.6413,-1.6413,-1.6413,-1.6413,-1.6467,-1.6612,-1.6612,-1.6831,-1.8607,-1.8304,-1.7901,-1.9422,-1.9409,-1.9171,-1.966,-1.9359,-1.8995,-1.892,-1.8543,-1.8191,0.0,0.0,-1.838,-1.887,-1.9962,-2.0718,-2.0691,-2.1219,-2.1597,0.0,0.0,0.0,0.0,0.0,0.0,-2.2272,0.0,-2.3045,-2.3108,-2.3133,-2.3647,-2.475,-2.4813,-2.5372,-2.6487,-2.6499,-2.6499,-2.6499,-2.6499,-2.6499,-2.6499,-2.6499,-2.6499,-2.6499,-2.6499,-2.6499,-2.6499,-2.6499,-2.6499,-2.6499,-2.6499,-2.6499,-2.6499,-2.6524,-2.6537,-2.6537,-2.6562,-2.6549,-2.6499,-2.6499,-2.6499,-2.6499,-2.6499,-2.6499,-2.6499,-2.6499,-2.5955,-2.5523,-2.6314,-2.5921,-2.525,-2.4743,-2.4657,-2.433,-2.289,-2.2114,-2.1509,-2.0891,-2.0249,-1.9658,-1.9212,-1.9119,-1.9108,-1.9108,-1.8725,-1.8257,-1.7792,-1.7719,-1.7533,-1.7089,-1.7048,-1.6872,-1.6516,-1.6475,-1.6475,-1.6475,-1.6475,-1.6475,-1.6444,-1.6444,-1.6433,-1.6413,-1.6433,-1.6444,-1.6444,-1.6464,-1.6663,-1.7048,-1.7048,-1.7296,-1.9359,-1.9397,-1.9284,-1.9698,-1.9698,-1.9535,-1.9259,-1.9096,-1.8794,-1.8033,-1.8037,-1.7987,0.0,0.0,0.0,-1.8464,-1.98,0.0,-2.0718,-2.1971,0.0,-2.2372,0.0,-2.2322,-2.2379,-2.235,0.0,0.0,-2.2071,-2.2272,-2.3058,-2.354,-2.4104,-2.4763,-2.5197,-2.5737,-2.6487,-2.6499,-2.6499,-2.6499,-2.6499,-2.6499,-2.6499,-2.6499,-2.6499,-2.6499,-2.6499,-2.6499,-2.6499,-2.6499,-2.6499,-2.6499,-2.6499,-2.6499,-2.6549,-2.6952,-2.7115,-2.7165,-2.7544,-2.719,-2.6499,-2.6499,-2.6499,-2.6499,-2.6499,-2.6499,-2.6499,-2.6499,-2.6349,-2.6245,-2.6465,-2.6349,-2.5988,-2.5284,-2.5573,-2.5345,-2.2918,-2.27,-2.2519,-2.0822,-2.0125,-1.9761,-1.9637,-1.9326,-1.9108,-1.9108,-1.9005,-1.8766,-1.8278,-1.7936,-1.7657,-1.7533,-1.7523,-1.7482,-1.7368,-1.7358,-1.7358,-1.7358,-1.7358,-1.7203,-1.6862,-1.6841,-1.6715,-1.6413,-1.6705,-1.6841,-1.6841,-1.7192,-1.742,-1.7523,-1.7523,-1.7761,-1.9723,-1.9798,-1.9798,-1.9798,-1.9798,-1.966,-1.9121,-1.8856,-1.8476,-1.7617,-1.7548,0.0,-1.6519,-1.7004,0.0,0.0,0.0,0.0,-2.0955,-2.1974,-2.2629,0.0,-2.2595,0.0,-2.2681,-2.2623,-2.2667,0.0,-2.2443,-2.2456,-2.307,-2.369,-2.4255,-2.4775,-2.5322,-2.5908,-2.6487,-2.6499,-2.6499,-2.6499,-2.6499,-2.6499,-2.6499,-2.6499,-2.6499,-2.6499,0.0,-2.6499,-2.6499,-2.6499,-2.6499,-2.6512,-2.6763,-2.6851,-2.6927,-2.7444,-2.7645,-2.7682,-2.7996,-2.7708,-2.718,-2.718,-2.718,-2.718,-2.718,-2.718,-2.7165,-2.6927,-2.6851,-2.6801,-2.6562,-2.6499,-2.6314,-2.5488,-2.5629,-2.5368,-2.3078,-2.295,-2.2759,-2.1031,-2.0358,-2.0048,-2.0048,-1.971,-1.9409,-1.9409,-1.9233,-1.9005,-1.8745,-1.8464,-1.8247,-1.804,-1.8019,-1.7905,-1.7719,-1.7699,-1.7699,-1.7699,-1.7699,-1.7585,-1.7327,-1.7316,-1.7203,-1.6974,-1.7182,-1.7316,-1.7316,-1.7575,-1.7802,-1.8019,-1.8019,-1.8257,-1.9899,-1.9861,-1.9798,-1.9798,-1.9798,-1.9648,-1.9033,-1.8615,-1.8154,-1.7367,0.0,-1.6616,-1.5794,-1.6244,-1.6883,-1.7365,0.0,-1.9623,-2.131,-2.1711,-2.2089,-2.2703,-2.2767,-2.2824,-2.2927,-2.2853,-2.3,-2.3531,-2.3288,-2.3163,-2.3238,-2.3791,-2.4393,-2.5021,-2.5473,-2.5984,-2.6487,-2.6499,-2.6499,-2.6499,-2.6499,-2.6499,-2.6499,-2.6499,-2.6499,-2.6499,-2.6499,0.0,-2.6499,-2.6499,-2.6537,-2.665,-2.7128,-2.7318,-2.7457,-2.8009,-2.821,-2.8235,-2.8298,-2.8335,-2.831,-2.816,-2.8109,-2.8109,-2.8109,-2.8109,-2.8009,-2.7532,-2.7394,-2.7281,-2.6839,-2.6663,-2.638,-2.5597,-2.5431,-2.5016,-2.346,-2.3139,-2.2833,-2.1713,-2.1042,-2.0657,-2.0657,-2.0211,-1.9886,-1.9886,-1.9492,-1.9191,-1.9191,-1.9139,-1.8942,-1.8548,-1.8507,-1.8319,-1.7915,-1.7884,-1.7884,-1.7884,-1.7884,-1.7854,-1.7792,-1.7781,-1.7761,-1.7699,-1.7761,-1.7781,-1.7781,-1.7854,-1.8102,-1.8507,-1.8507,-1.8714,-2.0415,-2.0189,-1.9798,-1.9798,-1.9798,-1.9547,-1.8568,-1.8267,0.0,0.0,-1.6507,-1.6344,-1.5057,-1.593,-1.6914,-1.7046,-1.8362,-1.9914,-2.1586,0.0,-2.2875,0.0,0.0,0.0,0.0,0.0,0.0,0.0,0.0,-2.3533,-2.4001,-2.4431,-2.5134,-2.6172,-2.6298,-2.6386,-2.6499,-2.6499,-2.6499,-2.6499,-2.6499,-2.6499,-2.6499,-2.6499,-2.6499,-2.6499,-2.6499,0.0,-2.6499,-2.6499,-2.6763,-2.719,-2.7278,-2.7557,-2.8034,-2.8549,-2.875,-2.8813,-2.9327,-2.9503,-2.9352,-2.8411,-2.8109,-2.8109,-2.8109,-2.8109,-2.8084,-2.7996,-2.7959,-2.7946,-2.7846,-2.7482,-2.6953,-2.6142,-2.6135,-2.5838,-2.4264,-2.3902,-2.3843,-2.3607,-2.2709,-2.197,-2.197,-2.1037,-2.0307,-2.0307,-1.9924,-1.9679,-1.9679,-1.9347,-1.9077,-1.8994,-1.8984,-1.8953,-1.8847,-1.887,-1.887,-1.887,-1.887,-1.8661,-1.8278,-1.8268,-1.8102,-1.7709,-1.8081,-1.8268,-1.8268,-1.8683,-1.8911,-1.8984,-1.8984,-1.9025,-2.0137,-2.0012,-1.9798,-1.9798,-1.9862,-1.9611,-1.8455,0.0,0.0,0.0,-1.5977,-1.584,-1.5059,-1.5802,0.0,-1.6854,-1.7808,-1.9081,-2.0705,0.0,0.0,0.0,0.0,0.0,0.0,0.0,0.0,0.0,0.0,-2.3614,-2.4078,-2.4815,-2.5598,-2.6461,-2.6499,-2.6499,-2.6499,-2.6499,-2.6499,-2.6499,-2.6499,-2.6499,-2.6499,-2.6499,-2.6499,-2.6499,-2.6499,0.0,-2.6499,-2.6499,-2.6826,-2.7341,-2.7595,-2.8047,-2.8599,-2.9164,-2.9377,-2.9415,-2.9691,-2.9792,-2.9704,-2.9164,-2.8976,-2.8976,-2.8976,-2.8976,-2.8925,-2.8612,-2.8536,-2.8461,-2.8185,-2.7908,-2.7515,-2.6712,-2.613,-2.5409,-2.4322,-2.4108,-2.4108,-2.4108,-2.3636,-2.3237,-2.3237,-2.2573,-2.2004,-2.2004,-2.1296,-2.0727,-2.0727,-2.018,-1.9592,-1.915,-1.9108,-1.9108,-1.9108,-1.9108,-1.9108,-1.9108,-1.9108,-1.9005,-1.8776,-1.8766,-1.8673,-1.8433,-1.8662,-1.8766,-1.8766,-1.8994,-1.9108,-1.9108,-1.9108,-1.9108,-1.9798,-1.9798,-1.9836,-2.0001,-1.9901,-1.9535,-1.8653,-1.8005,0.0,-1.5845,-1.5511,-1.5367,-1.51,0.0,-1.6384,0.0,-1.7448,-1.8452,-1.9952,0.0,0.0,0.0,0.0,0.0,0.0,0.0,0.0,0.0,0.0,0.0,-2.4155,-2.5197,-2.6021,-2.6474,-2.6499,-2.6499,-2.6499,-2.6499,-2.6499,-2.6499,-2.6499,-2.6499,-2.6499,-2.6499,-2.6499,-2.6499,-2.6499,0.0,0.0,-2.6625,-2.7002,-2.7507,-2.8059,-2.8624,-2.9126,-2.9628,-2.9792,-2.9792,-2.9792,-2.9792,-2.9792,-2.9792,-2.9792,-2.9792,-2.9792,-2.9792,-2.9691,-2.9239,-2.9076,-2.9013,-2.8586,-2.8373,-2.8088,-2.7335,-2.6306,-2.5377,-2.4882,-2.4706,-2.4624,-2.4624,-2.4337,-2.4145,-2.4337,-2.3798,-2.3369,-2.3369,-2.2457,-2.1701,-2.1526,-2.0839,-2.0151,-1.9437,-1.9305,-1.9212,-1.9108,-1.9108,-1.9108,-1.9108,-1.9108,-1.9108,-1.9108,-1.9108,-1.9108,-1.9108,-1.9108,-1.9108,-1.9108,-1.9108,-1.9108,-1.9108,-1.9108,-1.915,-1.9798,-1.9798,-1.995,-2.0624,-1.9939,-1.9108,-1.9192,0.0,-1.6477,-1.5316,-1.5203,-1.5156,-1.4658,-1.5568,0.0,0.0,0.0,-1.9076,-2.0429,0.0,0.0,0.0,0.0,0.0,0.0,0.0,0.0,0.0,0.0,0.0,-2.4745,-2.5787,-2.6436,-2.6499,-2.6499,-2.6499,-2.6499,-2.6499,-2.6499,-2.6499,-2.6499,-2.6499,-2.6499,-2.6499,-2.6499,-2.6499,-2.6499,0.0,0.0,-2.704,-2.7532,-2.8084,-2.8599,-2.9202,-2.9716,-2.9779,-2.9792,-2.9792,-2.9792,-2.9792,-2.9792,-2.9792,-2.9792,-2.9792,-2.9792,-2.9792,-2.9779,-2.9729,-2.9716,-2.9704,-2.9654,-2.9252,-2.8687,-2.8112,-2.7526,-2.7078,-2.7028,-2.6629,-2.628,-2.628,-2.5099,-2.4337,-2.5052,-2.4011,-2.3047,-2.3047,-2.2593,-2.1988,-2.1225,-2.0715,-2.0354,-2.0307,-1.9934,-1.9564,-1.9139,-1.9108,-1.9108,-1.9108,-1.9108,-1.9108,-1.9108,-1.9108,-1.9108,-1.9108,-1.9108,-1.9108,-1.9108,-1.9108,-1.9108,-1.9108,-1.9108,-1.9326,-1.9221,-1.956,-1.9799,-1.9864,-1.9559,-1.9051,-1.8378,0.0,-1.6232,-1.5203,-1.4683,-1.4522,-1.4959,-1.5482,-1.6134,0.0,-1.7471,0.0,-1.8907,0.0,0.0,0.0,0.0,0.0,0.0,0.0,0.0,0.0,0.0,0.0,-2.482,-2.5862,-2.6499,-2.6499,-2.6499,-2.6499,-2.6499,-2.6499,-2.6499,-2.6499,-2.6499,-2.6499,-2.6499,-2.6499,-2.6499,-2.6499,-2.6499,0.0,0.0,-2.709,-2.7607,-2.816,-2.8675,-2.9289,-2.9792,-2.9792,-2.9792,-2.9792,-2.9792,-2.9792,-2.9792,-2.9792,-2.9792,-2.9792,-2.9792,-2.9792,-2.9792,-2.9792,-2.9792,-2.9792,-2.9792,-2.9616,-2.9302,-2.8737,-2.8436,-2.8097,-2.7419,-2.714,-2.6889,-2.6562,-2.5581,-2.4933,-2.5229,-2.4396,-2.3658,-2.3658,-2.311,-2.2607,-2.2264,-2.166,-2.1145,-2.0829,-2.0431,-2.0089,-1.9903,-1.9882,-1.9882,-1.9882,-1.9882,-1.9768,-1.9533,-1.9523,-1.9388,-1.9108,-1.9108,-1.9243,-1.9523,-1.9523,-1.9658,-1.9882,-1.9882,-1.9986,-1.8856,-1.9196,-1.9346,-1.9471,-1.9162,-1.865,-1.7966,-1.6921,-1.586,-1.5127,-1.4341,-1.4123,-1.5148,-1.543,-1.5846,-1.6892,-1.7292,-1.7648,-1.812,-1.9269,0.0,0.0,0.0,0.0,0.0,0.0,0.0,0.0,0.0,0.0,-2.482,-2.5862,-2.6499,-2.6499,-2.6499,-2.6499,-2.6499,-2.6499,-2.6499,-2.6499,-2.6499,-2.6499,-2.6499,-2.6499,-2.6499,-2.6499,-2.6499,0.0,0.0,-2.7231,-2.7758,-2.8185,-2.89,-2.9428,-2.9792,-2.9792,-2.9792,-2.9792,-2.9792,-2.9792,-2.9792,-2.9792,-2.9792,-2.9792,-2.9792,-2.9792,-2.9792,-2.9792,-2.9792,-2.9792,-2.9792,-2.9792,-2.9691,-2.9289,-2.9013,-2.8675,-2.7946,-2.7645,-2.7406,-2.7052,-2.6194,-2.5612,-2.5872,-2.5111,-2.4373,-2.4156,-2.3658,-2.3176,-2.2692,-2.2138,-2.1683,-2.1352,-2.1031,-2.0684,-2.0416,-2.0385,-2.0385,-2.0385,-2.0385,-2.0286,-2.001,-1.999,-1.9834,-1.9479,-1.9468,-1.9634,-1.999,-1.999,-2.012,-2.0385,-2.0385,-2.0457,-1.8888,-1.8727,-1.8528,-1.985,-1.8832,-1.7715,-1.8436,-1.6896,-1.5235,-1.4954,-1.4305,-1.4093,-1.5028,-1.5361,-1.5866,-1.7003,-1.7695,0.0,-1.8819,-1.9928,0.0,0.0,0.0,0.0,0.0,0.0,0.0,0.0,0.0,0.0,-2.482,-2.5862,-2.6499,-2.6499,-2.6499,-2.6499,-2.6499,-2.6499,-2.6499,-2.6499,-2.6499,-2.6499,-2.6499,-2.6499,-2.6499,0.0,0.0,0.0,0.0,-2.7645,-2.8097,-2.821,-2.9352,-2.9779,-2.9792,-2.9792,-2.9792,-2.9792,-2.9792,-2.9792,-2.9792,-2.9792,-2.9792,-2.9792,-2.9792,-2.9792,-2.9792,-2.9792,-2.9792,-2.9792,-2.9792,-2.9792,-2.9792,-2.9779,-2.934,-2.8888,-2.8875,-2.8486,-2.8097,-2.8084,-2.7005,-2.6348,-2.7126,-2.6159,-2.5016,-2.4228,-2.4084,-2.3537,-2.2025,-2.1807,-2.1807,-2.1797,-2.1797,-2.1424,-2.0467,-2.0385,-2.0385,-2.0385,-2.0385,-2.0385,-2.0385,-2.0385,-2.0374,-2.0374,-2.0374,-2.0374,-2.0385,-2.0385,-2.0385,-2.0385,-2.0385,-2.0633,-1.7871,-1.8077,-1.8215,-1.8316,-1.7921,-1.7467,-1.732,-1.6273,-1.5235,-1.4999,-1.4341,-1.4123,-1.5148,-1.543,-1.6009,-1.7565,-1.797,0.0,0.0,0.0,0.0,0.0,0.0,0.0,0.0,0.0,0.0,0.0,0.0,0.0,-2.482,-2.5862,-2.6499,-2.6499,-2.6499,-2.6499,-2.6499,-2.6499,-2.6499,-2.6499,-2.6499,-2.6499,-2.6499,-2.6499,-2.6499,0.0,0.0,0.0,0.0,-2.7278,-2.777,-2.8185,-2.8913,-2.9453,-2.9792,-2.9792,-2.9792,-2.9792,-2.9792,-2.9792,-2.9792,-2.9792,-2.9792,-2.9792,-2.9792,-2.9792,-2.9792,-2.9792,-2.9792,-2.9792,-2.9792,-2.9792,-2.9792,-2.9792,-2.9654,-2.9415,-2.8976,-2.875,-2.8561,-2.8185,-2.7299,-2.671,-2.698,-2.5946,-2.4991,-2.4759,-2.4374,-2.3927,-2.3427,-2.3353,-2.3353,-2.3353,-2.3353,-2.2837,-2.1468,-2.1373,-2.1373,-2.1373,-2.1373,-2.1439,-2.1693,-2.1188,-2.0994,-2.1234,-2.0669,-2.0827,-2.1682,-2.1682,-2.2121,-2.2922,-2.2922,-2.3011,-1.7014,-1.7335,-1.7511,-1.7257,-1.7213,-1.7073,-1.6549,-1.5843,-1.519,-1.4771,-1.4217,-1.4041,-1.4808,-1.5068,-1.5657,-1.7144,-1.7426,0.0,0.0,0.0,0.0,0.0,0.0,0.0,0.0,0.0,0.0,0.0,0.0,0.0,-2.5096,-2.5996,-2.6499,-2.6499,-2.6499,-2.6499,-2.6499,-2.6499,-2.6499,-2.6499,-2.6499,-2.6499,-2.6499,-2.6499,-2.6499,0.0,0.0,0.0,0.0,-2.709,-2.7607,-2.816,-2.8675,-2.9289,-2.9792,-2.9792,-2.9792,-2.9792,-2.9792,-2.9792,-2.9792,-2.9792,-2.9792,-2.9792,-2.9792,-2.9792,-2.9792,-2.9792,-2.9792,-2.9792,-2.9792,-2.9792,-2.9792,-2.9792,-2.9792,-2.9691,-2.934,-2.9252,-2.9151,-2.8812,-2.8164,-2.7654,-2.7654,-2.6673,-2.5752,-2.5458,-2.4939,-2.4445,-2.4145,-2.4108,-2.4108,-2.4108,-2.4108,-2.372,-2.2745,-2.267,-2.267,-2.267,-2.267,-2.2763,-2.2967,-2.2484,-2.2342,-2.2535,-2.2062,-2.2179,-2.2992,-2.2992,-2.3354,-2.4108,-2.4108,-2.4108,0.0,-1.6447,-1.643,-1.6549,-1.6583,-1.6464,-1.6026,-1.5562,0.0,-1.4332,-1.3977,-1.3886,-1.4197,-1.4485,-1.5019,-1.6145,-1.6472,0.0,0.0,-2.0072,0.0,0.0,0.0,0.0,0.0,0.0,0.0,0.0,0.0,0.0,-2.5573,-2.6185,-2.6499,-2.6499,-2.6499,-2.6499,-2.6499,-2.6499,-2.6499,-2.6499,-2.6499,-2.6499,-2.6499,-2.6499,-2.6499,0.0,0.0,0.0,0.0,-2.7052,-2.7544,-2.8109,-2.8612,-2.9227,-2.9729,-2.9779,-2.9792,-2.9792,-2.9792,-2.9792,-2.9792,-2.9792,-2.9792,-2.9792,-2.9792,-2.9792,-2.9792,-2.9792,-2.9792,-2.9792,-2.9792,-2.9792,-2.9792,-2.9792,-2.9792,-2.9792,-2.9792,-2.9792,-2.9792,-2.9792,-2.9365,-2.895,-2.895,-2.8109,-2.7179,-2.6396,-2.5804,-2.5171,-2.4431,-2.4276,-2.4264,-2.4264,-2.4264,-2.4264,-2.4264,-2.4192,-2.4108,-2.4108,-2.4108,-2.412,-2.4181,-2.412,-2.412,-2.4181,-2.4192,-2.4192,-2.4192,-2.4228,-2.4264,-2.4264,-2.4217,-2.4192,-1.4639,0.0,-1.5293,-1.5385,-1.5365,-1.5288,0.0,-1.479,-1.4383,-1.4165,-1.386,-1.3891,-1.4657,-1.5073,-1.5743,-1.7111,0.0,0.0,-1.9328,0.0,0.0,0.0,0.0,0.0,0.0,0.0,0.0,0.0,0.0,-2.5163,-2.5573,-2.6185,-2.6499,-2.6499,-2.6499,-2.6499,-2.6499,-2.6499,-2.6499,-2.6499,-2.6499,-2.6499,-2.6499,-2.6499,-2.6499,0.0,0.0,0.0,-2.6499,-2.6637,-2.7014,-2.7532,-2.8084,-2.8637,-2.9189,-2.9628,-2.9792,-2.9792,-2.9792,-2.9792,-2.9792,-2.9792,-2.9792,-2.9792,-2.9792,-2.9792,-2.9792,-2.9792,-2.9792,-2.9792,-2.9792,-2.9792,-2.9792,-2.9792,-2.9792,-2.9792,-2.9792,-2.9792,-2.9792,-2.9792,-2.9679,-2.9591,-2.9591,-2.9013,-2.8462,-2.8276,-2.7442,-2.6749,-2.6559,-2.6202,-2.5943,-2.5943,-2.5943,-2.5943,-2.5943,-2.4814,-2.4108,-2.4108,-2.4108,-2.4384,-2.5004,-2.4409,-2.4373,-2.5016,-2.5016,-2.5016,-2.5016,-2.5652,-2.5943,-2.5908,-2.53,-2.5016,-1.376,-1.4506,-1.5211,-1.5005,-1.5111,-1.5198,-1.4985,-1.455,-1.4118,-1.3846,0.0,0.0,-1.4491,0.0,0.0,0.0,-1.7822,0.0,0.0,0.0,0.0,0.0,0.0,0.0,0.0,0.0,0.0,0.0,0.0,-2.5261,-2.5706,-2.6274,-2.6555,-2.6499,-2.6499,-2.6499,-2.6499,-2.6499,-2.6499,-2.6499,-2.6499,-2.6499,-2.6499,-2.6499,-2.6499,0.0,0.0,0.0,-2.6499,-2.6499,-2.6826,-2.7318,-2.7607,-2.8222,-2.8925,-2.9289,-2.9566,-2.9792,-2.9792,-2.9792,-2.9792,-2.9792,-2.9792,-2.9792,-2.9792,-2.9792,-2.9792,-2.9792,-2.9792,-2.9792,-2.9792,-2.9792,-2.9792,-2.9792,-2.9792,-2.9792,-2.9792,-2.9792,-2.9792,-2.9792,-2.9792,-2.9792,-2.9792,-2.9315,-2.8888,-2.8888,-2.821,-2.7657,-2.7657,-2.7216,-2.6876,-2.6876,-2.665,-2.6499,-2.6499,-2.5687,-2.5205,-2.5205,-2.5205,-2.5394,-2.5851,-2.5441,-2.5394,-2.5838,-2.5851,-2.5851,-2.5851,-2.628,-2.6499,-2.6499,-2.606,-2.5851,-1.3441,-1.4531,-1.5449,-1.4916,-1.5193,-1.5462,-1.5075,0.0,0.0,0.0,0.0,0.0,0.0,-1.469,0.0,0.0,0.0,0.0,-2.2074,0.0,0.0,0.0,0.0,0.0,0.0,0.0,0.0,0.0,0.0,-2.5325,-2.5851,-2.6388,-2.6624,-2.6499,-2.6499,-2.6499,-2.6499,-2.6499,-2.6499,-2.6499,-2.6499,-2.6499,-2.6499,-2.6499,-2.6499,-2.6499,0.0,0.0,-2.6499,-2.6499,-2.6763,-2.7203,-2.7291,-2.7908,-2.8775,-2.8863,-2.9289,-2.9792,-2.9792,-2.9792,-2.9792,-2.9792,-2.9792,-2.9792,-2.9792,-2.9792,-2.9792,-2.9792,-2.9792,-2.9792,-2.9792,-2.9792,-2.9792,-2.9792,-2.9792,-2.9792,-2.9792,-2.9792,-2.9792,-2.9792,-2.9792,-2.9792,-2.9792,-2.939,-2.9026,-2.9026,-2.8586,-2.8235,-2.8235,-2.7745,-2.7406,-2.7406,-2.7027,-2.6713,-2.6625,-2.6612,-2.6587,-2.6499,-2.6499,-2.6499,-2.6499,-2.6499,-2.6499,-2.6499,-2.6499,-2.6499,-2.6499,-2.6499,-2.6499,-2.6499,-2.6383,-2.6314,-1.3851,-1.4506,-1.4903,-1.4442,-1.4664,-1.4997,-1.4928,-1.484,0.0,0.0,0.0,0.0,0.0,-1.6171,-1.7015,0.0,0.0,-2.0731,0.0,0.0,0.0,0.0,0.0,0.0,0.0,0.0,0.0,0.0,0.0,-2.5268,-2.5851,-2.6287,-2.6521,-2.6499,-2.6499,-2.6499,-2.6499,-2.6499,-2.6499,-2.6499,-2.6499,-2.6499,-2.6499,-2.6499,-2.6499,-2.6499,0.0,-2.6499,-2.6499,-2.6499,-2.6549,-2.6663,-2.714,-2.767,-2.8285,-2.8712,-2.9289,-2.9792,-2.9792,-2.9792,-2.9792,-2.9792,-2.9792,-2.9792,-2.9792,-2.9792,-2.9792,-2.9792,-2.9792,-2.9792,-2.9792,-2.9792,-2.9792,-2.9792,-2.9792,-2.9792,-2.9792,-2.9792,-2.9792,-2.9792,-2.9792,-2.9792,-2.9792,-2.9716,-2.9666,-2.9666,-2.9176,-2.8762,-2.8762,-2.8323,-2.7984,-2.7984,-2.7896,-2.7657,-2.7228,-2.719,-2.6989,-2.6524,-2.6499,-2.6499,-2.6499,-2.6499,-2.6499,-2.6499,-2.6499,-2.6499,-2.6499,-2.6499,-2.6499,-2.6487,-2.5804,-2.5488,-1.3546,-1.4243,-1.4853,-1.4626,-1.496,-1.5336,-1.5336,-1.511,-1.4896,0.0,0.0,0.0,0.0,0.0,-1.7865,-1.9606,0.0,-2.1889,-2.2955,0.0,0.0,0.0,0.0,0.0,0.0,0.0,0.0,0.0,0.0,0.0,-2.5071,-2.5521,-2.5832,-2.6021,-2.6021,-2.6172,-2.6499,-2.6499,-2.6499,-2.6499,-2.6499,-2.6499,-2.6499,-2.6499,-2.6499,-2.6499,0.0,-2.6499,-2.6499,-2.6499,-2.6499,-2.6512,-2.6776,-2.7216,-2.7758,-2.8612,-2.9289,-2.9792,-2.9792,-2.9792,-2.9792,-2.9792,-2.9792,-2.9792,-2.9792,-2.9792,-2.9792,-2.9792,-2.9792,-2.9792,-2.9792,-2.9792,-2.9792,-2.9792,-2.9792,-2.9792,-2.9792,-2.9792,-2.9792,-2.9792,-2.9792,-2.9792,-2.9792,-2.9792,-2.9792,-2.9792,-2.9566,-2.9402,-2.9402,-2.89,-2.8512,-2.8512,-2.8285,-2.8009,-2.7745,-2.772,-2.7369,-2.6549,-2.6499,-2.6499,-2.6499,-2.6499,-2.6499,-2.6499,-2.6499,-2.6499,-2.6499,-2.6499,-2.6499,-2.6499,-2.6129,-2.6116,-1.3566,-1.4237,-1.4896,-1.4896,-1.5299,-1.5768,-1.6032,-1.5676,-1.5349,-1.5613,0.0,0.0,0.0,-1.7667,0.0,-2.0898,-2.1846,-2.2554,-2.3142,0.0,0.0,0.0,0.0,0.0,0.0,0.0,0.0,0.0,0.0,0.0,-2.4413,-2.4842,-2.5178,-2.5398,-2.5536,-2.5812,-2.6285,-2.6424,-2.6499,-2.6499,-2.6499,-2.6499,-2.6499,-2.6499,-2.6499,-2.6499,-2.6499,-2.6499,-2.6499,-2.6499,-2.6499,-2.6499,-2.6499,-2.6914,-2.7595,-2.8561,-2.9289,-2.9792,-2.9792,-2.9792,-2.9792,-2.9792,-2.9792,-2.9792,-2.9792,-2.9792,-2.9792,-2.9792,-2.9792,-2.9792,-2.9792,-2.9792,-2.9792,-2.9792,-2.9792,-2.9792,-2.9792,-2.9792,-2.9792,-2.9792,-2.9792,-2.9792,-2.9792,-2.9792,-2.9792,-2.9792,-2.9792,-2.9792,-2.9792,-2.9402,-2.9126,-2.9126,-2.875,-2.8448,-2.831,-2.8185,-2.7745,-2.6939,-2.6763,-2.6625,-2.6499,-2.6612,-2.6625,-2.6499,-2.6499,-2.6499,-2.6499,-2.6499,-2.6562,-2.6688,-2.6688,-2.6977,-1.4632,-1.4833,-1.4896,-1.4896,-1.5299,-1.5969,-1.7046,-1.681,-1.6676,-1.7752,0.0,0.0,0.0,-1.9226,-2.0425,-2.1642,-2.2063,-2.26,0.0,0.0,0.0,0.0,0.0,0.0,0.0,0.0,0.0,0.0,0.0,0.0,-2.44,-2.4792,-2.4962,-2.4838,-2.5347,-2.5611,-2.5649,-2.6223,-2.6499,-2.6499,-2.6499,-2.6499,-2.6499,-2.6499,-2.6499,-2.6499,-2.6499,-2.6499,-2.6499,-2.6499,-2.6499,-2.6499,-2.6499,-2.714,-2.8122,-2.8675,-2.9289,-2.9792,-2.9792,-2.9792,-2.9792,-2.9792,-2.9792,-2.9792,-2.9792,-2.9792,-2.9792,-2.9792,-2.9792,-2.9792,-2.9792,-2.9792,-2.9792,-2.9792,-2.9792,-2.9792,-2.9792,-2.9792,-2.9792,-2.9792,-2.9792,-2.9792,-2.9792,-2.9792,-2.9792,-2.9792,-2.9792,-2.9792,-2.9792,-2.9754,-2.9729,-2.9729,-2.9691,-2.9453,-2.8875,-2.8398,-2.8072,-2.7996,-2.7507,-2.7027,-2.6512,-2.6989,-2.7014,-2.6499,-2.6499,-2.6499,-2.6499,-2.6499,-2.6763,-2.7218,-2.7218,-2.7519,-1.4337,-1.4651,-1.4896,-1.4896,-1.5542,-1.6321,-1.6748,-1.6948,-1.7275,-1.8041,-1.8504,0.0,0.0,0.0,-2.0537,-2.1926,-2.2183,-2.253,0.0,0.0,0.0,0.0,0.0,0.0,0.0,0.0,0.0,0.0,0.0,0.0,-2.3919,-2.3837,-2.396,-2.4293,-2.4506,-2.4921,-2.5586,-2.5812,-2.6135,-2.6499,-2.6499,-2.6499,-2.6499,-2.6499,-2.6499,-2.6499,-2.6499,-2.6499,-2.6499,-2.6499,-2.6499,-2.6499,-2.6499,-2.6952,-2.7657,-2.821,-2.8775,-2.9302,-2.9666,-2.9792,-2.9792,-2.9792,-2.9792,-2.9792,-2.9792,-2.9792,-2.9792,-2.9792,-2.9792,-2.9792,-2.9792,-2.9792,-2.9792,-2.9792,-2.9792,-2.9792,-2.9792,-2.9792,-2.9792,-2.9792,-2.9792,-2.9792,-2.9792,-2.9792,-2.9792,-2.9792,-2.9792,-2.9792,-2.9792,-2.9792,-2.9792,-2.9792,-2.9792,-2.9704,-2.9478,-2.895,-2.8612,-2.8612,-2.8097,-2.7708,-2.7494,-2.7682,-2.7544,-2.7014,-2.7341,-2.7318,-2.7002,-2.7318,-2.7595,-2.7795,-2.7795,-2.8084,-1.4387,-1.4733,-1.511,-1.4934,-1.5844,-1.6763,-1.6763,-1.7225,-1.784,-1.8555,-1.9007,-1.956,-2.0581,0.0,0.0,0.0,-2.2155,0.0,0.0,0.0,0.0,0.0,0.0,0.0,0.0,0.0,0.0,0.0,0.0,0.0,0.0,-2.3348,-2.3356,-2.3715,-2.3904,-2.4356,-2.5084,-2.5423,-2.5799,-2.6223,-2.6411,-2.6499,-2.6499,-2.6499,-2.6499,-2.6499,-2.6499,-2.6499,-2.6499,-2.6499,-2.6499,-2.6499,-2.6499,-2.6839,-2.7344,-2.7896,-2.8448,-2.8976,-2.9591,-2.9792,-2.9792,-2.9792,-2.9792,-2.9792,-2.9792,-2.9792,-2.9792,-2.9792,-2.9792,-2.9792,-2.9792,-2.9792,-2.9792,-2.9792,-2.9792,-2.9792,-2.9792,-2.9792,-2.9792,-2.9792,-2.9792,-2.9792,-2.9792,-2.9792,-2.9792,-2.9792,-2.9792,-2.9792,-2.9792,-2.9792,-2.9792,-2.9792,-2.9792,-2.9792,-2.9792,-2.9428,-2.9164,-2.9164,-2.885,-2.8473,-2.8122,-2.8273,-2.8109,-2.7557,-2.7908,-2.7921,-2.7544,-2.7921,-2.8197,-2.836,-2.836,-2.8662,-1.5035,-1.5286,-1.5575,-1.5047,-1.6166,-1.741,-1.7423,-1.7815,-1.8518,-1.9597,-1.9798,-2.0013,-2.0749,-2.0291,0.0,-2.2033,-2.1945,0.0,0.0,0.0,0.0,0.0,0.0,0.0,0.0,0.0,0.0,0.0,0.0,0.0,0.0,-2.345,-2.33,-2.3108,-2.369,-2.3991,-2.4004,-2.5046,-2.5586,-2.5598,-2.621,-2.6487,-2.6499,-2.6499,-2.6499,-2.6499,-2.6499,-2.6499,-2.6499,-2.6499,-2.6499,-2.6499,-2.6499,-2.6826,-2.7379,-2.7896,-2.8448,-2.8963,-2.9578,-2.9792,-2.9792,-2.9792,-2.9792,-2.9792,-2.9792,-2.9792,-2.9792,-2.9792,-2.9792,-2.9792,-2.9792,-2.9792,-2.9792,-2.9792,-2.9792,-2.9792,-2.9792,-2.9792,-2.9792,-2.9792,-2.9792,-2.9792,-2.9792,-2.9792,-2.9792,-2.9792,-2.9792,-2.9792,-2.9792,-2.9792,-2.9792,-2.9792,-2.9792,-2.9792,-2.9792,-2.9792,-2.9792,-2.9792,-2.9792,-2.9289,-2.816,-2.8612,-2.8674,-2.8122,-2.8122,-2.8122,-2.8109,-2.8122,-2.8398,-2.89,-2.89,-2.9252,-1.4833,-1.5009,-1.5286,-1.5881,0.0,0.0,0.0,-1.8644,-1.9095,0.0,-2.0087,-2.0013,-2.0644,0.0,0.0,-2.1531,-2.1734,0.0,0.0,0.0,0.0,0.0,0.0,0.0,0.0,0.0,0.0,0.0,0.0,0.0,0.0,-2.333,-2.3168,-2.3108,-2.3271,-2.359,-2.4004,-2.4318,-2.4845,-2.5598,-2.5774,-2.6097,-2.6499,-2.6499,-2.6499,-2.6499,-2.6499,-2.6499,-2.6499,-2.6499,-2.6499,-2.6499,-2.6499,-2.66,-2.6801,-2.7318,-2.7871,-2.8436,-2.8988,-2.9453,-2.9792,-2.9792,-2.9792,-2.9792,-2.9792,-2.9792,-2.9792,-2.9792,-2.9792,-2.9792,-2.9792,-2.9792,-2.9792,-2.9792,-2.9792,-2.9792,-2.9792,-2.9792,-2.9792,-2.9792,-2.9792,-2.9792,-2.9792,-2.9792,-2.9792,-2.9792,-2.9792,-2.9792,-2.9792,-2.9792,-2.9792,-2.9792,-2.9792,-2.9792,-2.9792,-2.9792,-2.9792,-2.9792,-2.9792,-2.9641,-2.9302,-2.9453,-2.9264,-2.8662,-2.9089,-2.9089,-2.865,-2.9101,-2.9377,-2.9528,-2.9528,-2.9628,-1.5009,-1.5223,0.0,-1.6296,-1.7375,-1.8405,-1.9133,0.0,0.0,0.0,-2.0037,-1.9974,-2.0591,-2.0214,0.0,-2.1594,-2.1716,0.0,0.0,0.0,0.0,0.0,0.0,0.0,0.0,0.0,0.0,0.0,0.0,0.0,0.0,-2.336,-2.3168,-2.3108,-2.3108,-2.3271,-2.3653,-2.3891,-2.4318,-2.4971,-2.5184,-2.5473,-2.5858,-2.6298,-2.6499,-2.6499,-2.6499,-2.6499,-2.6499,-2.6499,-2.6499,-2.6499,-2.6499,-2.6499,-2.6562,-2.7115,-2.7494,-2.7858,-2.8411,-2.8976,-2.9453,-2.9453,-2.9603,-2.9792,-2.9792,-2.9792,-2.9792,-2.9792,-2.9792,-2.9792,-2.9792,-2.9792,-2.9792,-2.9792,-2.9792,-2.9792,-2.9792,-2.9792,-2.9792,-2.9792,-2.9792,-2.9792,-2.9792,-2.9792,-2.9792,-2.9792,-2.9792,-2.9792,-2.9792,-2.9792,-2.9792,-2.9792,-2.9792,-2.9792,-2.9792,-2.9792,-2.9792,-2.9792,-2.9792,-2.9792,-2.9792,-2.9792,-2.9628,-2.9239,-2.9616,-2.9616,-2.9277,-2.9616,-2.9792,-2.9792,-2.9792,-2.9792,-1.5324,-1.5618,-1.5781,-1.6434,-1.7415,0.0,-1.9572,-1.9798,-1.9798,-1.9798,0.0,-1.9962,-2.0515,-2.0189,-2.0326,-2.1907,0.0,0.0,0.0,0.0,0.0,0.0,0.0,0.0,0.0,0.0,0.0,0.0,0.0,0.0,0.0,-2.3463,-2.33,-2.3108,-2.3108,-2.3108,-2.3108,-2.3653,-2.3954,-2.4004,-2.4474,-2.4738,-2.4825,-2.59,-2.6449,-2.6499,-2.6499,-2.6499,-2.6499,-2.6499,-2.6499,-2.6499,-2.6499,-2.6499,-2.6549,-2.7052,-2.7278,-2.7356,-2.7858,-2.8398,-2.8825,-2.8875,-2.9289,-2.9729,-2.9779,-2.9792,-2.9792,-2.9792,-2.9792,-2.9792,-2.9792,-2.9792,-2.9792,-2.9792,-2.9792,-2.9792,-2.9792,-2.9792,-2.9792,-2.9792,-2.9792,-2.9792,-2.9792,-2.9792,-2.9792,-2.9792,-2.9792,-2.9792,-2.9792,-2.9792,-2.9792,-2.9792,-2.9792,-2.9792,-2.9792,-2.9792,-2.9792,-2.9792,-2.9792,-2.9792,-2.9792,-2.9792,-2.9792,-2.9792,-2.9792,-2.9792,-2.9792,-2.9792,-2.9792,-2.9792,-2.9792,-2.9792,-1.4645,-1.5072,0.0,0.0,-1.8028,-1.8995,-1.966,-1.9798,-1.9798,-1.9798,-1.9798,-1.9836,-1.9962,-1.9886,-2.0062,0.0,0.0,0.0,0.0,0.0,0.0,0.0,0.0,0.0,0.0,0.0,0.0,0.0,0.0,0.0,-2.3599,-2.3318,-2.3138,-2.3108,-2.3108,-2.3108,-2.3108,-2.3233,-2.3521,0.0,-2.4117,-2.4406,-2.4813,-2.5485,-2.6059,-2.6499,-2.6499,-2.6499,-2.6499,-2.6499,-2.6499,-2.6499,-2.6499,-2.6499,-2.6512,-2.6625,-2.6952,-2.7341,-2.7419,-2.7821,-2.8348,-2.875,-2.8976,-2.9202,-2.9654,-2.9792,-2.9792,-2.9792,-2.9792,-2.9792,-2.9792,-2.9792,-2.9792,-2.9792,-2.9792,-2.9792,-2.9792,-2.9792,-2.9792,-2.9792,-2.9792,-2.9792,-2.9792,-2.9792,-2.9792,-2.9792,-2.9792,-2.9792,-2.9792,-2.9792,-2.9792,-2.9792,-2.9792,-2.9792,-2.9792,-2.9792,-2.9792,-2.9792,-2.9792,-2.9792,-2.9792,-2.9792,-2.9792,-2.9792,-2.9792,-2.9792,-2.9792,-2.9792,-2.9792,-2.9792,-2.9792,-2.9792,-1.4833,0.0,0.0,-1.735,0.0,-1.8807,-1.9623,-1.9798,-1.9798,-1.9798,-1.9798,-1.9798,-1.9798,-1.9798,0.0,0.0,0.0,0.0,0.0,0.0,0.0,0.0,0.0,0.0,0.0,0.0,0.0,0.0,0.0,-2.3819,-2.376,-2.348,-2.3318,-2.3241,-2.3138,-2.3108,-2.3108,-2.3108,-2.3258,-2.359,-2.359,-2.3879,-2.4456,-2.5234,-2.5762,-2.6097,-2.6373,-2.6499,-2.6499,-2.6499,-2.6499,-2.6499,-2.6499,-2.6499,-2.6499,-2.6499,-2.6675,-2.6927,-2.6927,-2.7291,-2.7758,-2.8047,-2.8461,-2.895,-2.9289,-2.9578,-2.9792,-2.9792,-2.9792,-2.9792,-2.9792,-2.9792,-2.9792,-2.9792,-2.9792,-2.9792,-2.9792,-2.9792,-2.9792,-2.9792,-2.9792,-2.9792,-2.9792,-2.9792,-2.9792,-2.9792,-2.9792,-2.9792,-2.9792,-2.9792,-2.9792,-2.9792,-2.9792,-2.9792,-2.9792,-2.9792,-2.9792,-2.9792,-2.9792,-2.9792,-2.9792,-2.9792,-2.9792,-2.9792,-2.9792,-2.9792,-2.9792,-2.9792,-2.9792,-2.9792,-2.9792,-2.9792,-1.4877,0.0,-1.5957,-1.7639,-1.8129,0.0,-1.9447,-1.9736,-1.9798,-1.9798,-1.9798,-1.9798,-1.9798,0.0,0.0,0.0,0.0,0.0,0.0,0.0,0.0,0.0,0.0,0.0,0.0,0.0,0.0,0.0,0.0,-2.3862,-2.3891,-2.3658,-2.348,-2.3403,-2.3198,-2.3108,-2.3108,-2.3108,-2.3108,-2.3108,-2.3108,-2.3358,-2.3891,-2.487,-2.5423,-2.5624,-2.6135,-2.6399,-2.6499,-2.6499,-2.6499,-2.6499,-2.6499,-2.6499,-2.6499,-2.6499,-2.6499,-2.6499,-2.6499,-2.6788,-2.719,-2.7291,-2.7959,-2.8762,-2.8863,-2.934,-2.9792,-2.9792,-2.9792,-2.9792,-2.9792,-2.9792,-2.9792,-2.9792,-2.9792,-2.9792,-2.9792,-2.9792,-2.9792,-2.9792,-2.9792,-2.9792,-2.9792,-2.9792,-2.9792,-2.9792,-2.9792,-2.9792,-2.9792,-2.9792,-2.9792,-2.9792,-2.9792,-2.9792,-2.9792,-2.9792,-2.9792,-2.9792,-2.9792,-2.9792,-2.9792,-2.9792,-2.9792,-2.9792,-2.9792,-2.9792,-2.9792,-2.9792,-2.9792,-2.9792,-2.9792,-2.9792,-1.3353,0.0,-1.5412,0.0,-1.7852,-1.8367,0.0,0.0,-1.9798,0.0,-1.9798,-1.9798,0.0,0.0,0.0,0.0,0.0,0.0,0.0,0.0,0.0,0.0,0.0,0.0,0.0,0.0,0.0,0.0,-2.2955,-2.3232,-2.3865,-2.342,-2.3228,-2.3403,-2.3198,-2.3108,-2.3108,-2.3108,-2.3108,-2.3108,-2.3108,-2.3145,-2.3246,-2.3916,-2.472,-2.5598,-2.5674,-2.6034,-2.6499,-2.6499,-2.6499,-2.6499,-2.6499,-2.6499,-2.6499,-2.6499,-2.6499,-2.6499,-2.6499,-2.6549,-2.6688,-2.7165,-2.7708,-2.8298,-2.875,-2.934,-2.9792,-2.9792,-2.9792,-2.9792,-2.9792,-2.9792,-2.9792,-2.9792,-2.9792,-2.9792,-2.9792,-2.9792,-2.9792,-2.9792,-2.9792,-2.9792,-2.9792,-2.9792,-2.9792,-2.9792,-2.9792,-2.9792,-2.9792,-2.9792,-2.9792,-2.9792,-2.9792,-2.9792,-2.9792,-2.9792,-2.9792,-2.9792,-2.9792,-2.9792,-2.9792,-2.9792,-2.9792,-2.9792,-2.9792,-2.9792,-2.9792,-2.9792,-2.9792,-2.9792,-2.9792,-2.9792,-1.391,-1.4293,-1.4853,0.0,-1.7074,-1.7488,-1.8343,0.0,-1.9346,-1.9346,-1.9597,0.0,0.0,0.0,0.0,0.0,0.0,0.0,0.0,0.0,0.0,0.0,0.0,0.0,0.0,0.0,0.0,0.0,-2.2745,-2.3098,-2.3488,-2.3373,-2.333,-2.3509,-2.3228,-2.3108,-2.3108,-2.3108,-2.3108,-2.3108,-2.3108,-2.3108,-2.3108,-2.3371,-2.4086,-2.5172,-2.5473,-2.5925,-2.6499,-2.6499,-2.6499,-2.6499,-2.6499,-2.6499,-2.6499,-2.6499,-2.6499,-2.6499,-2.6499,-2.6499,-2.6537,-2.6776,-2.7406,-2.8147,-2.8398,-2.9089,-2.9792,-2.9792,-2.9792,-2.9792,-2.9792,-2.9792,-2.9792,-2.9792,-2.9792,-2.9792,-2.9792,-2.9792,-2.9792,-2.9792,-2.9792,-2.9792,-2.9792,-2.9792,-2.9792,-2.9792,-2.9792,-2.9792,-2.9792,-2.9792,-2.9792,-2.9792,-2.9792,-2.9792,-2.9792,-2.9792,-2.9792,-2.9792,-2.9792,-2.9792,-2.9792,-2.9792,-2.9792,-2.9792,-2.9792,-2.9792,-2.9792,-2.9792,-2.9792,-2.9792,-2.9792,-2.9792,0.0,0.0,-1.4255,-1.5894,-1.6387,-1.6751,0.0,0.0,-1.8832,0.0,0.0,0.0,0.0,0.0,0.0,0.0,0.0,0.0,0.0,0.0,0.0,0.0,0.0,0.0,0.0,0.0,0.0,0.0,-2.231,-2.2728,-2.3169,-2.3151,-2.328,-2.3586,-2.3258,-2.3108,-2.3108,-2.3108,-2.3108,-2.3108,-2.3108,-2.3108,-2.3108,-2.3108,-2.3647,-2.4644,-2.5172,-2.5724,-2.6285,-2.6436,-2.6499,-2.6499,-2.6499,-2.6499,-2.6499,-2.6499,-2.6499,-2.6499,-2.6499,-2.6499,-2.6499,-2.6499,-2.7241,-2.8109,-2.8109,-2.89,-2.9792,-2.9792,-2.9792,-2.9792,-2.9792,-2.9792,-2.9792,-2.9792,-2.9792,-2.9792,-2.9792,-2.9792,-2.9792,-2.9792,-2.9792,-2.9792,-2.9792,-2.9792,-2.9792,-2.9792,-2.9792,-2.9792,-2.9792,-2.9792,-2.9792,-2.9792,-2.9792,-2.9792,-2.9792,-2.9792,-2.9792,-2.9792,-2.9792,-2.9792,-2.9792,-2.9792,-2.9792,-2.9792,-2.9792,-2.9792,-2.9792,-2.9792,-2.9792,-2.9792,-2.9792,-2.9792,0.0,-1.3261,0.0,-1.5329,-1.6132,0.0,0.0,0.0,0.0,0.0,0.0,0.0,0.0,0.0,0.0,0.0,0.0,0.0,0.0,0.0,0.0,0.0,0.0,0.0,0.0,0.0,0.0,0.0,-2.1261,-2.1791,-2.313,-2.2652,-2.2744,-2.3573,-2.3258,-2.3108,-2.3108,-2.3108,-2.3108,-2.3108,-2.3108,-2.3108,-2.3108,-2.3108,-2.3434,-2.4067,-2.4619,-2.5159,-2.5686,-2.6273,-2.6499,-2.6499,-2.6499,-2.6499,-2.6499,-2.6499,-2.6499,-2.6499,-2.6499,-2.6499,-2.6499,-2.6499,-2.7241,-2.8109,-2.8109,-2.89,-2.9792,-2.9792,-2.9792,-2.9792,-2.9792,-2.9792,-2.9792,-2.9792,-2.9792,-2.9792,-2.9792,-2.9792,-2.9792,-2.9792,-2.9792,-2.9792,-2.9792,-2.9792,-2.9792,-2.9792,-2.9792,-2.9792,-2.9792,-2.9792,-2.9792,-2.9792,-2.9792,-2.9792,-2.9792,-2.9792,-2.9792,-2.9792,-2.9792,-2.9792,-2.9792,-2.9792,-2.9792,-2.9792,-2.9792,-2.9792,-2.9792,-2.9792,-2.9792,-2.9792,-2.9792,-2.9792,0.0,0.0,0.0,-1.4839,-1.558,-1.6132,-1.6697,-1.7539,-1.8166,0.0,0.0,0.0,0.0,0.0,0.0,0.0,0.0,0.0,0.0,0.0,0.0,0.0,0.0,0.0,0.0,0.0,0.0,0.0,0.0,-2.1557,-2.2634,-2.2436,-2.2707,-2.3573,-2.3258,-2.3108,-2.3108,-2.3108,-2.3108,-2.3108,-2.3108,-2.3108,-2.3108,-2.3108,-2.3221,-2.3446,-2.401,-2.4782,-2.5636,-2.6248,-2.6499,-2.6499,-2.6499,-2.6499,-2.6499,-2.6499,-2.6499,-2.6499,-2.6499,-2.6499,-2.6499,-2.6499,-2.7241,-2.8109,-2.8109,-2.89,-2.9792,-2.9792,-2.9792,-2.9792,-2.9792,-2.9792,-2.9792,-2.9792,-2.9792,-2.9792,-2.9792,-2.9792,-2.9792,-2.9792,-2.9792,-2.9792,-2.9792,-2.9792,-2.9917,-3.0269,-3.0319,-3.0444,-3.0771,-3.0821,-3.0821,-3.0821,-3.0821,-3.0821,-3.0821,-3.0821,-3.0821,-3.0821,-3.0821,-3.0821,-3.0821,-3.0821,-3.0821,-3.0821,-3.0495,-3.0143,-2.9792,-2.9792,-2.9792,-2.9792,-2.9792,-2.9792,-1.2077,0.0,0.0,0.0,0.0,-1.5399,-1.6308,0.0,-1.7313,0.0,0.0,0.0,0.0,0.0,0.0,0.0,0.0,0.0,0.0,0.0,0.0,0.0,0.0,0.0,0.0,0.0,0.0,0.0,0.0,0.0,-2.206,-2.1875,-2.2182,-2.3145,-2.3127,-2.3108,-2.3108,-2.3108,-2.3108,-2.3108,-2.3108,-2.3108,-2.3108,-2.3108,-2.3108,-2.3133,-2.3753,-2.4506,-2.5385,-2.5971,-2.6323,-2.6499,-2.6499,-2.6499,-2.6499,-2.6499,-2.6499,-2.6499,-2.6499,-2.6499,-2.6499,-2.6499,-2.7241,-2.8109,-2.8109,-2.89,-2.9792,-2.9792,-2.9792,-2.9792,-2.9792,-2.9792,-2.9792,-2.9792,-2.9792,-2.9792,-2.9792,-2.9792,-2.9792,-2.9792,-2.9942,-3.0068,-3.0068,-3.0218,-3.0457,-3.0821,-3.0871,-3.0997,-3.1348,-3.1386,-3.1386,-3.1386,-3.1386,-3.1386,-3.1386,-3.1386,-3.1386,-3.1386,-3.1386,-3.1386,-3.1386,-3.1386,-3.1386,-3.1386,-3.1047,-3.0608,-3.0068,-2.988,-2.9792,-2.9792,-2.9792,-2.9892,0.0,0.0,0.0,0.0,0.0,0.0,-1.612,0.0,0.0,0.0,0.0,0.0,0.0,0.0,0.0,0.0,0.0,0.0,0.0,0.0,0.0,0.0,0.0,0.0,0.0,0.0,0.0,0.0,-2.0195,-2.0438,-2.1459,-2.0998,-2.1207,-2.2246,-2.2794,-2.3083,-2.3083,-2.3095,-2.3108,-2.3108,-2.3108,-2.3108,-2.3108,-2.3108,-2.3108,-2.3133,-2.3728,-2.4293,-2.4813,-2.5372,-2.5959,-2.6474,-2.6487,-2.6499,-2.6499,-2.6499,-2.6499,-2.6499,-2.6499,-2.6499,-2.6499,-2.6499,-2.7241,-2.8109,-2.8109,-2.89,-2.9792,-2.9792,-2.9792,-2.9792,-2.9792,-2.9792,-2.9792,-2.9792,-2.9792,-2.9792,-2.9792,-2.9804,-2.9817,-2.9817,-3.0244,-3.062,-3.0633,-3.106,-3.1399,-3.1411,-3.1411,-3.1424,-3.1436,-3.1436,-3.1436,-3.1436,-3.1436,-3.1436,-3.1436,-3.1436,-3.1436,-3.1436,-3.1436,-3.1436,-3.1436,-3.1436,-3.1436,-3.1436,-3.1424,-3.1173,-3.0658,-3.0093,-2.9817,-2.9817,-2.9829,-3.0131,-1.2801,0.0,0.0,0.0,0.0,0.0,0.0,0.0,0.0,0.0,0.0,0.0,0.0,0.0,0.0,0.0,0.0,0.0,0.0,0.0,0.0,0.0,0.0,0.0,0.0,0.0,0.0,0.0,-2.0118,-2.0399,-2.1302,-2.1395,-2.1504,-2.1707,-2.2246,-2.2506,-2.2506,-2.2907,-2.3108,-2.3108,-2.3108,-2.3108,-2.3108,-2.3108,-2.3108,-2.3108,-2.3283,-2.3672,-2.4293,-2.5222,-2.5686,-2.5908,-2.6336,-2.6499,-2.6499,-2.6499,-2.6499,-2.6499,-2.6499,-2.6499,-2.6499,-2.6499,-2.7241,-2.8109,-2.8109,-2.89,-2.9792,-2.9792,-2.9792,-2.9792,-2.9792,-2.9792,-2.9792,-2.9792,-2.9792,-2.9792,-2.9792,-3.0105,-3.0382,-3.0382,-3.0507,-3.0733,-3.111,-3.1298,-3.1524,-3.1926,-3.1989,-3.2139,-3.2554,-3.2616,-3.2616,-3.2616,-3.2616,-3.2616,-3.2616,-3.2616,-3.2616,-3.2616,-3.2616,-3.2616,-3.2616,-3.2616,-3.2616,-3.2616,-3.2202,-3.1913,-3.1775,-3.0834,-3.0382,-3.0394,-3.0771,-3.1035,-1.3323,0.0,0.0,0.0,0.0,0.0,0.0,-1.5286,0.0,0.0,0.0,0.0,0.0,0.0,0.0,0.0,0.0,0.0,0.0,0.0,0.0,0.0,0.0,0.0,0.0,-2.0105,-2.0233,-2.0322,-2.008,-2.0143,-2.0655,-2.111,-2.1306,-2.1169,-2.1681,-2.2083,-2.2309,-2.2606,-2.2882,-2.3108,-2.3108,-2.3108,-2.3108,-2.3108,-2.3108,-2.3108,-2.3108,-2.3296,-2.3715,-2.482,-2.5398,-2.5649,-2.6273,-2.6499,-2.6499,-2.6499,-2.6499,-2.6499,-2.6499,-2.6499,-2.6499,-2.6499,-2.7241,-2.8109,-2.8109,-2.89,-2.9792,-2.9792,-2.9792,-2.9792,-2.9792,-2.9792,-2.9792,-2.9792,-2.9792,-2.9792,-2.9792,-3.0231,-3.062,-3.062,-3.0972,-3.1373,-3.1687,-3.1938,-3.2202,-3.2528,-3.2579,-3.2692,-3.3031,-3.3124,-3.3124,-3.3124,-3.3124,-3.3124,-3.3124,-3.3124,-3.3124,-3.3124,-3.3124,-3.3124,-3.3124,-3.3124,-3.3124,-3.3124,-3.2742,-3.2453,-3.2215,-3.1135,-3.062,-3.062,-3.0922,-3.1311,-1.3742,-1.4519,0.0,0.0,0.0,0.0,-1.5412,-1.5248,-1.4928,0.0,0.0,0.0,0.0,0.0,0.0,0.0,0.0,0.0,0.0,0.0,0.0,0.0,0.0,0.0,-2.0042,-2.0131,-2.0283,-2.0486,-2.0105,-1.985,-1.9798,-2.0445,-2.0723,-2.0591,-2.1131,-2.1656,-2.2221,-2.2284,-2.2556,-2.3108,-2.3108,-2.3108,-2.3108,-2.3108,-2.3108,-2.3108,-2.3108,-2.3108,-2.3183,-2.4261,-2.5046,-2.5573,-2.6248,-2.6499,-2.6499,-2.6499,-2.6499,-2.6499,-2.6499,-2.6499,-2.6499,-2.6499,-2.7241,-2.8109,-2.8109,-2.89,-2.9792,-2.9792,-2.9792,-2.9792,-2.9792,-2.9792,-2.9792,-2.9792,-2.9792,-2.9792,-2.9792,-3.0269,-3.0708,-3.0708,-3.1524,-3.2227,-3.2303,-3.2742,-3.3124,-3.3124,-3.3124,-3.3124,-3.3124,-3.3124,-3.3124,-3.3124,-3.3124,-3.3124,-3.3124,-3.3124,-3.3124,-3.3124,-3.3124,-3.3124,-3.3124,-3.3124,-3.3124,-3.3124,-3.3124,-3.2792,-3.2215,-3.126,-3.0796,-3.0796,-3.0859,-3.1399,-1.5153,-1.5148,-1.516,-1.558,0.0,0.0,-1.511,-1.4991,-1.5009,0.0,0.0,0.0,0.0,0.0,0.0,0.0,0.0,0.0,0.0,0.0,0.0,0.0,0.0,0.0,-2.0156,-2.0182,-2.0283,-2.0486,-2.041,-2.0195,-1.9837,-2.004,-2.0103,-1.9974,-2.0553,-2.1119,-2.1644,-2.2083,-2.2556,-2.3108,-2.3108,-2.3108,-2.3108,-2.3108,-2.3108,-2.3108,-2.3108,-2.3108,-2.3158,-2.3866,-2.4481,-2.5071,-2.6109,-2.6499,-2.6499,-2.6499,-2.6499,-2.6499,-2.6499,-2.6499,-2.6499,-2.6499,-2.7241,-2.8109,-2.8109,-2.89,-2.9792,-2.9792,-2.9792,-2.9792,-2.9792,-2.9792,-2.9792,-2.9792,-2.9792,-2.9792,-2.9792,-3.0557,-3.1235,-3.1235,-3.1763,-3.2353,-3.283,-3.3006,-3.3124,-3.3124,-3.3124,-3.3124,-3.3124,-3.3124,-3.3124,-3.3124,-3.3124,-3.3124,-3.3124,-3.3124,-3.3124,-3.3124,-3.3124,-3.3124,-3.3124,-3.3124,-3.3124,-3.3124,-3.3124,-3.2792,-3.2215,-3.2001,-3.1901,-3.1913,-3.2378,-3.2704,-1.5768,-1.5693,-1.5756,-1.6032,0.0,0.0,0.0,0.0,-1.5387,0.0,0.0,0.0,0.0,0.0,0.0,0.0,0.0,0.0,0.0,0.0,0.0,0.0,0.0,0.0,-1.9673,-1.9698,-1.9838,-2.0144,-2.0271,-2.0182,-1.9837,-1.9926,-1.9926,-1.9798,-2.0087,-2.0528,-2.1094,-2.1631,-2.2184,-2.2694,-2.297,-2.3108,-2.3108,-2.3108,-2.3108,-2.3108,-2.3108,-2.3108,-2.3145,-2.3753,-2.433,-2.4863,-2.5711,-2.6248,-2.6499,-2.6499,-2.6499,-2.6499,-2.6499,-2.6499,-2.6499,-2.6499,-2.7241,-2.8109,-2.8109,-2.89,-2.9792,-2.9792,-2.9792,-2.9792,-2.9792,-2.9792,-2.9792,-2.9792,-2.9792,-2.9792,-2.9792,-3.0633,-3.1386,-3.1386,-3.2064,-3.2742,-3.3074,-3.3124,-3.3124,-3.3124,-3.3124,-3.3124,-3.3124,-3.3124,-3.3124,-3.3124,-3.3124,-3.3124,-3.3124,-3.3124,-3.3124,-3.3124,-3.3124,-3.3124,-3.3124,-3.3124,-3.3124,-3.3124,-3.3124,-3.293,-3.2641,-3.2641,-3.2491,-3.2227,-3.2503,-3.2805,0.0,0.0,0.0,0.0,0.0,-1.6346,0.0,0.0,0.0,0.0,0.0,0.0,0.0,0.0,0.0,0.0,0.0,0.0,0.0,0.0,0.0,0.0,0.0,0.0,-1.9051,-1.8999,-1.9154,-1.9674,-1.9838,-1.9864,-1.9811,-1.9926,-1.9926,-1.9798,-1.9798,-2.0075,-2.0679,-2.1131,-2.1656,-2.2322,-2.2732,-2.3007,-2.3108,-2.3108,-2.3108,-2.3108,-2.3108,-2.3108,-2.3145,-2.3753,-2.433,-2.4838,-2.5385,-2.5984,-2.6499,-2.6499,-2.6499,-2.6499,-2.6499,-2.6499,-2.6499,-2.6499,-2.7241,-2.8147,-2.836,-2.9063,-2.9792,-2.9792,-2.9792,-2.9792,-2.9792,-2.9792,-2.9792,-2.9792,-2.9792,-2.9792,-2.9792,-3.0633,-3.1386,-3.1386,-3.2303,-3.3124,-3.3124,-3.3124,-3.3124,-3.3124,-3.3124,-3.3124,-3.3124,-3.3124,-3.3124,-3.3124,-3.3124,-3.3124,-3.3124,-3.3124,-3.3124,-3.3124,-3.3124,-3.3124,-3.3124,-3.3124,-3.3124,-3.3124,-3.3124,-3.3124,-3.3124,-3.3124,-3.283,-3.2378,-3.2378,-3.2629,0.0,0.0,0.0,0.0,-1.7978,0.0,0.0,0.0,0.0,0.0,0.0,0.0,0.0,0.0,0.0,0.0,0.0,0.0,0.0,0.0,0.0,0.0,0.0,0.0,0.0,-1.8277,-1.8428,-1.9375,-1.9087,-1.9145,-1.9774,-1.9926,-1.9926,-1.9798,-1.9798,-2.0075,-2.0679,-2.0754,-2.1307,-2.2309,-2.2343,-2.2631,-2.3108,-2.3108,-2.3108,-2.3108,-2.3108,-2.3108,-2.3145,-2.3753,-2.433,-2.4838,-2.5385,-2.5984,-2.6499,-2.6499,-2.6499,-2.6499,-2.6499,-2.6499,-2.6499,-2.6499,-2.7241,-2.8298,-2.9302,-2.9691,-2.9792,-2.9792,-2.9792,-2.9792,-2.9792,-2.9792,-2.9792,-2.9792,-2.9792,-2.9792,-2.9792,-3.0633,-3.1386,-3.1386,-3.2303,-3.3124,-3.3124,-3.3124,-3.3124,-3.3124,-3.3124,-3.3124,-3.3124,-3.3124,-3.3124,-3.3124,-3.3124,-3.3124,-3.3124,-3.3124,-3.3124,-3.3124,-3.3124,-3.3124,-3.3124,-3.3124,-3.3124,-3.3124,-3.3124,-3.3124,-3.3124,-3.3124,-3.3043,-3.298,-3.298,-3.3018,0.0,0.0,0.0,0.0,0.0,0.0,-1.6961,0.0,-1.6748,0.0,0.0,0.0,0.0,0.0,0.0,0.0,0.0,0.0,0.0,0.0,0.0,0.0,0.0,0.0,0.0,0.0,0.0,0.0,-1.8533,-1.8484,-1.9296,-1.9459,-1.9623,-1.9798,-1.9798,-1.9924,-2.0189,-2.0528,-2.1081,-2.1832,-2.2159,-2.2569,-2.3108,-2.3108,-2.3108,-2.3108,-2.3108,-2.3108,-2.312,-2.3358,-2.3985,-2.4813,-2.5059,-2.5686,-2.6499,-2.6499,-2.6499,-2.6499,-2.6499,-2.6499,-2.66,-2.7241,-2.7946,-2.8737,-2.9553,-2.9792,-2.9792,-2.9792,-2.9792,-2.9792,-2.9792,-2.9792,-2.9792,-2.9792,-2.9792,-2.988,-3.0206,-3.0859,-3.1486,-3.18,-3.2516,-3.3124,-3.3124,-3.3124,-3.3124,-3.3124,-3.3124,-3.3124,-3.3124,-3.3124,-3.3124,-3.3124,-3.3124,-3.3124,-3.3124,-3.3124,-3.3124,-3.3124,-3.3124,-3.3124,-3.3124,-3.3124,-3.3124,-3.3124,-3.3124,-3.3124,-3.3124,-3.3124,-3.3124,-3.3124,-3.3124,-3.3124,-1.8706,0.0,0.0,0.0,0.0,0.0,0.0,0.0,0.0,0.0,0.0,0.0,0.0,0.0,0.0,0.0,0.0,0.0,0.0,0.0,0.0,0.0,0.0,0.0,0.0,0.0,0.0,0.0,0.0,-1.7832,-1.8719,-1.9018,-1.927,-1.9572,-1.9723,-1.9798,-1.9798,-2.0402,-2.0968,-2.1493,-2.2046,-2.2569,-2.3108,-2.3108,-2.3108,-2.3108,-2.3108,-2.3108,-2.3133,-2.3446,-2.4048,-2.4813,-2.5146,-2.5762,-2.6499,-2.6499,-2.6499,-2.6499,-2.6499,-2.66,-2.6876,-2.7795,-2.8473,-2.9001,-2.9616,-2.9792,-2.9792,-2.9792,-2.9792,-2.9792,-2.9792,-2.9792,-2.9792,-2.9792,-2.9792,-2.9942,-3.0495,-3.1022,-3.1549,-3.2102,-3.2679,-3.3124,-3.3124,-3.3124,-3.3124,-3.3124,-3.3124,-3.3124,-3.3124,-3.3124,-3.3124,-3.3124,-3.3124,-3.3124,-3.3124,-3.3124,-3.3124,-3.3124,-3.3124,-3.3124,-3.3124,-3.3124,-3.3124,-3.3124,-3.3124,-3.3124,-3.3124,-3.3124,-3.3124,-3.3124,-3.3124,-3.3124,0.0,0.0,0.0,-1.8606,0.0,0.0,0.0,0.0,-1.8003,0.0,0.0,0.0,0.0,0.0,0.0,0.0,0.0,0.0,0.0,0.0,0.0,0.0,0.0,0.0,0.0,0.0,0.0,0.0,-1.7026,0.0,-1.8179,-1.8707,-1.9008,-1.9033,-1.9547,-1.9798,-1.9798,-2.0402,-2.0968,-2.1493,-2.2046,-2.2569,-2.3108,-2.3108,-2.3108,-2.3108,-2.3108,-2.3108,-2.3195,-2.4286,-2.4763,-2.4888,-2.6021,-2.6461,-2.6499,-2.6499,-2.6499,-2.6499,-2.6499,-2.6839,-2.7392,-2.7921,-2.8473,-2.9001,-2.9616,-2.9792,-2.9792,-2.9792,-2.9792,-2.9792,-2.9792,-2.9792,-2.9792,-2.9792,-2.9792,-2.9942,-3.0495,-3.1022,-3.1549,-3.2102,-3.2679,-3.3124,-3.3124,-3.3124,-3.3124,-3.3124,-3.3124,-3.3124,-3.3124,-3.3124,-3.3124,-3.3124,-3.3124,-3.3124,-3.3124,-3.3124,-3.3124,-3.3124,-3.3124,-3.3124,-3.3124,-3.3124,-3.3124,-3.3124,-3.3124,-3.3124,-3.3124,-3.3124,-3.3124,-3.3124,-3.3124,-3.3124,0.0,0.0,-2.0842,-1.9133,0.0,0.0,0.0,0.0,0.0,0.0,0.0,0.0,0.0,0.0,0.0,0.0,0.0,0.0,0.0,0.0,0.0,0.0,0.0,0.0,0.0,0.0,0.0,0.0,-1.6992,0.0,-1.8141,-1.8707,-1.9008,-1.9008,-1.9509,-1.9798,-1.9798,-2.0402,-2.0968,-2.1493,-2.2046,-2.2569,-2.3108,-2.3108,-2.3108,-2.3108,-2.3108,-2.3108,-2.3158,-2.3966,-2.4494,-2.4863,-2.5611,-2.616,-2.6499,-2.6499,-2.6499,-2.6549,-2.6914,-2.7369,-2.7921,-2.8473,-2.9038,-2.9528,-2.9729,-2.9792,-2.9792,-2.9792,-2.9792,-2.9792,-2.9792,-2.9792,-2.988,-3.0256,-3.0331,-3.0583,-3.1486,-3.1813,-3.2102,-3.2667,-3.2943,-3.3124,-3.3124,-3.3124,-3.3124,-3.3124,-3.3124,-3.3124,-3.3124,-3.3124,-3.3124,-3.3124,-3.3124,-3.3124,-3.3124,-3.3124,-3.3124,-3.3124,-3.3124,-3.3124,-3.3124,-3.3124,-3.3124,-3.3124,-3.3124,-3.3124,-3.3124,-3.3124,-3.3124,-3.3124,-3.3124,-3.3124,-1.9748,-2.0338,0.0,-1.9321,-1.9259,0.0,-1.7953,0.0,0.0,0.0,0.0,0.0,0.0,0.0,0.0,0.0,0.0,0.0,0.0,0.0,0.0,0.0,0.0,0.0,0.0,0.0,-1.6548,-1.7036,-1.68,0.0,0.0,0.0,-1.9008,-1.9008,-1.9509,-1.9798,-1.9798,-2.0603,-2.1169,-2.1493,-2.2246,-2.2757,-2.3108,-2.3108,-2.3108,-2.3108,-2.3108,-2.3108,-2.3158,-2.3966,-2.4506,-2.4863,-2.5624,-2.6172,-2.6499,-2.6499,-2.6499,-2.6575,-2.7128,-2.7645,-2.8197,-2.8712,-2.9315,-2.9792,-2.9792,-2.9792,-2.9792,-2.9792,-2.9792,-2.9792,-2.9792,-2.9942,-3.0168,-3.0532,-3.0758,-3.1135,-3.2026,-3.2215,-3.239,-3.2968,-3.3124,-3.3124,-3.3124,-3.3124,-3.3124,-3.3124,-3.3124,-3.3124,-3.3124,-3.3124,-3.3124,-3.3124,-3.3124,-3.3124,-3.3124,-3.3124,-3.3124,-3.3124,-3.3124,-3.3124,-3.3124,-3.3124,-3.3124,-3.3124,-3.3124,-3.3124,-3.3124,-3.3124,-3.3124,-3.3124,-3.3124,-3.3124]},{"header":{"parameterUnit":"m.s-1","parameterCategory":1,"la1":30.6,"la2":29.2853,"lo1":-89.7004,"lo2":-87.6739,"dy":0.0162,"dx":0.0183,"nx":112,"ny":82,"refTime":"2026-03-02T12:00:00:Z","depth":0,"parameterNumber":3,"parameterNumberName":"V-component_of_WINDS"},"data":[0.0,0.0,0.0,0.0,0.0,0.0,0.0,0.0,0.0,0.0,0.0,0.0,0.0,0.0,0.0,0.0,0.0,0.0,0.0,0.0,0.0,0.0,0.0,0.0,0.0,0.0,0.0,0.0,0.0,0.0,0.0,0.0,0.0,0.0,0.0,0.0,0.0,0.0,0.0,0.0,0.0,0.0,0.0,0.0,0.0,0.0,0.0,0.0,0.0,0.0,0.0,0.0,0.0,0.0,0.0,0.0,0.0,0.0,0.0,0.0,0.0,0.0,0.0,0.0,0.0,0.0,0.0,0.0,0.0,0.0,0.0,0.0,0.0,0.0,0.0,0.0,0.0,0.0,0.0,0.0,0.0,0.0,0.0,0.0,0.0,0.0,0.0,0.0,0.0,0.0,0.0,1.4997,1.6771,1.7848,1.7848,1.7234,1.6308,1.5022,0.0,0.0,0.0,0.0,0.0,0.0,0.0,0.0,0.0,0.0,0.0,0.0,0.0,0.0,0.0,0.0,0.0,0.0,0.0,0.0,0.0,0.0,0.0,0.0,0.0,0.0,0.0,0.0,0.0,0.0,0.0,0.0,0.0,0.0,0.0,0.0,0.0,0.0,0.0,0.0,0.0,0.0,0.0,0.0,0.0,0.0,0.0,0.0,0.0,0.0,0.0,0.0,0.0,0.0,0.0,0.0,0.0,0.0,0.0,0.0,0.0,0.0,0.0,0.0,0.0,0.0,0.0,0.0,0.0,0.0,0.0,0.0,0.0,0.0,0.0,0.0,0.0,0.0,0.0,0.0,0.0,0.0,0.0,0.0,0.0,0.0,0.0,0.0,0.0,0.0,0.0,0.0,0.0,0.0,0.0,0.0,0.0,0.0,0.0,0.0,0.0,0.0,0.0,0.0,1.3865,1.6921,1.8027,1.8553,1.8553,1.7938,1.6996,1.5739,0.0,0.0,0.0,0.0,0.0,0.0,0.0,0.0,0.0,0.0,0.0,0.0,0.0,0.0,0.0,0.0,0.0,0.0,0.0,0.0,0.0,0.0,0.0,0.0,0.0,0.0,0.0,0.0,0.0,0.0,0.0,0.0,0.0,0.0,0.0,0.0,0.0,0.0,0.0,0.0,0.0,0.0,0.0,0.0,0.0,0.0,0.0,0.0,0.0,0.0,0.0,0.0,0.0,0.0,0.0,0.0,0.0,0.0,0.0,0.0,0.0,0.0,0.0,0.0,0.0,0.0,0.0,0.0,0.0,0.0,0.0,0.0,0.0,0.0,0.0,0.0,0.0,0.0,0.0,0.0,0.0,0.0,0.0,0.0,0.0,0.0,0.0,0.0,0.0,0.0,0.0,0.0,0.0,0.0,0.0,0.0,0.0,0.0,0.0,0.0,0.0,0.0,0.0,1.3744,1.5232,1.7458,1.8627,1.9091,1.8732,1.8087,1.7295,1.6338,1.4378,0.0,0.0,0.0,0.0,0.0,0.0,0.0,0.0,0.0,0.0,0.0,0.0,0.0,0.0,0.0,0.0,0.0,0.0,0.0,0.0,0.0,0.0,0.0,0.0,0.0,0.0,0.0,0.0,0.0,0.0,0.0,0.0,0.0,0.0,0.0,0.0,0.0,0.0,0.0,0.0,0.0,0.0,0.0,0.0,0.0,0.0,0.0,0.0,0.0,0.0,0.0,0.0,0.0,0.0,0.0,0.0,0.0,0.0,0.0,0.0,0.0,0.0,0.0,0.0,0.0,0.0,0.0,0.0,0.0,0.0,0.0,0.0,0.0,0.0,0.0,0.0,0.0,0.0,0.0,0.0,0.0,0.0,0.0,0.0,0.0,0.0,0.0,0.0,0.0,0.0,0.0,0.0,0.0,0.0,0.0,0.0,0.0,0.0,0.0,0.0,0.0,0.0,1.5531,1.6623,1.7609,1.8897,1.9498,1.8972,1.8027,1.7174,1.6517,1.387,0.0,0.0,0.0,0.0,0.0,0.0,0.0,0.0,0.0,0.0,0.0,0.0,0.0,0.0,0.0,0.0,0.0,0.0,0.0,0.0,0.0,0.0,0.0,0.0,0.0,0.0,0.0,0.0,0.0,0.0,0.0,0.0,0.0,0.0,0.0,0.0,0.0,0.0,0.0,0.0,0.0,0.0,0.0,0.0,0.0,0.0,0.0,0.0,0.0,0.0,0.0,0.0,0.0,0.0,0.0,0.0,0.0,0.0,0.0,0.0,0.0,0.0,0.0,0.0,0.0,0.0,0.0,0.0,0.0,0.0,0.0,0.0,0.0,0.0,0.0,0.0,0.0,0.0,0.0,0.0,0.0,0.0,0.0,0.0,0.0,0.0,0.0,0.0,0.0,0.0,0.0,0.0,0.0,0.0,0.0,0.0,0.0,0.0,0.0,0.0,0.0,0.0,1.6039,1.7609,1.7699,1.8897,1.9678,1.9633,1.7878,1.6502,1.5889,1.2762,0.0,0.0,0.0,0.0,0.0,0.0,0.0,0.0,0.0,0.0,0.0,0.0,0.0,0.0,0.0,0.0,0.0,0.0,0.0,0.0,0.0,0.0,0.0,0.0,0.0,0.0,0.0,0.0,0.0,0.0,0.0,0.0,0.0,0.0,0.0,0.0,0.0,0.0,0.0,0.0,0.0,0.0,0.0,0.0,0.0,0.0,0.0,0.0,0.0,0.0,0.0,0.0,0.0,0.0,0.0,0.0,0.0,0.0,0.0,0.0,0.0,0.0,0.0,0.0,0.0,0.0,0.0,0.0,0.0,0.0,0.0,0.0,0.0,0.0,0.0,0.0,0.0,0.0,0.0,0.0,0.0,0.0,0.0,0.0,0.0,0.0,0.0,0.0,0.0,0.0,0.0,0.0,0.0,0.0,0.0,0.0,0.0,0.0,0.0,0.0,0.0,0.0,1.5682,1.7234,0.0,1.8897,1.9528,1.9106,1.8194,1.7121,1.5888,0.0,0.0,0.0,0.0,0.0,0.0,0.0,0.0,0.0,0.0,0.0,0.0,0.0,0.0,0.0,0.0,0.0,0.0,0.0,0.0,0.0,0.0,0.0,0.0,0.0,0.0,0.0,0.0,0.0,0.0,0.0,0.0,0.0,0.0,0.0,0.0,0.0,0.0,0.0,0.0,0.0,0.0,0.0,0.0,0.0,0.0,0.0,0.0,0.0,0.0,0.0,0.0,0.0,0.0,0.0,0.0,0.0,0.0,0.0,0.0,0.0,0.0,0.0,0.0,0.0,0.0,0.0,0.0,0.0,0.0,0.0,0.0,0.0,0.0,0.0,0.0,0.0,0.0,0.0,0.0,0.0,0.0,0.0,0.0,0.0,0.0,0.0,0.0,0.0,0.0,0.0,0.0,0.0,0.0,0.0,0.0,0.0,0.0,0.0,0.0,0.0,0.0,1.3508,1.5652,1.7115,0.0,1.8386,1.8792,1.8117,1.7288,1.6361,1.5324,0.0,0.0,0.0,0.0,0.0,0.0,0.0,0.0,0.0,0.0,0.0,0.0,0.0,0.0,0.0,0.0,0.0,0.0,0.0,0.0,0.0,0.0,0.0,0.0,0.0,0.0,0.0,0.0,0.0,0.0,0.0,0.0,0.0,0.0,0.0,0.0,0.0,0.0,0.0,0.0,0.0,0.0,0.0,0.0,0.0,0.0,0.0,0.0,0.0,0.0,0.0,0.0,0.0,0.0,0.0,0.0,0.0,0.0,0.0,0.0,0.0,0.0,0.0,0.0,0.0,0.0,0.0,0.0,0.0,0.0,0.0,0.0,0.0,0.0,0.0,0.0,0.0,0.0,0.0,0.0,0.0,0.0,0.0,0.0,0.0,0.0,0.0,0.0,0.0,0.0,0.0,0.0,0.0,0.0,0.0,0.0,0.0,0.0,0.0,0.0,0.0,0.0,1.363,1.6069,1.7429,1.6771,1.7294,1.7429,1.6756,1.4933,1.3908,0.0,0.0,0.0,0.0,0.0,0.0,0.0,0.0,0.0,0.0,0.0,0.0,0.0,0.0,0.0,0.0,0.0,0.0,0.0,0.0,0.0,0.0,0.0,0.0,0.0,0.0,0.0,0.0,0.0,0.0,0.0,0.0,0.0,0.0,0.0,0.0,0.0,0.0,0.0,0.0,0.0,0.0,0.0,0.0,0.0,0.0,0.0,0.0,0.0,0.0,0.0,0.0,0.0,0.0,0.0,0.0,0.0,0.0,0.0,0.0,0.0,0.0,0.0,0.0,0.0,0.0,0.0,0.0,0.0,0.0,0.0,0.0,0.0,0.0,0.0,0.0,0.0,0.0,0.0,0.0,0.0,0.0,0.0,0.0,0.0,0.0,0.0,0.0,0.0,0.0,0.0,0.0,0.0,0.0,0.0,0.0,0.0,0.0,0.0,0.0,0.0,0.0,0.0,1.3122,1.5101,1.6411,1.6541,1.7455,1.7655,1.6646,1.6208,1.5322,1.3707,0.0,0.0,0.0,0.0,0.0,0.0,0.0,0.0,0.0,0.0,0.0,0.0,0.0,0.0,0.0,0.0,0.0,0.0,0.0,0.0,0.0,0.0,0.0,0.0,0.0,0.0,0.0,0.0,0.0,0.0,0.0,0.0,0.0,0.0,0.0,0.0,0.0,0.0,0.0,0.0,0.0,0.0,0.0,0.0,0.0,0.0,0.0,0.0,0.0,0.0,0.0,0.0,0.0,0.0,0.0,0.0,0.0,0.0,0.0,0.0,0.0,0.0,0.0,0.0,0.0,0.0,0.0,0.0,0.0,0.0,0.0,0.0,0.0,0.0,0.0,0.0,0.0,0.0,0.0,0.0,0.0,0.0,0.0,0.0,0.0,0.0,0.0,0.0,0.0,0.0,0.0,0.0,0.0,0.0,0.0,0.0,0.0,0.0,0.0,0.0,0.0,0.0,1.2915,1.4837,1.6083,1.6111,1.6973,1.7068,1.5807,1.5599,1.474,1.2838,0.0,0.0,0.0,0.0,0.0,0.0,0.0,0.0,0.0,0.0,0.0,0.0,0.0,0.0,0.0,0.0,0.0,0.0,0.0,0.0,0.0,0.0,0.0,0.0,0.0,0.0,0.0,0.0,0.0,0.0,0.0,0.0,0.0,0.0,0.0,0.0,0.0,0.0,0.0,0.0,0.0,0.0,0.0,0.0,0.0,0.0,0.0,0.0,0.0,0.0,0.0,0.0,0.0,0.0,0.0,0.0,0.0,0.0,0.0,0.0,0.0,0.0,0.0,0.0,0.0,0.0,0.0,0.0,0.0,0.0,0.0,0.0,0.0,0.0,0.0,0.0,0.0,0.0,0.0,0.0,0.0,0.0,0.0,0.0,0.0,0.0,0.0,0.0,0.0,0.0,0.0,0.0,0.0,0.0,0.0,0.0,0.0,0.0,0.0,0.0,0.0,0.0,1.297,1.5006,1.6132,1.564,1.6222,1.6095,1.4789,1.4056,1.3161,1.2016,0.0,0.0,0.0,0.0,0.0,0.0,0.0,0.0,0.0,0.0,0.0,0.0,0.0,0.0,0.0,0.0,0.0,0.0,0.0,0.0,0.0,0.0,0.0,0.0,0.0,0.0,0.0,0.0,0.0,0.0,0.0,0.0,0.0,0.0,0.0,0.0,0.0,0.0,0.0,0.0,0.0,0.0,0.0,0.0,0.0,0.0,0.0,0.0,0.0,0.0,0.0,0.0,0.0,0.0,0.0,0.0,0.0,0.0,0.0,0.0,1.3762,0.0,0.0,0.0,0.0,0.0,0.0,0.0,0.0,0.0,0.0,0.0,0.0,0.0,0.0,0.0,0.0,0.0,0.0,0.0,0.0,0.0,0.0,0.0,0.0,0.0,0.0,0.0,0.0,0.0,0.0,0.0,0.0,0.0,0.0,0.0,0.0,0.0,0.0,0.0,0.0,0.0,1.321,1.4302,1.5268,1.6123,1.6621,1.6666,1.6054,1.532,1.4568,1.3715,1.176,0.0,0.0,0.0,0.0,0.0,0.0,0.0,0.0,0.0,0.0,0.0,0.0,0.0,0.0,0.0,0.0,0.0,0.0,0.0,0.0,0.0,0.0,0.0,0.0,0.0,0.0,0.0,0.0,0.0,0.0,0.0,0.0,0.0,0.0,0.0,0.0,0.0,0.0,0.0,0.0,0.0,0.0,0.0,0.0,0.0,0.0,0.0,0.0,0.0,0.0,0.0,0.0,0.0,0.0,0.0,0.0,0.0,0.0,0.0,0.0,1.5247,0.0,0.0,0.0,0.0,0.0,0.0,0.0,0.0,0.0,0.0,0.0,0.0,0.0,0.0,0.0,0.0,0.0,0.0,0.0,0.0,0.0,0.0,0.0,0.0,0.0,0.0,0.0,0.0,0.0,0.0,0.0,0.0,0.0,0.0,0.0,0.0,0.0,0.0,0.0,0.0,1.3492,1.4379,1.5261,1.6298,1.6894,1.7001,1.6459,1.5723,1.4828,1.3738,1.219,0.0,0.0,0.0,0.0,0.0,0.0,0.0,0.0,0.0,0.0,0.0,0.0,0.0,0.0,0.0,0.0,0.0,0.0,0.0,0.0,0.0,0.0,0.0,0.0,0.0,0.0,0.0,0.0,0.0,0.0,0.0,0.0,0.0,0.0,0.0,0.0,0.0,0.0,0.0,0.0,0.0,0.0,0.0,0.0,0.0,0.0,0.0,0.0,0.0,0.0,0.0,0.0,0.0,1.6832,1.7282,1.8386,1.7817,1.81,1.9001,1.7996,1.7742,1.7953,1.6668,0.0,0.0,0.0,0.0,0.0,0.0,0.0,0.0,0.0,0.0,0.0,0.0,0.0,0.0,0.0,0.0,0.0,0.0,0.0,0.0,0.0,0.0,0.0,0.0,1.5534,1.5589,0.0,0.0,0.0,0.0,0.0,0.0,0.0,0.0,0.0,0.0,0.0,0.0,1.3934,1.4903,1.5773,1.652,1.715,1.7238,1.6636,1.5923,1.4927,1.3565,1.2671,1.1596,0.0,0.0,0.0,0.0,0.0,0.0,0.0,0.0,0.0,0.0,0.0,0.0,0.0,0.0,0.0,0.0,0.0,0.0,0.0,0.0,0.0,0.0,0.0,0.0,0.0,0.0,0.0,0.0,0.0,0.0,0.0,0.0,1.216,1.4167,0.0,0.0,0.0,0.0,0.0,0.0,0.0,0.0,0.0,0.0,0.0,0.0,0.0,1.6921,1.8179,1.8194,1.8553,1.9301,1.9809,2.0453,2.1171,2.1081,2.0827,2.0449,2.0872,0.0,1.9331,1.8014,0.0,0.0,0.0,0.0,0.0,0.0,0.0,0.0,0.0,0.0,0.0,0.0,0.0,0.0,0.0,0.0,0.0,0.0,0.0,0.0,0.0,0.0,1.7621,1.7073,1.7233,1.7319,0.0,1.5854,1.4904,1.3622,1.2921,0.0,0.0,0.0,0.0,0.0,0.0,0.0,1.4838,1.566,1.6536,1.7271,1.7437,1.7465,1.7354,1.6685,1.5906,1.506,1.3724,1.2861,1.2645,1.152,0.0,0.0,0.0,0.0,0.0,0.0,0.0,0.0,0.0,0.0,0.0,0.0,0.0,0.0,0.0,0.0,0.0,0.0,0.0,0.0,0.0,0.0,0.0,0.0,0.0,0.0,0.0,0.0,0.0,1.191,1.3525,1.517,1.4511,1.4047,0.0,0.0,0.0,0.0,0.0,0.0,0.0,0.0,0.0,1.7234,1.7997,1.8672,1.9256,1.9645,2.0168,2.0831,2.0752,2.1051,2.1695,2.1695,2.1545,2.1276,2.1575,2.1575,2.128,1.9944,1.8984,1.8373,0.0,0.0,0.0,0.0,1.7331,1.7713,1.7258,1.7546,0.0,1.7319,0.0,0.0,0.0,0.0,0.0,0.0,0.0,0.0,0.0,0.0,1.8775,1.8627,1.8699,1.8741,1.851,1.813,1.7174,0.0,1.4799,1.4745,1.3498,0.0,0.0,0.0,0.0,1.5331,1.5742,1.6149,1.6685,1.742,1.7503,1.7503,1.7503,1.6818,1.6254,1.5939,1.4526,1.3523,1.3109,1.2489,1.1686,0.0,0.0,0.0,0.0,0.0,0.0,0.0,0.0,0.0,0.0,0.0,0.0,0.0,0.0,0.0,0.0,0.0,0.0,0.0,0.0,0.0,0.0,0.0,0.0,0.0,0.0,0.0,0.0,1.3316,1.4558,1.5874,1.5455,1.505,0.0,0.0,0.0,0.0,0.0,0.0,1.6906,1.7279,1.7772,1.8446,1.96,2.0292,2.0471,2.0797,2.1291,2.1934,2.1455,2.156,2.2188,2.2188,2.2188,2.2188,2.2188,2.2368,2.2613,2.144,2.0662,2.0202,2.0022,1.9839,1.9681,1.9456,1.974,2.0134,1.9431,1.9727,2.0271,1.9324,0.0,1.8567,1.7682,0.0,0.0,0.0,0.0,1.9501,1.969,1.9733,1.9792,1.9993,2.0091,2.0111,1.9929,2.0028,1.9326,0.0,1.6602,1.6812,1.5552,0.0,0.0,0.0,0.0,1.6177,1.6387,1.6553,1.6901,1.7437,1.7503,1.7503,1.7503,1.7001,1.6603,1.642,1.5381,1.436,1.3424,1.3374,1.2522,1.0674,0.0,0.0,0.0,0.0,0.0,0.0,0.0,0.0,0.0,0.0,0.0,0.0,0.0,0.0,0.0,0.0,0.0,0.0,0.0,0.0,0.0,0.0,0.0,0.0,0.0,0.0,0.0,0.0,0.0,1.6502,1.6129,0.0,0.0,0.0,0.0,1.6562,1.6592,1.6921,1.7608,1.8867,1.9854,2.0524,2.1231,2.1924,2.2538,2.1934,2.1999,2.2643,2.2613,2.2927,2.3505,2.3505,2.3505,2.3505,2.3505,2.3191,2.2643,2.1934,2.162,2.153,2.0902,2.0258,1.9822,2.0809,2.1397,2.1839,2.2857,2.3455,2.3753,2.367,2.2554,2.0948,1.9504,1.9585,0.0,0.0,2.066,2.118,2.118,2.118,2.1196,2.1212,2.1457,2.1497,2.0801,2.1199,2.1019,0.0,1.7876,1.7458,1.7363,0.0,1.7143,1.6442,1.7491,1.786,1.6569,1.7017,1.7465,1.7503,1.7503,1.7503,1.7503,1.747,1.715,1.6437,1.6337,1.5646,1.4202,1.4135,1.3755,1.2944,1.229,0.0,0.0,0.0,0.0,0.0,0.0,0.0,0.0,0.0,0.0,0.0,0.0,0.0,0.0,0.0,0.0,0.0,0.0,0.0,0.0,0.0,0.0,0.0,0.0,0.0,0.0,0.0,0.0,1.7833,1.7414,0.0,1.7026,1.7026,1.7475,1.8553,1.8627,1.9121,2.0228,2.0722,2.1096,2.1335,2.1979,2.2463,2.2703,2.3281,2.3699,2.3939,2.4358,2.4687,2.4896,2.4896,2.4896,2.4896,2.4896,2.4777,2.4507,2.3827,2.3086,2.2358,2.2503,2.2611,2.2648,2.2609,2.2836,2.3156,2.3113,2.3363,2.3719,2.3935,2.3571,2.2979,2.2436,2.2485,2.2667,2.2667,2.2848,2.3046,2.3046,2.3046,2.3046,2.3046,2.2779,2.2442,2.2162,2.1947,2.1431,2.0158,1.9724,1.9409,1.8919,1.8853,1.8754,1.8489,1.8886,1.9035,1.8522,1.8687,1.8671,1.8203,1.8141,1.7971,1.7536,1.7503,1.7387,1.7122,1.6221,1.5458,1.4934,1.3996,1.3142,1.2406,1.2124,1.1644,0.0,0.0,0.0,0.0,0.0,0.0,0.0,0.0,0.0,0.0,0.0,0.0,0.0,0.0,0.0,0.0,0.0,0.0,0.0,0.0,0.0,0.0,0.0,0.0,0.0,0.0,1.7369,1.8252,1.8371,1.8281,1.8057,1.8446,1.9163,2.0288,2.0168,2.0513,2.1635,2.1904,2.2113,2.2323,2.2981,2.3445,2.3691,2.4522,2.4933,2.4933,2.5382,2.5615,2.5615,2.5615,2.5615,2.5615,2.5615,2.5615,2.557,2.5113,2.4448,2.3655,2.361,2.3803,2.4032,2.3738,2.3809,2.3986,2.3689,2.375,2.3987,2.4144,2.4164,2.4165,2.4034,2.4,2.4,2.4,2.4,2.4,2.4,2.4,2.4,2.4,2.3619,2.3272,2.3272,2.2692,2.2028,2.1547,2.105,2.0539,2.0075,1.9962,2.0061,2.0293,2.0127,1.9962,1.9962,1.9747,1.9402,1.8923,1.8873,1.8588,1.7905,1.8071,1.8017,1.7519,1.679,1.6044,1.5336,1.4602,1.3748,1.2762,1.2729,1.2389,1.1644,0.0,0.0,0.0,0.0,0.0,0.0,0.0,0.0,0.0,0.0,0.0,0.0,0.0,0.0,0.0,0.0,0.0,0.0,0.0,0.0,0.0,0.0,0.0,1.6756,1.7354,1.7787,1.7787,1.8957,1.9513,1.8867,1.9956,2.1002,2.168,2.1141,2.1066,2.1754,2.2418,2.3047,2.364,2.4291,2.4933,2.56,2.563,2.563,2.5621,2.5659,2.5674,2.5674,2.5674,2.5674,2.5674,2.5674,2.5674,2.5674,2.5644,2.563,2.551,2.4178,2.3655,2.3741,2.4197,2.4384,2.4467,2.4862,2.5001,2.4969,2.4715,2.4632,2.4556,2.4248,2.4116,2.41,2.41,2.4083,2.4067,2.4067,2.4067,2.4067,2.4067,2.405,2.4033,2.4033,2.3454,2.2924,2.2924,2.1779,2.0785,2.0735,2.0735,2.0984,2.1696,2.1182,0.0,2.0735,2.0108,1.9667,1.9667,1.9667,1.9353,1.8605,1.9187,1.9002,1.7586,1.8087,1.7508,1.5408,1.6005,1.568,1.4235,1.4218,1.3854,1.3093,0.0,0.0,0.0,0.0,0.0,0.0,0.0,0.0,0.0,0.0,0.0,0.0,0.0,0.0,0.0,0.0,0.0,0.0,0.0,0.0,0.0,1.6877,1.8147,1.8147,1.9148,1.9881,1.9881,2.0632,2.1066,2.0887,2.1216,2.1695,2.2373,2.2254,2.2637,2.3738,2.3977,2.4365,2.5031,2.5241,2.5397,2.5615,2.6078,2.6318,2.6318,2.6821,2.7061,2.7061,2.7061,2.7061,2.7061,2.7061,2.7061,2.7016,2.6512,2.6318,2.6243,2.539,2.5236,2.5497,2.563,2.6108,2.6714,2.6816,2.7113,2.7424,2.7358,2.733,2.7316,2.7212,2.6818,2.6387,2.6387,2.6005,2.559,2.559,2.559,2.559,2.559,2.5176,2.4812,2.4812,2.4216,2.3702,2.3702,2.3371,2.2742,2.168,2.1497,2.1564,2.1779,2.163,0.0,2.1497,2.1317,2.1201,2.1201,2.1201,2.0688,1.9416,1.9485,1.9002,1.7586,1.7171,1.6707,1.6122,1.5773,1.5149,1.4218,1.4735,1.437,0.0,0.0,0.0,0.0,0.0,0.0,0.0,0.0,0.0,0.0,0.0,0.0,0.0,0.0,0.0,0.0,0.0,0.0,0.0,0.0,0.0,0.0,1.8014,1.9211,1.951,2.0195,2.0793,2.1096,2.171,2.2134,2.2134,2.2338,2.2772,2.3445,2.349,2.3939,2.4963,2.5023,2.5322,2.6004,2.6019,2.6153,2.6437,2.6811,2.7031,2.7031,2.7405,2.76,2.76,2.76,2.76,2.76,2.76,2.76,2.757,2.718,2.7031,0.0,0.0,0.0,0.0,0.0,2.6294,2.68,2.7031,2.7301,2.7607,2.7987,2.8106,2.8145,2.8334,2.8094,2.7746,2.7746,2.7448,2.7048,2.6733,2.6651,2.6584,2.6268,2.5871,2.5574,2.5574,2.4978,2.4464,2.4464,2.4216,0.0,2.2857,2.2475,2.226,2.226,2.2011,2.1912,2.2212,2.1995,2.1812,2.1812,2.1812,2.1334,2.0158,2.0075,0.0,0.0,0.0,1.7155,1.6868,1.6155,0.0,0.0,0.0,0.0,0.0,0.0,0.0,0.0,1.335,1.3085,0.0,0.0,0.0,0.0,0.0,0.0,0.0,0.0,0.0,0.0,0.0,0.0,0.0,0.0,0.0,0.0,1.9106,2.0154,2.0823,2.0932,2.1156,2.1739,2.2403,2.2808,2.2808,2.334,2.3969,2.456,2.4679,2.5008,2.5689,0.0,0.0,0.0,0.0,2.7001,2.7585,2.76,2.76,2.76,2.76,2.76,2.76,2.76,2.76,2.76,2.76,2.76,2.76,2.76,2.76,2.748,2.6288,2.5839,2.5824,2.5871,2.5942,2.6059,2.6526,0.0,0.0,2.7692,2.796,2.8099,2.8507,2.8575,2.8508,2.8508,2.8459,2.8243,2.758,2.7415,2.7232,2.6501,2.6318,2.6301,2.6219,2.569,2.5209,2.5209,2.4696,2.4216,2.4149,2.3503,2.299,2.2907,2.2327,2.2144,2.2692,2.2195,2.1829,2.1928,0.0,0.0,2.0884,2.0818,2.0191,1.872,1.8608,1.8356,1.7768,1.7105,1.7022,1.7602,1.7685,1.737,1.6652,1.737,1.7735,1.7685,1.557,1.4957,0.0,0.0,0.0,0.0,0.0,0.0,0.0,0.0,0.0,0.0,0.0,0.0,0.0,0.0,0.0,1.9926,2.0797,2.1565,2.2224,2.2313,2.2358,2.2493,2.3041,2.343,2.343,2.4007,2.4455,2.459,2.5098,2.5704,2.6363,2.6408,2.6692,2.739,2.7405,2.7465,2.76,2.76,2.76,2.76,0.0,0.0,2.76,2.76,2.76,2.76,2.76,2.76,2.76,2.76,2.76,2.757,2.7315,2.721,2.726,2.7631,2.8061,2.845,2.8542,2.9083,2.9683,2.9453,2.9646,2.9993,3.0055,2.9682,0.0,2.9218,2.8804,2.8376,2.8227,2.8177,2.7995,2.7265,2.7083,2.6934,2.6336,2.6086,2.6005,2.6005,2.5871,2.559,2.4994,2.4282,2.3586,2.299,2.2775,2.251,2.2077,2.1895,2.2029,2.2609,2.2691,2.2392,2.1647,2.1597,2.0953,1.9468,1.9399,1.9333,1.92,1.9068,1.877,1.8323,1.8886,1.8836,1.8091,1.8836,1.92,1.9167,1.759,1.7226,0.0,0.0,0.0,0.0,0.0,0.0,0.0,0.0,0.0,0.0,0.0,1.6742,1.8401,0.0,2.0015,2.1036,2.1754,2.2328,2.2643,2.2957,2.3152,2.3152,2.3714,2.4096,2.4096,2.4709,2.5232,2.5585,2.5914,2.6378,2.7061,2.7106,2.7255,2.7585,2.76,2.76,2.76,2.76,2.76,2.76,2.76,2.76,2.76,2.76,2.76,2.76,2.76,2.7794,2.8139,2.8468,2.8603,2.8603,2.8603,2.8184,2.7625,2.787,2.8125,2.8367,2.863,2.9173,2.9793,2.9793,3.0113,3.0506,3.0506,3.0241,2.9943,2.9943,2.9715,2.9367,2.9003,2.8903,2.8704,2.8011,2.7845,2.7647,2.6917,2.675,2.6634,2.6268,2.6202,2.607,2.5705,2.5341,2.4729,2.3619,2.3454,2.3321,2.294,2.2891,2.2891,2.2891,2.2891,2.2592,2.1862,2.1464,2.0771,1.9667,1.9601,1.9601,1.9601,1.9601,1.9419,1.9068,1.9402,1.9419,1.9038,1.978,2.034,2.0688,2.0356,1.9793,0.0,0.0,0.0,0.0,0.0,0.0,0.0,0.0,1.5561,1.698,1.7697,1.8655,2.0539,2.1006,2.1306,2.1964,2.2523,2.2882,2.2882,2.3281,2.3595,2.3595,2.4186,2.4605,2.4605,2.5307,2.6019,2.6557,2.6707,2.7031,2.757,2.76,2.76,2.76,2.76,2.76,2.76,2.76,2.76,2.76,2.7735,2.7794,2.7809,2.7929,2.7989,2.7989,2.7989,2.8304,2.8831,2.9397,2.9606,2.9606,2.9606,2.8948,2.8015,2.8213,2.8348,2.8498,2.8898,2.936,2.9854,3.0125,3.0539,3.0886,3.0754,3.0704,3.0688,3.0539,3.0506,3.0357,2.9761,2.9612,2.943,2.8754,2.8591,2.8409,2.7663,2.7514,2.7332,2.675,2.6518,2.6419,2.6419,2.6285,2.5739,2.4414,2.4216,2.4166,2.4017,2.4,2.3768,2.3172,2.3106,2.2808,2.2094,2.1481,2.0804,2.0078,2.0028,2.0028,2.0028,2.0028,2.0081,2.0243,2.0243,2.0309,2.0458,2.1052,2.1647,2.2243,2.2841,2.2162,1.7624,1.6219,1.5231,1.6144,1.5576,1.5515,0.0,0.0,1.7025,1.8972,1.9405,1.9899,2.1321,2.2054,2.2688,2.3281,2.3445,2.349,2.349,2.355,2.3595,2.3595,2.4186,2.4605,2.4605,2.5749,2.6512,2.6587,2.7151,2.7525,2.76,2.76,2.76,2.76,2.76,2.76,2.76,2.76,2.76,2.76,2.8188,2.8487,2.8502,2.9112,2.9382,2.9382,2.9382,2.9427,2.9475,2.9577,2.9606,2.9606,2.9606,2.9517,2.9474,3.0369,3.1037,3.1516,3.1563,3.189,3.2231,3.1867,3.2073,3.2332,3.1681,3.1482,3.1333,3.0688,3.0506,3.0472,3.0406,3.0373,3.0191,2.9466,2.9301,2.9102,2.8426,2.8276,2.8243,2.8177,2.7613,2.7182,2.7182,2.6634,2.5921,2.511,2.4978,2.4746,2.4083,2.4,2.3967,2.3884,2.3884,2.357,2.2841,2.2692,2.2327,2.1613,2.1549,2.1549,2.1549,2.1549,2.1864,2.2526,2.2526,2.2857,2.352,2.3586,2.3669,2.3752,2.3835,2.3735,1.9151,1.7984,1.6996,1.6771,1.6891,1.7326,1.8313,1.8493,1.8912,2.0528,2.0857,2.1261,2.2562,2.2763,2.2897,0.0,2.3939,2.4171,2.4171,2.4171,2.4171,2.4171,2.4425,2.4754,2.5143,2.6033,2.6752,2.7151,2.7435,2.76,2.76,2.76,2.76,2.76,2.76,2.7794,2.8173,2.8173,2.8393,2.8768,2.9041,2.9175,2.9175,2.9487,2.9606,2.9636,2.9968,3.0118,3.0148,3.0552,3.0717,3.0717,3.0717,3.0925,3.115,3.0475,3.0566,3.107,3.107,3.1606,3.2249,3.2057,3.2318,3.2652,3.2332,3.2249,3.2183,3.1868,3.1785,3.1686,3.125,3.1135,3.0952,3.0208,3.0042,2.9843,2.9135,2.8986,2.887,2.8475,2.8144,2.7945,2.7945,2.768,2.723,2.6503,2.6021,2.5623,2.5325,2.5292,2.5127,2.4696,2.4265,2.3884,2.357,2.3537,2.3404,2.3106,2.3073,2.3073,2.3073,2.3073,2.3222,2.3537,2.3537,2.3686,2.4,2.4,2.4216,2.4646,2.4646,2.4878,1.9962,1.9076,1.8311,1.7906,1.8386,1.8986,1.9061,1.969,2.0636,2.1949,2.2084,2.2293,2.34,2.3236,2.3092,2.3535,2.4156,2.4545,2.435,2.4485,2.4605,2.4605,2.4605,2.4859,2.5516,2.6213,2.6881,2.754,2.76,2.76,2.76,2.76,2.769,2.7869,2.7884,2.8214,2.8861,2.8876,2.9116,2.9606,2.9786,2.9834,2.9849,3.0028,3.0118,3.0148,3.0597,3.0791,3.0821,3.1301,3.1511,3.1511,3.1511,3.1768,3.1985,3.0629,3.0563,3.1161,3.1161,3.1688,3.2337,3.2337,3.2562,3.2796,3.2599,3.2534,3.2478,3.2282,3.2348,3.2323,3.1634,3.1571,3.1501,3.0761,3.0575,3.0399,2.9679,2.9613,2.9525,2.8913,2.8725,2.8691,2.8691,2.8525,2.821,2.768,2.7147,2.6667,2.6252,2.6202,2.5987,2.5457,2.4928,2.453,2.4315,2.4299,2.4216,2.4017,2.4,2.4,2.4,2.4,2.41,2.4299,2.4299,2.4398,2.4613,2.4613,2.4878,2.5408,2.5408,2.5689,1.9708,1.8747,1.8192,2.0105,2.0124,2.0187,2.2104,2.2089,2.1994,2.3281,2.3092,2.2868,2.349,2.3595,2.358,2.3595,2.4156,2.4365,2.3729,2.4186,2.4605,2.4605,2.4605,2.4859,0.0,2.6213,2.6881,2.754,2.76,2.76,2.76,2.76,2.7899,2.8547,2.8562,2.8891,2.9577,2.9577,2.9592,2.9621,3.0193,3.0477,3.0492,3.1137,3.1451,3.1451,3.1466,3.1466,3.1466,3.1496,3.1511,3.1511,3.1511,3.1511,3.1524,3.1451,3.2139,3.3135,3.3135,3.3135,3.3145,3.3145,3.3187,3.3045,3.2339,3.2124,3.1962,3.1243,3.1462,3.1773,3.1186,3.1454,3.1697,3.0985,3.0784,3.0613,2.9945,3.0161,3.033,2.9854,2.9538,2.9363,2.9363,2.882,2.8392,2.8376,2.8343,2.7829,2.6367,2.6202,2.6185,2.6169,2.6152,2.5838,2.5143,2.5077,2.4762,2.405,2.4,2.4,2.4,2.4,2.4348,2.506,2.5077,2.5425,2.6119,2.6119,2.6136,2.6169,2.6169,2.6169,1.9828,2.0019,2.0423,2.0643,2.0857,2.1306,2.2448,2.2523,2.2493,2.2912,2.3167,2.3236,2.3047,2.3325,2.3595,2.3595,2.4537,2.5023,2.435,2.5226,2.5764,2.5307,2.4874,0.0,0.0,0.0,0.0,2.6896,2.6941,2.7136,2.757,2.76,2.7914,2.8577,2.8607,2.9116,3.0178,3.0193,3.0417,3.0853,3.1062,3.1152,3.1167,3.1406,3.1511,3.1511,3.1511,3.1511,3.1511,3.1511,3.1511,3.1511,3.1511,3.1511,3.1511,3.1511,3.1739,3.2132,3.2532,3.2895,3.3182,3.3182,3.3182,3.3151,3.2914,3.2824,3.2777,3.254,3.2606,3.2596,3.1924,3.189,3.1865,3.1101,3.0926,3.0832,3.0538,3.0595,3.0604,3.0318,3.0186,3.0125,3.0125,2.9947,2.9632,2.9135,2.8276,2.7481,2.7,2.6501,2.6202,2.6202,2.6202,2.6103,2.5838,2.5821,2.5722,2.5491,2.5457,2.5457,2.5457,2.5457,2.559,2.5821,2.5821,2.5937,2.6202,2.6202,2.6202,2.6202,2.6202,2.6468,2.0696,2.1036,2.141,2.168,2.1904,2.2239,2.2882,2.2853,2.2703,2.2703,2.2823,2.2802,2.2418,2.2652,2.2996,2.3236,2.4388,2.5083,2.4664,2.5555,2.6078,2.5659,2.5217,2.5105,0.0,0.0,0.0,2.6542,2.6811,2.7151,2.757,2.76,2.8019,2.8921,2.8951,2.9564,3.0823,3.0866,3.1062,3.1511,3.1511,3.1511,3.1511,3.1511,3.1511,3.1511,3.1511,3.1511,3.1511,3.1511,3.1511,3.1511,3.1511,3.1511,3.1511,3.1511,3.1511,3.1568,3.1938,3.2299,3.2598,3.2598,3.2598,3.2598,3.2598,3.2598,3.2598,3.2598,3.2761,3.2775,3.2071,3.2042,3.2013,3.1275,3.1103,3.1068,3.0959,3.1073,3.107,3.0718,3.078,3.0803,3.0555,3.0506,3.034,2.986,2.8804,2.7961,2.7713,2.7282,2.6882,2.6617,2.6584,2.6501,2.6219,2.6202,2.6202,2.6202,2.6202,2.6202,2.6202,2.6202,2.6202,2.6202,2.6202,2.6202,2.6202,2.6202,2.6352,2.6584,2.6584,2.7,2.2224,2.1814,2.1286,2.3146,2.3182,2.2897,2.343,2.3122,2.2688,2.2598,2.2099,2.168,0.0,0.0,2.1904,2.2538,2.3738,2.4582,2.4605,2.5232,2.5681,0.0,0.0,0.0,0.0,0.0,0.0,2.6542,0.0,2.7525,2.76,2.763,2.8244,2.9562,2.9636,3.0238,3.1496,3.1511,3.1511,3.1511,3.1511,3.1511,3.1511,3.1511,3.1511,3.1511,3.1511,3.1511,3.1511,3.1511,3.1511,3.1511,3.1511,3.1511,3.1511,3.154,3.1555,3.1555,3.1585,3.157,3.1511,3.1511,3.1511,3.1511,3.1511,3.1511,3.1511,3.1511,3.191,3.2231,3.164,3.1938,3.2173,3.1528,3.1347,3.1281,3.1218,3.1582,3.1738,3.1118,3.1331,3.1383,3.0671,3.0522,3.0506,3.0506,2.9893,2.9218,2.8542,2.8426,2.8127,2.7415,2.7348,2.7066,2.6367,2.6301,2.6301,2.6301,2.6301,2.6301,2.6252,2.6252,2.6235,2.6202,2.6235,2.6252,2.6252,2.6285,2.6667,2.7348,2.7348,2.7746,2.3122,2.3116,2.2981,2.3475,2.3475,2.3281,2.3002,2.2808,2.2398,2.1302,2.1401,2.1341,0.0,0.0,0.0,2.1859,2.3337,0.0,2.4582,2.5953,0.0,2.6252,0.0,2.6193,2.6144,2.6169,0.0,0.0,2.6303,2.6542,2.754,2.8053,2.8727,2.9577,3.0028,3.0672,3.1496,3.1511,3.1511,3.1511,3.1511,3.1511,3.1511,3.1511,3.1511,3.1511,3.1511,3.1511,3.1511,3.1511,3.1511,3.1511,3.1511,3.1511,3.157,3.2049,3.2243,3.2303,3.2826,3.2333,3.1511,3.1511,3.1511,3.1511,3.1511,3.1511,3.1511,3.1511,3.1611,3.1697,3.1539,3.1611,3.1807,3.2072,3.1792,3.1649,3.2354,3.2269,3.2086,3.2216,3.1896,3.1548,3.135,3.0853,3.0506,3.0506,3.034,2.9959,2.9251,2.8704,2.8326,2.8127,2.8111,2.8044,2.7862,2.7845,2.7845,2.7845,2.7845,2.7597,2.705,2.7017,2.675,2.6202,2.6733,2.7017,2.7017,2.758,2.7945,2.8111,2.8111,2.8492,2.3505,2.3595,2.3595,2.3595,2.3595,2.343,2.2838,2.2422,2.1874,2.081,2.0638,0.0,1.9256,1.9998,0.0,0.0,0.0,0.0,2.4918,2.5899,2.6495,0.0,2.6396,0.0,2.6322,2.6372,2.654,0.0,2.6628,2.6821,2.7555,2.8233,2.8906,2.9592,3.0178,3.0808,3.1496,3.1511,3.1511,3.1511,3.1511,3.1511,3.1511,3.1511,3.1511,3.1511,0.0,3.1511,3.1511,3.1511,3.1511,3.1525,3.1824,3.1929,3.2019,3.2706,3.2946,3.2991,3.3365,3.3021,3.2392,3.2392,3.2392,3.2392,3.2392,3.2392,3.2303,3.2019,3.1929,3.1869,3.1585,3.1511,3.164,3.2259,3.2148,3.218,3.3267,3.3237,3.3037,3.3172,3.258,3.2083,3.2083,3.1466,3.0986,3.0986,3.0704,3.034,2.9926,2.9549,2.9201,2.887,2.8837,2.8724,2.8426,2.8392,2.8392,2.8392,2.8392,2.821,2.7796,2.7779,2.7597,2.7164,2.7564,2.7779,2.7779,2.8194,2.8558,2.8837,2.8837,2.9218,2.3714,2.367,2.3595,2.3595,2.3595,2.3415,2.2733,2.2038,2.1302,2.0561,0.0,1.9199,1.8411,1.8978,1.9768,2.0332,0.0,2.3334,2.5284,2.5533,2.5749,2.6406,2.648,2.6431,2.6316,2.6406,2.6692,2.7188,2.7448,2.7604,2.7694,2.8353,2.9071,2.9819,3.0357,3.0898,3.1496,3.1511,3.1511,3.1511,3.1511,3.1511,3.1511,3.1511,3.1511,3.1511,3.1511,0.0,3.1511,3.1511,3.1555,3.169,3.2258,3.2557,3.2721,3.338,3.3619,3.3649,3.3724,3.3769,3.3739,3.3559,3.3499,3.3499,3.3499,3.3499,3.338,3.2811,3.2647,3.2512,3.1914,3.1705,3.1788,3.2397,3.2404,3.2602,3.3739,3.3984,3.3931,3.3756,3.3189,3.2739,3.2739,3.2188,3.1747,3.1747,3.1118,3.0638,3.0638,3.0555,3.0241,2.9612,2.9546,2.9317,2.874,2.8691,2.8691,2.8691,2.8691,2.8641,2.8542,2.8525,2.8492,2.8392,2.8492,2.8525,2.8525,2.8641,2.8969,2.9546,2.9546,2.9877,2.4276,2.4007,2.3595,2.3595,2.3595,2.3295,2.2128,2.1769,0.0,0.0,1.9241,1.8969,1.6981,1.8165,1.9457,1.9523,2.1123,2.306,2.4997,0.0,2.6257,0.0,0.0,0.0,0.0,0.0,0.0,0.0,0.0,2.7675,2.8226,2.8988,2.9953,3.1122,3.1271,3.1376,3.1511,3.1511,3.1511,3.1511,3.1511,3.1511,3.1511,3.1511,3.1511,3.1511,3.1511,0.0,3.1511,3.1511,3.1824,3.2333,3.2437,3.2841,3.341,3.4099,3.4339,3.4414,3.4951,3.516,3.4981,3.3858,3.3499,3.3499,3.3499,3.3499,3.3469,3.3365,3.332,3.3305,3.3185,3.2751,3.248,3.3087,3.2418,3.1979,3.3093,3.3355,3.3349,3.3326,3.3119,3.2958,3.2958,3.2705,3.2497,3.2497,3.1885,3.1416,3.1416,3.0886,3.0456,3.0323,3.0307,3.0257,3.0162,3.0125,3.0125,3.0125,3.0125,2.9864,2.9251,2.9234,2.8969,2.8409,2.8936,2.9234,2.9234,2.9827,3.0191,3.0307,3.0307,3.0373,2.3999,2.3849,2.3595,2.3595,2.3566,2.3216,2.1994,0.0,0.0,0.0,1.846,1.8062,1.7058,1.7939,0.0,1.9303,2.044,2.1999,2.4029,0.0,0.0,0.0,0.0,0.0,0.0,0.0,0.0,0.0,0.0,2.7709,2.8442,2.9507,3.0507,3.1466,3.1511,3.1511,3.1511,3.1511,3.1511,3.1511,3.1511,3.1511,3.1511,3.1511,3.1511,3.1511,3.1511,0.0,3.1511,3.1511,3.1899,3.2512,3.2886,3.3425,3.4083,3.4756,3.5011,3.5055,3.5385,3.5504,3.54,3.4756,3.4532,3.4532,3.4532,3.4532,3.4472,3.4098,3.4008,3.3918,3.3589,3.326,3.3156,3.3732,3.337,3.2965,3.3171,3.3182,3.3182,3.3182,3.3137,3.3109,3.3109,3.269,3.2393,3.2393,3.2022,3.1765,3.1765,3.1677,3.1355,3.0572,3.0506,3.0506,3.0506,3.0506,3.0506,3.0506,3.0506,3.034,2.9976,2.9959,2.981,2.9499,2.9794,2.9959,2.9959,3.0323,3.0506,3.0506,3.0506,3.0506,2.3595,2.3595,2.364,2.3731,2.356,2.3076,2.2082,2.0941,0.0,1.8676,1.7804,1.7255,1.7256,0.0,1.8519,0.0,2.0028,2.1226,2.3105,0.0,0.0,0.0,0.0,0.0,0.0,0.0,0.0,0.0,0.0,0.0,2.8786,3.0028,3.0943,3.1481,3.1511,3.1511,3.1511,3.1511,3.1511,3.1511,3.1511,3.1511,3.1511,3.1511,3.1511,3.1511,3.1511,0.0,0.0,3.166,3.2108,3.2781,3.344,3.4113,3.4788,3.531,3.5504,3.5504,3.5504,3.5504,3.5504,3.5504,3.5504,3.5504,3.5504,3.5504,3.5385,3.4846,3.4728,3.4577,3.4068,3.3814,3.3772,3.4059,3.3975,3.3677,3.317,3.2935,3.2826,3.2826,3.3039,3.3156,3.3039,3.2756,3.2536,3.2536,3.2296,3.2174,3.2292,3.2554,3.2249,3.1106,3.082,3.0671,3.0506,3.0506,3.0506,3.0506,3.0506,3.0506,3.0506,3.0506,3.0506,3.0506,3.0506,3.0506,3.0506,3.0506,3.0506,3.0506,3.0506,3.0572,2.3595,2.3595,2.3723,2.4201,2.3553,2.2721,2.2471,0.0,1.9292,1.7972,1.7528,1.7206,1.6604,1.7442,0.0,0.0,0.0,2.1562,2.2789,0.0,0.0,0.0,0.0,0.0,0.0,0.0,0.0,0.0,0.0,0.0,2.949,3.0731,3.1436,3.1511,3.1511,3.1511,3.1511,3.1511,3.1511,3.1511,3.1511,3.1511,3.1511,3.1511,3.1511,3.1511,3.1511,0.0,0.0,3.2153,3.2811,3.3469,3.4159,3.4801,3.5415,3.5489,3.5504,3.5504,3.5504,3.5504,3.5504,3.5504,3.5504,3.5504,3.5504,3.5504,3.5489,3.5429,3.5415,3.54,3.534,3.4861,3.4264,3.3726,3.3096,3.263,3.257,3.2089,3.1668,3.1668,3.2489,3.3039,3.2574,3.3277,3.3928,3.3928,3.3339,3.3063,3.3558,3.3071,3.2652,3.2497,3.1901,3.1234,3.0555,3.0506,3.0506,3.0506,3.0506,3.0506,3.0506,3.0506,3.0506,3.0506,3.0506,3.0506,3.0506,3.0506,3.0506,3.0506,3.0506,3.0853,2.2957,2.331,2.3543,2.3309,2.285,2.2257,2.147,0.0,1.8549,1.7761,1.6816,1.6307,1.6833,1.7309,1.7958,0.0,1.9618,0.0,2.1137,0.0,0.0,0.0,0.0,0.0,0.0,0.0,0.0,0.0,0.0,0.0,2.9579,3.0821,3.1511,3.1511,3.1511,3.1511,3.1511,3.1511,3.1511,3.1511,3.1511,3.1511,3.1511,3.1511,3.1511,3.1511,3.1511,0.0,0.0,3.2213,3.2901,3.3559,3.4249,3.4906,3.5504,3.5504,3.5504,3.5504,3.5504,3.5504,3.5504,3.5504,3.5504,3.5504,3.5504,3.5504,3.5504,3.5504,3.5504,3.5504,3.5504,3.5295,3.4921,3.4247,3.3888,3.3484,3.2677,3.2273,3.1974,3.1585,3.216,3.2641,3.2437,3.3044,3.3553,3.3553,3.3625,3.3754,3.3958,3.3999,3.3839,3.3415,3.2696,3.215,3.1851,3.1818,3.1818,3.1818,3.1818,3.1636,3.1184,3.1168,3.0952,3.0506,3.0506,3.0721,3.1168,3.1168,3.1383,3.1818,3.1818,3.1984,2.2422,2.2826,2.3005,2.2797,2.2239,2.1597,2.0897,1.9295,1.7887,1.7672,1.6389,1.572,1.7084,1.725,1.7638,1.9009,1.9332,1.9643,2.0347,2.1495,0.0,0.0,0.0,0.0,0.0,0.0,0.0,0.0,0.0,0.0,2.9579,3.0821,3.1511,3.1511,3.1511,3.1511,3.1511,3.1511,3.1511,3.1511,3.1511,3.1511,3.1511,3.1511,3.1511,3.1511,3.1511,0.0,0.0,3.2452,3.308,3.3589,3.4442,3.507,3.5504,3.5504,3.5504,3.5504,3.5504,3.5504,3.5504,3.5504,3.5504,3.5504,3.5504,3.5504,3.5504,3.5504,3.5504,3.5504,3.5504,3.5504,3.5385,3.4906,3.4653,3.4249,3.3305,3.2946,3.2662,3.2168,3.242,3.2634,3.2453,3.2726,3.3013,3.3172,3.3553,3.3958,3.4284,3.4667,3.47,3.417,3.3657,3.3183,3.2752,3.2702,3.2702,3.2702,3.2702,3.2464,3.1946,3.1912,3.1664,3.1172,3.1156,3.1421,3.1912,3.1912,3.2199,3.2702,3.2702,3.2818,2.2164,2.2122,2.1983,2.3038,2.1904,2.065,2.1162,1.9266,1.7449,1.7665,1.642,1.5721,1.7137,1.7286,1.7621,1.8883,1.9653,0.0,2.0901,2.2084,0.0,0.0,0.0,0.0,0.0,0.0,0.0,0.0,0.0,0.0,2.9579,3.0821,3.1511,3.1511,3.1511,3.1511,3.1511,3.1511,3.1511,3.1511,3.1511,3.1511,3.1511,3.1511,3.1511,0.0,0.0,0.0,0.0,3.2946,3.3484,3.3619,3.4981,3.5489,3.5504,3.5504,3.5504,3.5504,3.5504,3.5504,3.5504,3.5504,3.5504,3.5504,3.5504,3.5504,3.5504,3.5504,3.5504,3.5504,3.5504,3.5504,3.5504,3.5489,3.4966,3.4503,3.4488,3.3948,3.3484,3.3469,3.3422,3.3198,3.2616,3.2448,3.2602,3.3119,3.3224,3.3614,3.4739,3.4899,3.4899,3.4883,3.4883,3.4286,3.2834,3.2702,3.2702,3.2702,3.2702,3.2702,3.2702,3.2702,3.2685,3.2685,3.2685,3.2685,3.2702,3.2702,3.2702,3.2702,3.2702,3.31,2.1157,2.1495,2.166,2.1446,2.0936,2.0451,2.019,1.872,1.7449,1.7601,1.6389,1.572,1.7084,1.725,1.778,1.9508,1.9957,0.0,0.0,0.0,0.0,0.0,0.0,0.0,0.0,0.0,0.0,0.0,0.0,0.0,2.9579,3.0821,3.1511,3.1511,3.1511,3.1511,3.1511,3.1511,3.1511,3.1511,3.1511,3.1511,3.1511,3.1511,3.1511,0.0,0.0,0.0,0.0,3.2437,3.3095,3.3589,3.4457,3.51,3.5504,3.5504,3.5504,3.5504,3.5504,3.5504,3.5504,3.5504,3.5504,3.5504,3.5504,3.5504,3.5504,3.5504,3.5504,3.5504,3.5504,3.5504,3.5504,3.5504,3.534,3.5055,3.4608,3.4339,3.4038,3.3589,3.3787,3.3957,3.3768,3.3661,3.3697,3.3844,3.3472,3.3313,3.3691,3.3742,3.3742,3.3742,3.3742,3.3858,3.419,3.4203,3.4203,3.4203,3.4203,3.3815,3.293,3.3258,3.3034,3.2157,3.2523,3.277,3.2914,3.2914,3.2951,3.3042,3.3042,3.3171,2.0143,2.0613,2.0823,2.0295,2.0154,1.999,1.9334,1.8266,1.7359,1.7256,1.6212,1.5663,1.6811,1.6919,1.7388,1.9124,1.9396,0.0,0.0,0.0,0.0,0.0,0.0,0.0,0.0,0.0,0.0,0.0,0.0,0.0,2.9909,3.0913,3.1511,3.1511,3.1511,3.1511,3.1511,3.1511,3.1511,3.1511,3.1511,3.1511,3.1511,3.1511,3.1511,0.0,0.0,0.0,0.0,3.2213,3.2901,3.3559,3.4249,3.4906,3.5504,3.5504,3.5504,3.5504,3.5504,3.5504,3.5504,3.5504,3.5504,3.5504,3.5504,3.5504,3.5504,3.5504,3.5504,3.5504,3.5504,3.5504,3.5504,3.5504,3.5504,3.5385,3.4966,3.4861,3.4741,3.4337,3.4317,3.4379,3.4379,3.3911,3.3637,3.3861,3.3322,3.296,3.3156,3.3182,3.3182,3.3182,3.3182,3.3485,3.4202,3.4251,3.4251,3.4251,3.4251,3.3907,3.3107,3.3413,3.3202,3.2408,3.2708,3.2959,3.3065,3.3065,3.3122,3.3182,3.3182,3.3182,0.0,1.9471,1.9537,1.9462,1.9459,1.9277,1.8599,1.7863,0.0,1.6707,1.5903,1.5592,1.6513,1.6444,1.6754,1.8209,1.8415,0.0,0.0,2.2243,0.0,0.0,0.0,0.0,0.0,0.0,0.0,0.0,0.0,0.0,3.0477,3.1137,3.1511,3.1511,3.1511,3.1511,3.1511,3.1511,3.1511,3.1511,3.1511,3.1511,3.1511,3.1511,3.1511,0.0,0.0,0.0,0.0,3.2168,3.2826,3.3499,3.4174,3.4831,3.5429,3.5489,3.5504,3.5504,3.5504,3.5504,3.5504,3.5504,3.5504,3.5504,3.5504,3.5504,3.5504,3.5504,3.5504,3.5504,3.5504,3.5504,3.5504,3.5504,3.5504,3.5504,3.5504,3.5504,3.5504,3.5504,3.4996,3.4578,3.4578,3.3499,3.2825,3.3408,3.288,3.2582,3.3091,3.3108,3.3093,3.3093,3.3093,3.3093,3.3093,3.3145,3.3182,3.3182,3.3182,3.3198,3.313,3.3198,3.3198,3.313,3.3145,3.3145,3.3145,3.3119,3.3093,3.3093,3.3103,3.3145,1.7292,0.0,1.8145,1.8093,1.811,1.8099,0.0,1.7317,1.6766,1.6695,1.5979,1.577,1.7123,1.715,1.76,1.9597,0.0,0.0,2.1703,0.0,0.0,0.0,0.0,0.0,0.0,0.0,0.0,0.0,0.0,2.9724,3.0477,3.1137,3.1511,3.1511,3.1511,3.1511,3.1511,3.1511,3.1511,3.1511,3.1511,3.1511,3.1511,3.1511,3.1511,0.0,0.0,0.0,3.1511,3.1675,3.2123,3.2811,3.3469,3.4128,3.4786,3.531,3.5504,3.5504,3.5504,3.5504,3.5504,3.5504,3.5504,3.5504,3.5504,3.5504,3.5504,3.5504,3.5504,3.5504,3.5504,3.5504,3.5504,3.5504,3.5504,3.5504,3.5504,3.5504,3.5504,3.5504,3.537,3.5265,3.5265,3.4577,3.407,3.4225,3.3216,3.2522,3.2652,3.2213,3.1894,3.1894,3.1894,3.1894,3.1894,3.2707,3.3182,3.3182,3.3182,3.3029,3.2586,3.2986,3.3013,3.2602,3.2602,3.2602,3.2602,3.2104,3.1894,3.1923,3.2382,3.2602,1.6219,1.7174,1.8087,1.7724,1.789,1.8072,1.7741,1.7111,1.653,1.6248,0.0,0.0,1.693,0.0,0.0,0.0,2.0011,0.0,0.0,0.0,0.0,0.0,0.0,0.0,0.0,0.0,0.0,0.0,0.0,2.9642,3.0365,3.1036,3.1438,3.1511,3.1511,3.1511,3.1511,3.1511,3.1511,3.1511,3.1511,3.1511,3.1511,3.1511,3.1511,0.0,0.0,0.0,3.1511,3.1511,3.1899,3.2557,3.2901,3.3634,3.4548,3.4906,3.5235,3.5504,3.5504,3.5504,3.5504,3.5504,3.5504,3.5504,3.5504,3.5504,3.5504,3.5504,3.5504,3.5504,3.5504,3.5504,3.5504,3.5504,3.5504,3.5504,3.5504,3.5504,3.5504,3.5504,3.5504,3.5504,3.5504,3.4936,3.4503,3.4503,3.3619,3.2961,3.2961,3.2363,3.1959,3.1959,3.169,3.1511,3.1511,3.2076,3.2407,3.2407,3.2407,3.2284,3.1994,3.2272,3.2284,3.1979,3.1994,3.1994,3.1994,3.1668,3.1511,3.1511,3.1824,3.1994,1.5772,1.7127,1.8371,1.7697,1.8026,1.8386,1.7767,0.0,0.0,0.0,0.0,0.0,0.0,1.6862,0.0,0.0,0.0,0.0,2.4462,0.0,0.0,0.0,0.0,0.0,0.0,0.0,0.0,0.0,0.0,2.9587,3.0268,3.0965,3.138,3.1511,3.1511,3.1511,3.1511,3.1511,3.1511,3.1511,3.1511,3.1511,3.1511,3.1511,3.1511,3.1511,0.0,0.0,3.1511,3.1511,3.1824,3.2348,3.2452,3.326,3.4369,3.4474,3.4906,3.5504,3.5504,3.5504,3.5504,3.5504,3.5504,3.5504,3.5504,3.5504,3.5504,3.5504,3.5504,3.5504,3.5504,3.5504,3.5504,3.5504,3.5504,3.5504,3.5504,3.5504,3.5504,3.5504,3.5504,3.5504,3.5504,3.5026,3.4668,3.4668,3.4068,3.3649,3.3649,3.3066,3.2662,3.2662,3.2138,3.1765,3.166,3.1645,3.1615,3.1511,3.1511,3.1511,3.1511,3.1511,3.1511,3.1511,3.1511,3.1511,3.1511,3.1511,3.1511,3.1511,3.1582,3.164,1.6398,1.7174,1.7682,1.6947,1.7322,1.7833,1.7712,1.7608,0.0,0.0,0.0,0.0,0.0,1.8602,1.9317,0.0,0.0,2.3227,0.0,0.0,0.0,0.0,0.0,0.0,0.0,0.0,0.0,0.0,0.0,2.9584,3.0268,3.1051,3.1467,3.1511,3.1511,3.1511,3.1511,3.1511,3.1511,3.1511,3.1511,3.1511,3.1511,3.1511,3.1511,3.1511,0.0,3.1511,3.1511,3.1511,3.157,3.1705,3.2273,3.2976,3.3709,3.4294,3.4906,3.5504,3.5504,3.5504,3.5504,3.5504,3.5504,3.5504,3.5504,3.5504,3.5504,3.5504,3.5504,3.5504,3.5504,3.5504,3.5504,3.5504,3.5504,3.5504,3.5504,3.5504,3.5504,3.5504,3.5504,3.5504,3.5504,3.5415,3.5355,3.5355,3.4771,3.4354,3.4354,3.3754,3.335,3.335,3.3245,3.2961,3.2378,3.2333,3.2093,3.154,3.1511,3.1511,3.1511,3.1511,3.1511,3.1511,3.1511,3.1511,3.1511,3.1511,3.1511,3.1496,3.2007,3.2259,1.6144,1.6936,1.7623,1.7277,1.7711,1.8237,1.8237,1.7968,1.7713,0.0,0.0,0.0,0.0,0.0,2.0597,2.2604,0.0,2.4471,2.5719,0.0,0.0,0.0,0.0,0.0,0.0,0.0,0.0,0.0,0.0,0.0,2.9161,2.9882,3.0514,3.0943,3.0943,3.1122,3.1511,3.1511,3.1511,3.1511,3.1511,3.1511,3.1511,3.1511,3.1511,3.1511,0.0,3.1511,3.1511,3.1511,3.1511,3.1525,3.1839,3.2363,3.308,3.4098,3.4906,3.5504,3.5504,3.5504,3.5504,3.5504,3.5504,3.5504,3.5504,3.5504,3.5504,3.5504,3.5504,3.5504,3.5504,3.5504,3.5504,3.5504,3.5504,3.5504,3.5504,3.5504,3.5504,3.5504,3.5504,3.5504,3.5504,3.5504,3.5504,3.5504,3.5235,3.504,3.504,3.4442,3.4054,3.4054,3.3709,3.338,3.3066,3.3036,3.2617,3.157,3.1511,3.1511,3.1511,3.1511,3.1511,3.1511,3.1511,3.1511,3.1511,3.1511,3.1511,3.1511,3.1768,3.2107,1.6203,1.6967,1.7713,1.7713,1.8192,1.8792,1.9106,1.864,1.8252,1.8565,0.0,0.0,0.0,2.0639,0.0,2.4146,2.4692,2.5159,2.61,0.0,0.0,0.0,0.0,0.0,0.0,0.0,0.0,0.0,0.0,0.0,2.8207,2.8894,2.961,3.0268,3.0432,3.0761,3.1256,3.1421,3.1511,3.1511,3.1511,3.1511,3.1511,3.1511,3.1511,3.1511,3.1511,3.1511,3.1511,3.1511,3.1511,3.1511,3.1511,3.2004,3.2886,3.4038,3.4906,3.5504,3.5504,3.5504,3.5504,3.5504,3.5504,3.5504,3.5504,3.5504,3.5504,3.5504,3.5504,3.5504,3.5504,3.5504,3.5504,3.5504,3.5504,3.5504,3.5504,3.5504,3.5504,3.5504,3.5504,3.5504,3.5504,3.5504,3.5504,3.5504,3.5504,3.5504,3.5504,3.504,3.4711,3.4711,3.4262,3.3903,3.3739,3.3589,3.3066,3.2034,3.1824,3.166,3.1511,3.1645,3.166,3.1511,3.1511,3.1511,3.1511,3.1511,3.1585,3.1735,3.1735,3.2079,1.74,1.7639,1.7713,1.7713,1.8192,1.9031,2.027,2.0034,1.9917,2.1156,0.0,0.0,0.0,2.2313,2.3548,2.4897,2.5047,2.5433,0.0,0.0,0.0,0.0,0.0,0.0,0.0,0.0,0.0,0.0,0.0,0.0,2.8193,2.8963,2.9486,2.9666,3.0208,3.0522,3.0567,3.1182,3.1511,3.1511,3.1511,3.1511,3.1511,3.1511,3.1511,3.1511,3.1511,3.1511,3.1511,3.1511,3.1511,3.1511,3.1511,3.2273,3.3514,3.4249,3.4906,3.5504,3.5504,3.5504,3.5504,3.5504,3.5504,3.5504,3.5504,3.5504,3.5504,3.5504,3.5504,3.5504,3.5504,3.5504,3.5504,3.5504,3.5504,3.5504,3.5504,3.5504,3.5504,3.5504,3.5504,3.5504,3.5504,3.5504,3.5504,3.5504,3.5504,3.5504,3.5504,3.5459,3.5429,3.5429,3.5385,3.51,3.4488,3.3844,3.3455,3.3365,3.2781,3.2138,3.1525,3.2093,3.2123,3.1511,3.1511,3.1511,3.1511,3.1511,3.1824,3.2437,3.2437,3.2796,1.701,1.7384,1.7713,1.7713,1.8523,1.945,1.9959,2.0198,2.0587,2.15,2.2004,0.0,0.0,0.0,2.3993,2.5786,2.5462,2.5521,0.0,0.0,0.0,0.0,0.0,0.0,0.0,0.0,0.0,0.0,0.0,0.0,2.7576,2.8033,2.8491,2.8951,2.9205,2.9699,3.0492,3.0761,3.1077,3.1511,3.1511,3.1511,3.1511,3.1511,3.1511,3.1511,3.1511,3.1511,3.1511,3.1511,3.1511,3.1511,3.1511,3.2049,3.2961,3.3619,3.4292,3.4921,3.5355,3.5504,3.5504,3.5504,3.5504,3.5504,3.5504,3.5504,3.5504,3.5504,3.5504,3.5504,3.5504,3.5504,3.5504,3.5504,3.5504,3.5504,3.5504,3.5504,3.5504,3.5504,3.5504,3.5504,3.5504,3.5504,3.5504,3.5504,3.5504,3.5504,3.5504,3.5504,3.5504,3.5504,3.5504,3.54,3.513,3.4502,3.4098,3.4098,3.3484,3.3021,3.2766,3.2991,3.2826,3.2123,3.2512,3.2557,3.2108,3.2557,3.2886,3.3125,3.3125,3.3469,1.707,1.7519,1.7968,1.7758,1.8882,2.0022,2.0022,2.0528,2.1261,2.2113,2.2652,2.331,2.4365,0.0,0.0,0.0,2.5769,0.0,0.0,0.0,0.0,0.0,0.0,0.0,0.0,0.0,0.0,0.0,0.0,0.0,0.0,2.7397,2.7774,2.8263,2.8487,2.9026,2.9894,3.0298,3.0746,3.1182,3.1406,3.1511,3.1511,3.1511,3.1511,3.1511,3.1511,3.1511,3.1511,3.1511,3.1511,3.1511,3.1511,3.1914,3.2587,3.3245,3.3903,3.4608,3.5265,3.5504,3.5504,3.5504,3.5504,3.5504,3.5504,3.5504,3.5504,3.5504,3.5504,3.5504,3.5504,3.5504,3.5504,3.5504,3.5504,3.5504,3.5504,3.5504,3.5504,3.5504,3.5504,3.5504,3.5504,3.5504,3.5504,3.5504,3.5504,3.5504,3.5504,3.5504,3.5504,3.5504,3.5504,3.5504,3.5504,3.507,3.4833,3.4833,3.4382,3.3933,3.3514,3.3694,3.3499,3.2841,3.326,3.3275,3.2826,3.3275,3.3604,3.3799,3.3799,3.4158,1.7878,1.8177,1.8521,1.7893,1.9223,2.0703,2.0718,2.1231,2.2069,2.3355,2.3595,2.3797,2.4402,2.4022,0.0,2.6258,2.5923,0.0,0.0,0.0,0.0,0.0,0.0,0.0,0.0,0.0,0.0,0.0,0.0,0.0,0.0,2.7335,2.7463,2.76,2.8233,2.8592,2.8607,2.9849,3.0492,3.0507,3.1167,3.1496,3.1511,3.1511,3.1511,3.1511,3.1511,3.1511,3.1511,3.1511,3.1511,3.1511,3.1511,3.1899,3.2557,3.3245,3.3903,3.4593,3.525,3.5504,3.5504,3.5504,3.5504,3.5504,3.5504,3.5504,3.5504,3.5504,3.5504,3.5504,3.5504,3.5504,3.5504,3.5504,3.5504,3.5504,3.5504,3.5504,3.5504,3.5504,3.5504,3.5504,3.5504,3.5504,3.5504,3.5504,3.5504,3.5504,3.5504,3.5504,3.5504,3.5504,3.5504,3.5504,3.5504,3.5504,3.5504,3.5504,3.5504,3.4906,3.3559,3.4174,3.4173,3.3514,3.3514,3.3514,3.3499,3.3514,3.3844,3.4518,3.4518,3.4861,1.7639,1.7848,1.8177,1.8927,0.0,0.0,0.0,2.2269,2.2757,0.0,2.3939,2.3797,2.444,0.0,0.0,2.5659,2.5616,0.0,0.0,0.0,0.0,0.0,0.0,0.0,0.0,0.0,0.0,0.0,0.0,0.0,0.0,2.7437,2.7549,2.76,2.7794,2.8113,2.8607,2.8981,2.9609,3.0507,3.0717,3.1032,3.1511,3.1511,3.1511,3.1511,3.1511,3.1511,3.1511,3.1511,3.1511,3.1511,3.1511,3.163,3.1869,3.2557,3.3215,3.3888,3.4547,3.51,3.5504,3.5504,3.5504,3.5504,3.5504,3.5504,3.5504,3.5504,3.5504,3.5504,3.5504,3.5504,3.5504,3.5504,3.5504,3.5504,3.5504,3.5504,3.5504,3.5504,3.5504,3.5504,3.5504,3.5504,3.5504,3.5504,3.5504,3.5504,3.5504,3.5504,3.5504,3.5504,3.5504,3.5504,3.5504,3.5504,3.5504,3.5504,3.5504,3.5325,3.4921,3.51,3.4876,3.4234,3.4666,3.4666,3.4219,3.4681,3.5011,3.519,3.519,3.531,1.7848,1.8102,0.0,1.942,2.0707,2.1934,2.2853,0.0,0.0,0.0,2.3879,2.3804,2.4485,2.4036,0.0,2.5734,2.5708,0.0,0.0,0.0,0.0,0.0,0.0,0.0,0.0,0.0,0.0,0.0,0.0,0.0,0.0,2.7412,2.7549,2.76,2.76,2.7794,2.8188,2.8472,2.8981,2.9759,3.0013,3.0357,3.0748,3.1271,3.1511,3.1511,3.1511,3.1511,3.1511,3.1511,3.1511,3.1511,3.1511,3.1511,3.1585,3.2243,3.2766,3.32,3.3858,3.4532,3.51,3.51,3.528,3.5504,3.5504,3.5504,3.5504,3.5504,3.5504,3.5504,3.5504,3.5504,3.5504,3.5504,3.5504,3.5504,3.5504,3.5504,3.5504,3.5504,3.5504,3.5504,3.5504,3.5504,3.5504,3.5504,3.5504,3.5504,3.5504,3.5504,3.5504,3.5504,3.5504,3.5504,3.5504,3.5504,3.5504,3.5504,3.5504,3.5504,3.5504,3.5504,3.531,3.4923,3.5295,3.5295,3.4891,3.5295,3.5504,3.5504,3.5504,3.5504,1.8222,1.8612,1.8807,1.9585,2.0801,0.0,2.3325,2.3595,2.3595,2.3595,0.0,2.3789,2.4395,2.4007,2.4223,2.6108,0.0,0.0,0.0,0.0,0.0,0.0,0.0,0.0,0.0,0.0,0.0,0.0,0.0,0.0,0.0,2.735,2.7463,2.76,2.76,2.76,2.76,2.8188,2.8547,2.8607,2.9232,2.9547,2.9651,3.0866,3.1451,3.1511,3.1511,3.1511,3.1511,3.1511,3.1511,3.1511,3.1511,3.1511,3.157,3.2168,3.2437,3.2602,3.32,3.3844,3.4429,3.4488,3.4906,3.5429,3.5489,3.5504,3.5504,3.5504,3.5504,3.5504,3.5504,3.5504,3.5504,3.5504,3.5504,3.5504,3.5504,3.5504,3.5504,3.5504,3.5504,3.5504,3.5504,3.5504,3.5504,3.5504,3.5504,3.5504,3.5504,3.5504,3.5504,3.5504,3.5504,3.5504,3.5504,3.5504,3.5504,3.5504,3.5504,3.5504,3.5504,3.5504,3.5504,3.5504,3.5504,3.5504,3.5504,3.5504,3.5504,3.5504,3.5504,3.5504,1.7414,1.7923,0.0,0.0,2.1485,2.2688,2.343,2.3595,2.3595,2.3595,2.3595,2.364,2.3789,2.3699,2.3909,0.0,0.0,0.0,0.0,0.0,0.0,0.0,0.0,0.0,0.0,0.0,0.0,0.0,0.0,0.0,2.7207,2.7423,2.7575,2.76,2.76,2.76,2.76,2.775,2.8094,0.0,2.8742,2.9086,2.9636,3.0372,3.0987,3.1511,3.1511,3.1511,3.1511,3.1511,3.1511,3.1511,3.1511,3.1511,3.1525,3.166,3.2049,3.2512,3.2677,3.3155,3.3784,3.4339,3.4608,3.4801,3.534,3.5504,3.5504,3.5504,3.5504,3.5504,3.5504,3.5504,3.5504,3.5504,3.5504,3.5504,3.5504,3.5504,3.5504,3.5504,3.5504,3.5504,3.5504,3.5504,3.5504,3.5504,3.5504,3.5504,3.5504,3.5504,3.5504,3.5504,3.5504,3.5504,3.5504,3.5504,3.5504,3.5504,3.5504,3.5504,3.5504,3.5504,3.5504,3.5504,3.5504,3.5504,3.5504,3.5504,3.5504,3.5504,3.5504,3.5504,1.7639,0.0,0.0,2.0677,0.0,2.2463,2.3385,2.3595,2.3595,2.3595,2.3595,2.3595,2.3595,2.3595,0.0,0.0,0.0,0.0,0.0,0.0,0.0,0.0,0.0,0.0,0.0,0.0,0.0,0.0,0.0,2.7041,2.7093,2.731,2.7423,2.7514,2.7575,2.76,2.76,2.76,2.7779,2.8113,2.8113,2.8457,2.9146,3.0073,3.0702,3.1032,3.1361,3.1511,3.1511,3.1511,3.1511,3.1511,3.1511,3.1511,3.1511,3.1511,3.172,3.2019,3.2019,3.2452,3.308,3.3425,3.3994,3.4578,3.4906,3.525,3.5504,3.5504,3.5504,3.5504,3.5504,3.5504,3.5504,3.5504,3.5504,3.5504,3.5504,3.5504,3.5504,3.5504,3.5504,3.5504,3.5504,3.5504,3.5504,3.5504,3.5504,3.5504,3.5504,3.5504,3.5504,3.5504,3.5504,3.5504,3.5504,3.5504,3.5504,3.5504,3.5504,3.5504,3.5504,3.5504,3.5504,3.5504,3.5504,3.5504,3.5504,3.5504,3.5504,3.5504,3.5504,3.5504,1.773,0.0,1.9016,2.1021,2.1605,0.0,2.3176,2.352,2.3595,2.3595,2.3595,2.3595,2.3595,0.0,0.0,0.0,0.0,0.0,0.0,0.0,0.0,0.0,0.0,0.0,0.0,0.0,0.0,0.0,0.0,2.6794,2.7003,2.7155,2.731,2.7401,2.7524,2.76,2.76,2.76,2.76,2.76,2.76,2.7899,2.8472,2.9639,3.0298,3.0537,3.1077,3.1391,3.1511,3.1511,3.1511,3.1511,3.1511,3.1511,3.1511,3.1511,3.1511,3.1511,3.1511,3.1854,3.2333,3.2452,3.332,3.4354,3.4474,3.4966,3.5504,3.5504,3.5504,3.5504,3.5504,3.5504,3.5504,3.5504,3.5504,3.5504,3.5504,3.5504,3.5504,3.5504,3.5504,3.5504,3.5504,3.5504,3.5504,3.5504,3.5504,3.5504,3.5504,3.5504,3.5504,3.5504,3.5504,3.5504,3.5504,3.5504,3.5504,3.5504,3.5504,3.5504,3.5504,3.5504,3.5504,3.5504,3.5504,3.5504,3.5504,3.5504,3.5504,3.5504,3.5504,3.5504,1.5949,0.0,1.8326,0.0,2.1276,2.1889,0.0,0.0,2.3595,0.0,2.3595,2.3595,0.0,0.0,0.0,0.0,0.0,0.0,0.0,0.0,0.0,0.0,0.0,0.0,0.0,0.0,0.0,0.0,2.6291,2.6491,2.6974,2.7361,2.7499,2.7401,2.7524,2.76,2.76,2.76,2.76,2.76,2.76,2.7645,2.7764,2.8502,2.946,3.0507,3.0597,3.0957,3.1511,3.1511,3.1511,3.1511,3.1511,3.1511,3.1511,3.1511,3.1511,3.1511,3.1511,3.157,3.1735,3.2303,3.3021,3.3724,3.4339,3.4966,3.5504,3.5504,3.5504,3.5504,3.5504,3.5504,3.5504,3.5504,3.5504,3.5504,3.5504,3.5504,3.5504,3.5504,3.5504,3.5504,3.5504,3.5504,3.5504,3.5504,3.5504,3.5504,3.5504,3.5504,3.5504,3.5504,3.5504,3.5504,3.5504,3.5504,3.5504,3.5504,3.5504,3.5504,3.5504,3.5504,3.5504,3.5504,3.5504,3.5504,3.5504,3.5504,3.5504,3.5504,3.5504,3.5504,1.6578,1.6996,1.7623,0.0,2.0348,2.0842,2.1909,0.0,2.3107,2.3107,2.3355,0.0,0.0,0.0,0.0,0.0,0.0,0.0,0.0,0.0,0.0,0.0,0.0,0.0,0.0,0.0,0.0,0.0,2.5878,2.6165,2.6316,2.7066,2.7437,2.7284,2.7499,2.76,2.76,2.76,2.76,2.76,2.76,2.76,2.76,2.7914,2.8768,2.9998,3.0357,3.0896,3.1511,3.1511,3.1511,3.1511,3.1511,3.1511,3.1511,3.1511,3.1511,3.1511,3.1511,3.1511,3.1555,3.1839,3.2662,3.3544,3.3844,3.4666,3.5504,3.5504,3.5504,3.5504,3.5504,3.5504,3.5504,3.5504,3.5504,3.5504,3.5504,3.5504,3.5504,3.5504,3.5504,3.5504,3.5504,3.5504,3.5504,3.5504,3.5504,3.5504,3.5504,3.5504,3.5504,3.5504,3.5504,3.5504,3.5504,3.5504,3.5504,3.5504,3.5504,3.5504,3.5504,3.5504,3.5504,3.5504,3.5504,3.5504,3.5504,3.5504,3.5504,3.5504,3.5504,3.5504,0.0,0.0,1.6951,1.8942,1.9573,2.0007,0.0,0.0,2.2493,0.0,0.0,0.0,0.0,0.0,0.0,0.0,0.0,0.0,0.0,0.0,0.0,0.0,0.0,0.0,0.0,0.0,0.0,0.0,2.5272,2.5633,2.5789,2.6691,2.7198,2.7192,2.7473,2.76,2.76,2.76,2.76,2.76,2.76,2.76,2.76,2.76,2.8244,2.937,2.9998,3.0657,3.1256,3.1436,3.1511,3.1511,3.1511,3.1511,3.1511,3.1511,3.1511,3.1511,3.1511,3.1511,3.1511,3.1511,3.2392,3.3499,3.3499,3.4442,3.5504,3.5504,3.5504,3.5504,3.5504,3.5504,3.5504,3.5504,3.5504,3.5504,3.5504,3.5504,3.5504,3.5504,3.5504,3.5504,3.5504,3.5504,3.5504,3.5504,3.5504,3.5504,3.5504,3.5504,3.5504,3.5504,3.5504,3.5504,3.5504,3.5504,3.5504,3.5504,3.5504,3.5504,3.5504,3.5504,3.5504,3.5504,3.5504,3.5504,3.5504,3.5504,3.5504,3.5504,3.5504,3.5504,0.0,1.5873,0.0,1.8268,1.9226,0.0,0.0,0.0,0.0,0.0,0.0,0.0,0.0,0.0,0.0,0.0,0.0,0.0,0.0,0.0,0.0,0.0,0.0,0.0,0.0,0.0,0.0,0.0,2.4296,2.4793,2.5745,2.6347,2.6808,2.7178,2.7473,2.76,2.76,2.76,2.76,2.76,2.76,2.76,2.76,2.76,2.7989,2.8682,2.934,2.9983,3.0612,3.1241,3.1511,3.1511,3.1511,3.1511,3.1511,3.1511,3.1511,3.1511,3.1511,3.1511,3.1511,3.1511,3.2392,3.3499,3.3499,3.4442,3.5504,3.5504,3.5504,3.5504,3.5504,3.5504,3.5504,3.5504,3.5504,3.5504,3.5504,3.5504,3.5504,3.5504,3.5504,3.5504,3.5504,3.5504,3.5504,3.5504,3.5504,3.5504,3.5504,3.5504,3.5504,3.5504,3.5504,3.5504,3.5504,3.5504,3.5504,3.5504,3.5504,3.5504,3.5504,3.5504,3.5504,3.5504,3.5504,3.5504,3.5504,3.5504,3.5504,3.5504,3.5504,3.5504,0.0,0.0,0.0,1.7685,1.8568,1.9226,1.9899,2.0902,2.165,0.0,0.0,0.0,0.0,0.0,0.0,0.0,0.0,0.0,0.0,0.0,0.0,0.0,0.0,0.0,0.0,0.0,0.0,0.0,0.0,2.4582,2.5193,2.6095,2.6763,2.7178,2.7473,2.76,2.76,2.76,2.76,2.76,2.76,2.76,2.76,2.76,2.7735,2.8004,2.8678,2.9535,3.0552,3.1212,3.1511,3.1511,3.1511,3.1511,3.1511,3.1511,3.1511,3.1511,3.1511,3.1511,3.1511,3.1511,3.2392,3.3499,3.3499,3.4442,3.5504,3.5504,3.5504,3.5504,3.5504,3.5504,3.5504,3.5504,3.5504,3.5504,3.5504,3.5504,3.5504,3.5504,3.5504,3.5504,3.5504,3.5504,3.5654,3.6073,3.6133,3.6282,3.6671,3.6731,3.6731,3.6731,3.6731,3.6731,3.6731,3.6731,3.6731,3.6731,3.6731,3.6731,3.6731,3.6731,3.6731,3.6731,3.6342,3.5923,3.5504,3.5504,3.5504,3.5504,3.5504,3.5504,1.4393,0.0,0.0,0.0,0.0,1.8311,1.9435,0.0,2.0632,0.0,0.0,0.0,0.0,0.0,0.0,0.0,0.0,0.0,0.0,0.0,0.0,0.0,0.0,0.0,0.0,0.0,0.0,0.0,0.0,0.0,2.4554,2.5444,2.626,2.698,2.7379,2.76,2.76,2.76,2.76,2.76,2.76,2.76,2.76,2.76,2.76,2.763,2.8308,2.9205,3.0253,3.0883,3.1301,3.1511,3.1511,3.1511,3.1511,3.1511,3.1511,3.1511,3.1511,3.1511,3.1511,3.1511,3.2392,3.3499,3.3499,3.4442,3.5504,3.5504,3.5504,3.5504,3.5504,3.5504,3.5504,3.5504,3.5504,3.5504,3.5504,3.5504,3.5504,3.5504,3.5684,3.5833,3.5833,3.6013,3.6297,3.6731,3.6791,3.6941,3.736,3.7404,3.7404,3.7404,3.7404,3.7404,3.7404,3.7404,3.7404,3.7404,3.7404,3.7404,3.7404,3.7404,3.7404,3.7404,3.7,3.6477,3.5833,3.5609,3.5504,3.5504,3.5504,3.5624,0.0,0.0,0.0,0.0,0.0,0.0,1.9211,0.0,0.0,0.0,0.0,0.0,0.0,0.0,0.0,0.0,0.0,0.0,0.0,0.0,0.0,0.0,0.0,0.0,0.0,0.0,0.0,0.0,2.3334,2.3615,2.3885,2.4369,2.5217,2.6512,2.7225,2.757,2.757,2.7585,2.76,2.76,2.76,2.76,2.76,2.76,2.76,2.763,2.8278,2.8951,2.9636,3.0238,3.0868,3.1481,3.1496,3.1511,3.1511,3.1511,3.1511,3.1511,3.1511,3.1511,3.1511,3.1511,3.2392,3.3499,3.3499,3.4442,3.5504,3.5504,3.5504,3.5504,3.5504,3.5504,3.5504,3.5504,3.5504,3.5504,3.5504,3.5519,3.5534,3.5534,3.6043,3.6492,3.6507,3.7015,3.7419,3.7434,3.7434,3.7449,3.7464,3.7464,3.7464,3.7464,3.7464,3.7464,3.7464,3.7464,3.7464,3.7464,3.7464,3.7464,3.7464,3.7464,3.7464,3.7464,3.7449,3.715,3.6537,3.5863,3.5534,3.5534,3.5549,3.5908,1.529,0.0,0.0,0.0,0.0,0.0,0.0,0.0,0.0,0.0,0.0,0.0,0.0,0.0,0.0,0.0,0.0,0.0,0.0,0.0,0.0,0.0,0.0,0.0,0.0,0.0,0.0,0.0,2.34,2.3674,2.4025,2.4775,2.5401,2.5869,2.6512,2.6881,2.6881,2.736,2.76,2.76,2.76,2.76,2.76,2.76,2.76,2.76,2.7809,2.8274,2.8951,3.0058,3.0612,3.0808,3.1316,3.1511,3.1511,3.1511,3.1511,3.1511,3.1511,3.1511,3.1511,3.1511,3.2392,3.3499,3.3499,3.4442,3.5504,3.5504,3.5504,3.5504,3.5504,3.5504,3.5504,3.5504,3.5504,3.5504,3.5504,3.5878,3.6207,3.6207,3.6357,3.6626,3.7075,3.73,3.7569,3.8048,3.8123,3.8302,3.8796,3.8871,3.8871,3.8871,3.8871,3.8871,3.8871,3.8871,3.8871,3.8871,3.8871,3.8871,3.8871,3.8871,3.8871,3.8871,3.8377,3.8033,3.7868,3.6746,3.6207,3.6222,3.6671,3.6985,1.5948,0.0,0.0,0.0,0.0,0.0,0.0,1.8177,0.0,0.0,0.0,0.0,0.0,0.0,0.0,0.0,0.0,0.0,0.0,0.0,0.0,0.0,0.0,0.0,0.0,2.3385,2.3275,2.3223,2.3407,2.3636,2.3866,2.4608,2.5057,2.5173,2.5839,2.6318,2.6587,2.7001,2.733,2.76,2.76,2.76,2.76,2.76,2.76,2.76,2.76,2.7824,2.8263,2.9579,3.0268,3.0567,3.1241,3.1511,3.1511,3.1511,3.1511,3.1511,3.1511,3.1511,3.1511,3.1511,3.2392,3.3499,3.3499,3.4442,3.5504,3.5504,3.5504,3.5504,3.5504,3.5504,3.5504,3.5504,3.5504,3.5504,3.5504,3.6028,3.6492,3.6492,3.6911,3.7389,3.7764,3.8063,3.8377,3.8766,3.8826,3.896,3.9364,3.9388,3.9388,3.9388,3.9388,3.9388,3.9388,3.9388,3.9388,3.9388,3.9388,3.9388,3.9388,3.9388,3.9388,3.9388,3.902,3.8676,3.8392,3.7105,3.6492,3.6492,3.6851,3.7315,1.6413,1.7342,0.0,0.0,0.0,0.0,1.8326,1.8132,1.7712,0.0,0.0,0.0,0.0,0.0,0.0,0.0,0.0,0.0,0.0,0.0,0.0,0.0,0.0,0.0,2.3466,2.3363,2.3231,2.3105,2.3385,2.3551,2.3595,2.4097,2.4425,2.4485,2.5128,2.5809,2.6482,2.6557,2.6941,2.76,2.76,2.76,2.76,2.76,2.76,2.76,2.76,2.76,2.769,2.8978,2.9849,3.0477,3.1212,3.1511,3.1511,3.1511,3.1511,3.1511,3.1511,3.1511,3.1511,3.1511,3.2392,3.3499,3.3499,3.4442,3.5504,3.5504,3.5504,3.5504,3.5504,3.5504,3.5504,3.5504,3.5504,3.5504,3.5504,3.6073,3.6596,3.6596,3.7569,3.8407,3.8497,3.902,3.9388,3.9388,3.9388,3.9388,3.9388,3.9388,3.9388,3.9388,3.9388,3.9388,3.9388,3.9388,3.9388,3.9388,3.9388,3.9388,3.9388,3.9388,3.9388,3.9388,3.9388,3.908,3.8392,3.7255,3.6701,3.6701,3.6776,3.7419,1.8059,1.8012,1.8027,1.8568,0.0,0.0,1.7968,1.7787,1.7848,0.0,0.0,0.0,0.0,0.0,0.0,0.0,0.0,0.0,0.0,0.0,0.0,0.0,0.0,0.0,2.3341,2.3319,2.3231,2.3105,2.3171,2.3334,2.3588,2.3672,2.3747,2.3804,2.444,2.5113,2.5794,2.6318,2.6941,2.76,2.76,2.76,2.76,2.76,2.76,2.76,2.76,2.76,2.766,2.8442,2.9175,2.9879,3.1047,3.1511,3.1511,3.1511,3.1511,3.1511,3.1511,3.1511,3.1511,3.1511,3.2392,3.3499,3.3499,3.4442,3.5504,3.5504,3.5504,3.5504,3.5504,3.5504,3.5504,3.5504,3.5504,3.5504,3.5504,3.6417,3.7225,3.7225,3.7853,3.8556,3.9125,3.9334,3.9388,3.9388,3.9388,3.9388,3.9388,3.9388,3.9388,3.9388,3.9388,3.9388,3.9388,3.9388,3.9388,3.9388,3.9388,3.9388,3.9388,3.9388,3.9388,3.9388,3.9388,3.908,3.8392,3.8138,3.8018,3.8033,3.8586,3.8975,1.8792,1.8702,1.8777,1.9106,0.0,0.0,0.0,0.0,1.8296,0.0,0.0,0.0,0.0,0.0,0.0,0.0,0.0,0.0,0.0,0.0,0.0,0.0,0.0,0.0,2.2882,2.2911,2.3023,2.3326,2.3268,2.3319,2.3588,2.3538,2.3538,2.3595,2.3939,2.441,2.5083,2.5779,2.6437,2.7106,2.7435,2.76,2.76,2.76,2.76,2.76,2.76,2.76,2.7645,2.8308,2.8996,2.9696,3.0642,3.1212,3.1511,3.1511,3.1511,3.1511,3.1511,3.1511,3.1511,3.1511,3.2392,3.3499,3.3499,3.4442,3.5504,3.5504,3.5504,3.5504,3.5504,3.5504,3.5504,3.5504,3.5504,3.5504,3.5504,3.6507,3.7404,3.7404,3.8212,3.902,3.9328,3.9388,3.9388,3.9388,3.9388,3.9388,3.9388,3.9388,3.9388,3.9388,3.9388,3.9388,3.9388,3.9388,3.9388,3.9388,3.9388,3.9388,3.9388,3.9388,3.9388,3.9388,3.9388,3.9245,3.8901,3.8901,3.8721,3.8407,3.8736,3.9095,0.0,0.0,0.0,0.0,0.0,1.948,0.0,0.0,0.0,0.0,0.0,0.0,0.0,0.0,0.0,0.0,0.0,0.0,0.0,0.0,0.0,0.0,0.0,0.0,2.2257,2.2147,2.2426,2.3291,2.3074,2.3104,2.3558,2.3538,2.3538,2.3595,2.3595,2.3924,2.459,2.5128,2.5809,2.6602,2.7151,2.748,2.76,2.76,2.76,2.76,2.76,2.76,2.7645,2.8308,2.8996,2.9666,3.0253,3.0898,3.1511,3.1511,3.1511,3.1511,3.1511,3.1511,3.1511,3.1511,3.2392,3.3544,3.3799,3.4637,3.5504,3.5504,3.5504,3.5504,3.5504,3.5504,3.5504,3.5504,3.5504,3.5504,3.5504,3.6507,3.7404,3.7404,3.8497,3.9388,3.9388,3.9388,3.9388,3.9388,3.9388,3.9388,3.9388,3.9388,3.9388,3.9388,3.9388,3.9388,3.9388,3.9388,3.9388,3.9388,3.9388,3.9388,3.9388,3.9388,3.9388,3.9388,3.9388,3.9388,3.9388,3.9388,3.9125,3.8586,3.8586,3.8886,0.0,0.0,0.0,0.0,2.1425,0.0,0.0,0.0,0.0,0.0,0.0,0.0,0.0,0.0,0.0,0.0,0.0,0.0,0.0,0.0,0.0,0.0,0.0,0.0,0.0,2.0886,2.1013,2.2338,2.1812,2.2073,2.3513,2.3538,2.3538,2.3595,2.3595,2.3924,2.459,2.4679,2.5337,2.6587,2.6686,2.7031,2.76,2.76,2.76,2.76,2.76,2.76,2.7645,2.8308,2.8996,2.9666,3.0253,3.0898,3.1511,3.1511,3.1511,3.1511,3.1511,3.1511,3.1511,3.1511,3.2392,3.3724,3.4921,3.5385,3.5504,3.5504,3.5504,3.5504,3.5504,3.5504,3.5504,3.5504,3.5504,3.5504,3.5504,3.6507,3.7404,3.7404,3.8497,3.9388,3.9388,3.9388,3.9388,3.9388,3.9388,3.9388,3.9388,3.9388,3.9388,3.9388,3.9388,3.9388,3.9388,3.9388,3.9388,3.9388,3.9388,3.9388,3.9388,3.9388,3.9388,3.9388,3.9388,3.9388,3.9388,3.9388,3.9379,3.9305,3.9305,3.9349,0.0,0.0,0.0,0.0,0.0,0.0,2.0213,0.0,1.9959,0.0,0.0,0.0,0.0,0.0,0.0,0.0,0.0,0.0,0.0,0.0,0.0,0.0,0.0,0.0,0.0,0.0,0.0,0.0,2.1414,2.1405,2.2996,2.2986,2.3129,2.3595,2.3595,2.3744,2.4007,2.441,2.5068,2.6019,2.6408,2.6956,2.76,2.76,2.76,2.76,2.76,2.76,2.7615,2.7899,2.8648,2.9636,2.9864,3.0612,3.1511,3.1511,3.1511,3.1511,3.1511,3.1511,3.163,3.2392,3.3305,3.4247,3.522,3.5504,3.5504,3.5504,3.5504,3.5504,3.5504,3.5504,3.5504,3.5504,3.5504,3.5609,3.5998,3.6776,3.7524,3.7898,3.8751,3.9388,3.9388,3.9388,3.9388,3.9388,3.9388,3.9388,3.9388,3.9388,3.9388,3.9388,3.9388,3.9388,3.9388,3.9388,3.9388,3.9388,3.9388,3.9388,3.9388,3.9388,3.9388,3.9388,3.9388,3.9388,3.9388,3.9388,3.9388,3.9388,3.9388,3.9388,2.2293,0.0,0.0,0.0,0.0,0.0,0.0,0.0,0.0,0.0,0.0,0.0,0.0,0.0,0.0,0.0,0.0,0.0,0.0,0.0,0.0,0.0,0.0,0.0,0.0,0.0,0.0,0.0,0.0,2.0832,2.2358,2.2515,2.2814,2.3325,2.3505,2.3595,2.3595,2.4261,2.4933,2.5615,2.6273,2.6956,2.76,2.76,2.76,2.76,2.76,2.76,2.763,2.8004,2.8723,2.9636,2.9968,3.0702,3.1511,3.1511,3.1511,3.1511,3.1511,3.163,3.1959,3.3125,3.3933,3.4638,3.5295,3.5504,3.5504,3.5504,3.5504,3.5504,3.5504,3.5504,3.5504,3.5504,3.5504,3.5684,3.6342,3.6971,3.7599,3.8257,3.8945,3.9388,3.9388,3.9388,3.9388,3.9388,3.9388,3.9388,3.9388,3.9388,3.9388,3.9388,3.9388,3.9388,3.9388,3.9388,3.9388,3.9388,3.9388,3.9388,3.9388,3.9388,3.9388,3.9388,3.9388,3.9388,3.9388,3.9388,3.9388,3.9388,3.9388,3.9388,0.0,0.0,0.0,2.2173,0.0,0.0,0.0,0.0,2.1455,0.0,0.0,0.0,0.0,0.0,0.0,0.0,0.0,0.0,0.0,0.0,0.0,0.0,0.0,0.0,0.0,0.0,0.0,0.0,1.9979,0.0,2.1665,2.2343,2.2703,2.2733,2.3295,2.3595,2.3595,2.4261,2.4933,2.5615,2.6273,2.6956,2.76,2.76,2.76,2.76,2.76,2.76,2.7705,2.9007,2.9577,2.9726,3.0943,3.1466,3.1511,3.1511,3.1511,3.1511,3.1511,3.1914,3.2572,3.3275,3.3933,3.4638,3.5295,3.5504,3.5504,3.5504,3.5504,3.5504,3.5504,3.5504,3.5504,3.5504,3.5504,3.5684,3.6342,3.6971,3.7599,3.8257,3.8945,3.9388,3.9388,3.9388,3.9388,3.9388,3.9388,3.9388,3.9388,3.9388,3.9388,3.9388,3.9388,3.9388,3.9388,3.9388,3.9388,3.9388,3.9388,3.9388,3.9388,3.9388,3.9388,3.9388,3.9388,3.9388,3.9388,3.9388,3.9388,3.9388,3.9388,3.9388,0.0,0.0,2.4784,2.2853,0.0,0.0,0.0,0.0,0.0,0.0,0.0,0.0,0.0,0.0,0.0,0.0,0.0,0.0,0.0,0.0,0.0,0.0,0.0,0.0,0.0,0.0,0.0,0.0,1.9983,0.0,2.162,2.2343,2.2703,2.2703,2.3302,2.3595,2.3595,2.4261,2.4933,2.5615,2.6273,2.6956,2.76,2.76,2.76,2.76,2.76,2.76,2.766,2.8562,2.919,2.9696,3.0522,3.1107,3.1511,3.1511,3.1511,3.157,3.2004,3.2617,3.3275,3.3933,3.4607,3.519,3.5429,3.5504,3.5504,3.5504,3.5504,3.5504,3.5504,3.5504,3.5609,3.6058,3.6148,3.6447,3.7524,3.7913,3.8257,3.8931,3.926,3.9388,3.9388,3.9388,3.9388,3.9388,3.9388,3.9388,3.9388,3.9388,3.9388,3.9388,3.9388,3.9388,3.9388,3.9388,3.9388,3.9388,3.9388,3.9388,3.9388,3.9388,3.9388,3.9388,3.9388,3.9388,3.9388,3.9388,3.9388,3.9388,3.9388,3.9388,2.3535,2.4238,0.0,2.3077,2.3002,0.0,2.1395,0.0,0.0,0.0,0.0,0.0,0.0,0.0,0.0,0.0,0.0,0.0,0.0,0.0,0.0,0.0,0.0,0.0,0.0,0.0,1.9591,2.0303,1.9889,0.0,0.0,0.0,2.2703,2.2703,2.3302,2.3595,2.3595,2.45,2.5173,2.5615,2.6512,2.718,2.76,2.76,2.76,2.76,2.76,2.76,2.766,2.8562,2.9205,2.9696,3.0537,3.1122,3.1511,3.1511,3.1511,3.16,3.2258,3.2946,3.3604,3.4294,3.4936,3.5504,3.5504,3.5504,3.5504,3.5504,3.5504,3.5504,3.5504,3.5684,3.5953,3.6387,3.6656,3.7105,3.8167,3.8392,3.8601,3.929,3.9388,3.9388,3.9388,3.9388,3.9388,3.9388,3.9388,3.9388,3.9388,3.9388,3.9388,3.9388,3.9388,3.9388,3.9388,3.9388,3.9388,3.9388,3.9388,3.9388,3.9388,3.9388,3.9388,3.9388,3.9388,3.9388,3.9388,3.9388,3.9388,3.9388,3.9388,3.9388]}]]